[[{"header":{"parameterUnit":"m.s-1","parameterCategory":1,"la1":31.0,"la2":29.5877,"lo1":-88.7671,"lo2":-86.6584,"dy":0.0162,"dx":0.0185,"nx":115,"ny":88,"refTime":"2024-06-18T06:00:00:Z","depth":0,"parameterNumber":2,"parameterNumberName":"U-component_of_WINDS"},"data":[0.0,0.0,0.0,0.0,0.0,0.0,0.0,0.0,0.0,0.0,0.0,0.0,0.0,0.0,0.0,0.0,0.0,0.0,0.0,0.0,0.0,0.0,0.0,0.0,0.0,0.0,0.0,0.0,0.0,0.0,0.0,0.0,0.0,0.0,0.0,0.0,0.0,0.0,0.0,0.0,0.0,0.0,0.0,0.0,0.0,0.0,0.0,0.0,0.0,0.0,0.0,0.0,0.0,0.0,0.0,0.0,0.0,0.0,0.0,0.0,0.0,0.0,0.0,0.0,0.0,0.0,0.0,0.0,0.0,0.0,0.0,0.0,0.0,0.0,0.0,0.0,0.0,0.0,0.0,0.0,0.0,0.0,0.0,0.0,0.0,0.0,0.0,0.0,0.0,0.0,0.0,0.0,0.0,0.0,0.0,0.0,0.0,0.0,0.0,0.0,0.0,0.0,0.0,0.0,0.0,0.0,0.0,0.0,0.0,0.0,0.0,0.0,0.0,0.0,0.0,0.0,0.0,0.0,0.0,0.0,0.0,0.0,0.0,0.0,0.0,0.0,0.0,0.0,0.0,0.0,0.0,0.0,0.0,0.0,0.0,0.0,0.0,0.0,0.0,0.0,0.0,0.0,0.0,0.0,0.0,0.0,0.0,0.0,0.0,0.0,0.0,0.0,0.0,0.0,0.0,0.0,0.0,0.0,0.0,0.0,0.0,0.0,0.0,0.0,0.0,0.0,0.0,0.0,0.0,0.0,0.0,0.0,0.0,0.0,0.0,0.0,0.0,0.0,0.0,0.0,0.0,0.0,0.0,0.0,0.0,0.0,0.0,0.0,0.0,0.0,0.0,0.0,0.0,0.0,0.0,0.0,0.0,0.0,0.0,0.0,0.0,0.0,0.0,0.0,0.0,0.0,0.0,0.0,0.0,0.0,0.0,0.0,0.0,0.0,0.0,0.0,0.0,0.0,0.0,0.0,0.0,0.0,0.0,0.0,0.0,0.0,0.0,0.0,0.0,0.0,0.0,0.0,0.0,0.0,0.0,0.0,0.0,0.0,0.0,0.0,0.0,0.0,0.0,0.0,0.0,0.0,0.0,0.0,0.0,0.0,0.0,0.0,0.0,0.0,0.0,0.0,0.0,0.0,0.0,0.0,0.0,0.0,0.0,0.0,0.0,0.0,0.0,0.0,0.0,0.0,0.0,0.0,0.0,0.0,0.0,0.0,0.0,0.0,0.0,0.0,0.0,0.0,0.0,0.0,0.0,0.0,0.0,0.0,0.0,0.0,0.0,0.0,0.0,0.0,0.0,0.0,0.0,0.0,0.0,0.0,0.0,0.0,0.0,0.0,0.0,0.0,0.0,0.0,0.0,0.0,0.0,0.0,0.0,0.0,0.0,0.0,0.0,0.0,0.0,0.0,0.0,0.0,0.0,0.0,0.0,0.0,0.0,0.0,0.0,0.0,0.0,0.0,0.0,0.0,0.0,0.0,0.0,0.0,0.0,0.0,0.0,0.0,0.0,0.0,0.0,0.0,0.0,0.0,0.0,0.0,0.0,0.0,0.0,0.0,0.0,0.0,0.0,0.0,0.0,0.0,0.0,0.0,0.0,0.0,0.0,0.0,0.0,0.0,0.0,0.0,0.0,0.0,0.0,0.0,0.0,0.0,0.0,0.0,0.0,0.0,0.0,0.0,0.0,0.0,0.0,0.0,0.0,0.0,0.0,0.0,0.0,0.0,0.0,0.0,0.0,0.0,0.0,0.0,0.0,0.0,0.0,0.0,0.0,0.0,0.0,0.0,0.0,0.0,0.0,0.0,0.0,0.0,0.0,0.0,0.0,0.0,0.0,0.0,0.0,0.0,0.0,0.0,0.0,0.0,0.0,0.0,0.0,0.0,0.0,0.0,0.0,0.0,0.0,0.0,0.0,0.0,0.0,0.0,0.0,0.0,0.0,0.0,0.0,0.0,0.0,0.0,0.0,0.0,0.0,0.0,0.0,0.0,0.0,0.0,0.0,0.0,0.0,0.0,0.0,0.0,0.0,0.0,0.0,0.0,0.0,0.0,0.0,0.0,0.0,0.0,0.0,0.0,0.0,0.0,0.0,0.0,0.0,0.0,0.0,0.0,0.0,0.0,0.0,0.0,0.0,0.0,0.0,0.0,0.0,0.0,0.0,0.0,0.0,0.0,0.0,0.0,0.0,0.0,0.0,0.0,0.0,0.0,0.0,0.0,0.0,0.0,0.0,0.0,0.0,0.0,0.0,0.0,0.0,0.0,0.0,0.0,0.0,0.0,0.0,0.0,0.0,0.0,0.0,0.0,0.0,0.0,0.0,0.0,0.0,0.0,0.0,0.0,0.0,0.0,0.0,0.0,0.0,0.0,0.0,0.0,0.0,0.0,0.0,0.0,0.0,0.0,0.0,0.0,0.0,0.0,0.0,0.0,0.0,0.0,0.0,0.0,0.0,0.0,0.0,0.0,0.0,0.0,0.0,0.0,0.0,0.0,0.0,0.0,0.0,0.0,0.0,0.0,0.0,0.0,0.0,0.0,0.0,0.0,0.0,0.0,0.0,0.0,0.0,0.0,0.0,0.0,0.0,0.0,0.0,0.0,0.0,0.0,0.0,0.0,0.0,0.0,0.0,0.0,0.0,0.0,0.0,0.0,0.0,0.0,0.0,0.0,0.0,0.0,0.0,0.0,0.0,0.0,0.0,0.0,0.0,0.0,0.0,0.0,0.0,0.0,0.0,0.0,0.0,0.0,0.0,0.0,0.0,0.0,0.0,0.0,0.0,0.0,0.0,0.0,0.0,0.0,0.0,0.0,0.0,0.0,0.0,0.0,0.0,0.0,0.0,0.0,0.0,0.0,0.0,0.0,0.0,0.0,0.0,0.0,0.0,0.0,0.0,0.0,0.0,0.0,0.0,0.0,0.0,0.0,0.0,0.0,0.0,0.0,0.0,0.0,0.0,0.0,0.0,0.0,0.0,0.0,0.0,0.0,0.0,0.0,0.0,0.0,0.0,0.0,0.0,0.0,0.0,0.0,0.0,0.0,0.0,0.0,0.0,0.0,0.0,0.0,0.0,0.0,0.0,0.0,0.0,0.0,0.0,0.0,0.0,0.0,0.0,0.0,0.0,0.0,0.0,0.0,0.0,0.0,0.0,0.0,0.0,0.0,0.0,0.0,0.0,0.0,0.0,0.0,0.0,0.0,0.0,0.0,0.0,0.0,0.0,0.0,0.0,0.0,0.0,0.0,0.0,0.0,0.0,0.0,0.0,0.0,0.0,0.0,0.0,0.0,0.0,0.0,0.0,0.0,0.0,0.0,0.0,0.0,0.0,0.0,0.0,0.0,0.0,0.0,0.0,0.0,0.0,0.0,0.0,0.0,0.0,0.0,0.0,0.0,0.0,0.0,0.0,0.0,0.0,0.0,0.0,0.0,0.0,0.0,0.0,0.0,0.0,0.0,0.0,0.0,0.0,0.0,0.0,0.0,0.0,0.0,0.0,0.0,0.0,0.0,0.0,0.0,0.0,0.0,0.0,0.0,0.0,0.0,0.0,0.0,0.0,0.0,0.0,0.0,0.0,0.0,0.0,0.0,0.0,0.0,0.0,0.0,0.0,0.0,0.0,0.0,0.0,0.0,0.0,0.0,0.0,0.0,0.0,0.0,0.0,0.0,0.0,0.0,0.0,0.0,0.0,0.0,0.0,0.0,0.0,0.0,0.0,0.0,0.0,0.0,0.0,0.0,0.0,0.0,0.0,0.0,0.0,0.0,0.0,0.0,0.0,0.0,0.0,0.0,0.0,0.0,0.0,0.0,0.0,0.0,0.0,0.0,0.0,0.0,0.0,0.0,0.0,0.0,0.0,0.0,0.0,0.0,0.0,0.0,0.0,0.0,0.0,0.0,0.0,0.0,0.0,0.0,0.0,0.0,0.0,0.0,0.0,0.0,0.0,0.0,0.0,0.0,0.0,0.0,0.0,0.0,0.0,0.0,0.0,0.0,0.0,0.0,0.0,0.0,0.0,0.0,0.0,0.0,0.0,0.0,0.0,0.0,0.0,0.0,0.0,0.0,0.0,0.0,0.0,0.0,0.0,0.0,0.0,0.0,0.0,0.0,0.0,0.0,0.0,0.0,0.0,0.0,0.0,0.0,0.0,0.0,0.0,0.0,0.0,0.0,0.0,0.0,0.0,0.0,0.0,0.0,0.0,0.0,0.0,0.0,0.0,0.0,0.0,0.0,0.0,0.0,0.0,0.0,0.0,0.0,0.6983,0.0,0.0,0.0,0.0,0.0,0.0,0.0,0.0,0.0,0.0,0.0,0.0,0.0,0.0,0.0,0.0,0.0,0.0,0.0,0.0,0.0,0.0,0.0,0.0,0.0,0.0,0.0,0.0,0.0,0.0,0.0,0.0,0.0,0.0,0.0,0.0,0.0,0.0,0.0,0.0,0.0,0.0,0.0,0.0,0.0,0.0,0.0,0.0,0.0,0.0,0.0,0.0,0.0,0.0,0.0,0.0,0.0,0.0,0.0,0.0,0.0,0.0,0.0,0.0,0.0,0.0,0.0,0.0,0.0,0.0,0.0,0.0,0.0,0.0,0.0,0.0,0.0,0.0,0.0,0.0,0.0,0.0,0.0,0.0,0.0,0.0,0.0,0.0,0.0,0.0,0.0,0.0,0.0,0.0,0.0,0.0,0.0,0.0,0.0,0.0,0.0,0.0,0.0,0.0,0.0,0.0,0.0,0.0,0.0,0.0,0.6983,0.6983,0.6983,0.6983,0.7006,0.0,0.0,0.0,0.0,0.0,0.0,0.0,0.0,0.0,0.0,0.0,0.0,0.0,0.0,0.0,0.0,0.0,0.0,0.0,0.0,0.0,0.0,0.0,0.0,0.0,0.0,0.0,0.0,0.0,0.0,0.0,0.0,0.0,0.0,0.0,0.0,0.0,0.0,0.0,0.0,0.0,0.0,0.0,0.0,0.0,0.0,0.0,0.0,0.0,0.0,0.0,0.0,0.0,0.0,0.0,0.0,0.0,0.0,0.0,0.0,0.0,0.0,0.0,0.0,0.0,0.0,0.0,0.0,0.0,0.0,0.0,0.0,0.0,0.0,0.0,0.0,0.0,0.0,0.0,0.0,0.0,0.0,0.0,0.0,0.0,0.0,0.0,0.0,0.0,0.0,0.0,0.0,0.0,0.0,0.0,0.0,0.0,0.0,0.0,0.0,0.0,0.0,0.0,0.0,0.0,0.0,0.0,0.0,0.0,0.0,0.0,0.0,0.7206,0.7206,0.7206,0.0,0.0,0.0,0.0,0.0,0.0,0.0,0.0,0.0,0.0,0.0,0.0,0.0,0.0,0.0,0.0,0.0,0.0,0.0,0.0,0.0,0.0,0.0,0.0,0.0,0.0,0.0,0.0,0.0,0.0,0.0,0.0,0.0,0.0,0.0,0.0,0.0,0.0,0.0,0.0,0.0,0.0,0.0,0.0,0.0,0.0,0.0,0.0,0.0,0.0,0.0,0.0,0.0,0.0,0.0,0.0,0.0,0.0,0.0,0.0,0.0,0.0,0.0,0.0,0.0,0.0,0.0,0.0,0.0,0.0,0.0,0.0,0.0,0.0,0.0,0.0,0.0,0.0,0.0,0.0,0.0,0.0,0.0,0.0,0.0,0.0,0.0,0.0,0.0,0.0,0.0,0.0,0.0,0.0,0.0,0.0,0.0,0.0,0.0,0.0,0.0,0.0,0.0,0.0,0.0,0.0,0.0,0.0,0.0,0.0,0.7249,0.7806,0.7819,0.0,0.7846,0.0,0.0,0.0,0.0,0.0,0.0,0.0,0.0,0.0,0.0,0.0,0.0,0.0,0.0,0.0,0.0,0.0,0.0,0.0,0.0,0.0,0.0,0.0,0.0,0.0,0.0,0.0,0.0,0.0,0.0,0.0,0.0,0.0,0.0,0.0,0.0,0.0,0.0,0.0,0.0,0.0,0.0,0.0,0.0,0.0,0.0,0.0,0.0,0.0,0.0,0.0,0.0,0.0,0.0,0.0,0.0,0.0,0.0,0.0,0.0,0.0,0.0,0.0,0.0,0.0,0.0,0.0,0.0,0.0,0.0,0.0,0.0,0.0,0.0,0.0,0.0,0.0,0.0,0.0,0.0,0.0,0.0,0.0,0.0,0.0,0.0,0.0,0.0,0.0,0.0,0.0,0.0,0.0,0.0,0.0,0.0,0.0,0.0,0.0,0.0,0.0,0.0,0.0,0.0,0.0,0.0,0.0,0.0,0.0,0.0,0.7659,0.7899,0.7899,0.7899,0.0,0.0,0.0,0.0,0.0,0.0,0.0,0.0,0.0,0.0,0.0,0.0,0.0,0.0,0.0,0.0,0.0,0.0,0.0,0.0,0.0,0.0,0.0,0.0,0.0,0.0,0.0,0.0,0.0,0.0,0.0,0.0,0.0,0.0,0.0,0.0,0.0,0.0,0.0,0.0,0.0,0.0,0.0,0.0,0.0,0.0,0.0,0.0,0.0,0.0,0.0,0.0,0.0,0.0,0.0,0.0,0.0,0.0,0.0,0.0,0.0,0.0,0.0,0.0,0.0,0.0,0.0,0.0,0.0,0.0,0.0,0.0,0.0,0.0,0.0,0.0,0.0,0.0,0.0,0.0,0.0,0.0,0.0,0.0,0.0,0.0,0.0,0.0,0.0,0.0,0.0,0.0,0.0,0.0,0.0,0.0,0.0,0.0,0.0,0.0,0.0,0.0,0.0,0.0,0.0,0.0,0.0,0.0,0.0,0.0,0.7754,0.0,0.8126,0.8139,0.8032,0.7779,0.0,0.0,0.0,0.0,0.0,0.0,0.0,0.0,0.0,0.0,0.0,0.0,0.0,0.0,0.0,0.0,0.0,0.0,0.0,0.0,0.0,0.0,0.0,0.0,0.0,0.0,0.0,0.0,0.0,0.0,0.0,0.0,0.0,0.0,0.0,0.0,0.0,0.0,0.0,0.0,0.0,0.0,0.0,0.0,0.0,0.0,0.0,0.0,0.0,0.0,0.0,0.0,0.0,0.0,0.0,0.0,0.0,0.0,0.0,0.0,0.0,0.0,0.0,0.0,0.0,0.0,0.0,0.0,0.0,0.0,0.0,0.0,0.0,0.0,0.0,0.0,0.0,0.0,0.0,0.0,0.0,0.0,0.0,0.0,0.0,0.0,0.0,0.0,0.0,0.0,0.0,0.0,0.0,0.0,0.0,0.0,0.0,0.0,0.0,0.0,0.0,0.0,0.0,0.0,0.0,0.0,0.0,0.0,0.0,0.8165,0.8179,0.8738,0.8764,0.8376,0.0,0.0,0.0,0.0,0.0,0.0,0.0,0.0,0.0,0.0,0.0,0.0,0.0,0.0,0.0,0.0,0.0,0.0,0.0,0.0,0.0,0.0,0.0,0.0,0.0,0.0,0.0,0.0,0.0,0.0,0.0,0.0,0.0,0.0,0.0,0.0,0.0,0.0,0.0,0.0,0.0,0.0,0.0,0.0,0.0,0.0,0.0,0.0,0.0,0.0,0.0,0.0,0.0,0.0,0.0,0.0,0.0,0.0,0.0,0.0,0.0,0.0,0.0,0.0,0.0,0.0,0.0,0.0,0.0,0.0,0.0,0.0,0.0,0.0,0.0,0.0,0.0,0.0,0.0,0.0,0.0,0.0,0.0,0.0,0.0,0.0,0.0,0.0,0.0,0.0,0.0,0.0,0.0,0.0,0.0,0.0,0.0,0.0,0.0,0.0,0.0,0.0,0.0,0.0,0.0,0.0,0.0,0.0,0.0,0.7399,0.7712,0.8365,0.9313,0.8631,0.8176,0.0,0.0,0.0,0.0,0.0,0.0,0.0,0.0,0.0,0.0,0.0,0.0,0.0,0.0,0.0,0.0,0.0,0.0,0.0,0.0,0.0,0.0,0.0,0.0,0.0,0.0,0.0,0.0,0.0,0.0,0.0,0.0,0.0,0.0,0.0,0.0,0.0,0.0,0.0,0.0,0.0,0.0,0.0,0.0,0.0,0.0,0.0,0.0,0.0,0.0,0.0,0.0,0.0,0.0,0.0,0.0,0.0,0.0,0.0,0.0,0.0,0.0,0.0,0.0,0.0,0.0,0.0,0.0,0.0,0.0,0.0,0.0,0.0,0.0,0.0,0.0,0.0,0.0,0.0,0.0,0.0,0.0,0.0,0.0,0.0,0.0,0.0,0.0,0.0,0.0,0.0,0.0,0.0,0.0,0.0,0.0,0.0,0.0,0.0,0.0,0.0,0.0,0.0,0.0,0.0,0.0,0.0,0.0,0.0,0.7321,0.0,0.8791,0.0,0.8618,0.8071,0.0,0.0,0.0,0.0,0.0,0.0,0.0,0.0,0.0,0.0,0.0,0.0,0.0,0.0,0.0,0.0,0.0,0.0,0.0,0.0,0.0,0.0,0.0,0.0,0.0,0.0,0.0,0.0,0.0,0.0,0.0,0.0,0.0,0.0,0.0,0.0,0.0,0.0,0.0,0.0,0.0,0.0,0.0,0.0,0.0,0.0,0.0,0.0,0.0,0.0,0.0,0.0,0.0,0.0,0.0,0.0,0.0,0.0,0.0,0.0,0.0,0.0,0.0,0.0,0.0,0.0,0.0,0.0,0.0,0.0,0.0,0.0,0.0,0.0,0.0,0.0,0.0,0.0,0.0,0.0,0.0,0.0,0.0,0.0,0.0,0.0,0.0,0.0,0.0,0.0,0.0,0.0,0.0,0.0,0.0,0.0,0.0,0.0,0.0,0.0,0.0,0.0,0.0,0.0,0.0,0.0,0.0,0.0,0.7602,0.8724,0.9313,0.9339,0.8858,0.8764,0.8096,0.0,0.0,0.0,0.0,0.0,0.0,0.0,0.0,0.0,0.0,0.0,0.0,0.0,0.0,0.0,0.0,0.0,0.0,0.0,0.0,0.0,0.0,0.0,0.0,0.0,0.0,0.0,0.0,0.0,0.0,0.0,0.0,0.0,0.0,0.0,0.0,0.0,0.0,0.0,0.0,0.0,0.0,0.0,0.0,0.0,0.0,0.0,0.0,0.0,0.0,0.0,0.0,0.0,0.0,0.0,0.0,0.0,0.0,0.0,0.0,0.0,0.0,0.0,0.0,0.0,0.0,0.0,0.0,0.0,0.0,0.0,0.0,0.0,0.0,0.0,0.0,0.0,0.0,0.0,0.0,0.0,0.0,0.0,0.0,0.0,0.0,0.0,0.0,0.0,0.0,0.0,0.0,0.0,0.0,0.0,0.0,0.0,0.0,0.0,0.0,0.0,0.0,0.0,0.0,0.0,0.0,0.0,0.0,0.0,0.8191,0.8577,0.9099,0.9618,0.8537,0.7963,0.0,0.0,0.0,0.0,0.0,0.0,0.0,0.0,0.0,0.0,0.0,0.0,0.0,0.0,0.0,0.0,0.0,0.0,0.0,0.0,0.0,0.0,0.0,0.0,0.0,0.0,0.0,0.0,0.0,0.0,0.0,0.0,0.0,0.0,0.0,0.0,0.0,0.0,0.0,0.0,0.0,0.0,0.0,0.0,0.0,0.0,0.0,0.0,0.0,0.0,0.0,0.0,0.0,0.0,0.0,0.0,0.0,0.0,0.0,0.0,0.0,0.0,0.0,0.0,0.0,0.0,0.0,0.0,0.0,0.0,0.0,0.0,0.0,0.0,0.0,0.0,0.0,0.0,0.0,0.0,0.0,0.0,0.0,0.0,0.0,0.0,0.0,0.0,0.0,0.0,0.0,0.0,0.0,0.0,0.0,0.0,0.0,0.0,0.0,0.0,0.0,0.0,0.0,0.0,0.0,0.0,0.0,0.0,0.0,0.9085,0.9487,0.9941,1.0434,0.9272,0.8577,0.8458,0.0,0.0,0.0,0.0,0.0,0.0,0.0,0.0,0.0,0.0,0.0,0.0,0.0,0.0,0.0,0.0,0.0,0.0,0.0,0.0,0.0,0.0,0.0,0.0,0.0,0.0,0.0,0.0,0.0,0.0,0.0,0.0,0.0,0.0,0.0,0.0,0.0,0.0,0.0,0.0,0.0,0.0,0.0,0.0,0.0,0.0,0.0,0.0,0.0,0.0,0.0,0.0,0.0,0.0,0.0,0.0,0.0,0.0,0.0,0.0,0.0,0.0,0.0,0.0,0.0,0.0,0.0,0.0,0.0,0.0,0.0,0.0,0.0,0.0,0.0,0.0,0.0,0.0,0.0,0.0,0.0,0.0,0.0,0.0,0.0,0.0,0.0,0.0,0.0,0.0,0.0,0.0,0.0,0.0,0.0,0.0,0.0,0.0,0.0,0.0,0.0,0.0,0.0,0.0,0.0,0.0,0.0,0.0,1.1092,1.1748,1.1784,1.1226,1.0801,0.9793,0.0,0.0,0.0,0.0,0.0,0.0,0.0,0.0,0.0,0.0,0.0,0.0,0.0,0.0,0.0,0.0,0.0,0.0,0.0,0.0,0.0,0.0,0.0,0.0,0.0,0.0,0.0,0.0,0.0,0.0,0.0,0.0,0.0,0.0,0.0,0.0,0.0,0.0,0.0,0.0,0.0,0.0,0.0,0.0,0.0,0.0,0.0,0.0,0.0,0.0,0.0,0.0,0.0,0.0,0.0,0.0,0.0,0.0,0.0,0.0,0.0,0.0,0.0,0.0,0.0,0.0,0.0,0.0,0.0,0.0,0.0,0.0,0.0,0.0,0.0,0.0,0.0,0.0,0.0,0.0,0.0,0.0,0.0,0.0,0.0,0.0,0.0,0.0,0.0,0.0,0.0,0.0,0.0,0.0,0.0,0.0,0.0,0.0,0.0,0.0,0.0,0.0,0.0,0.0,0.0,0.0,0.0,0.0,0.0,1.2347,1.3741,1.4095,1.3267,1.1534,1.0479,0.0,0.0,0.0,0.0,0.0,0.0,0.0,0.0,0.0,0.0,0.0,0.0,0.0,0.0,0.0,0.0,0.0,0.0,0.0,0.0,0.0,0.0,0.0,0.0,0.0,0.0,0.0,0.0,0.0,0.0,0.0,0.0,0.0,0.0,0.0,0.0,0.0,0.0,0.0,0.0,0.0,0.0,0.0,0.0,0.0,0.0,0.0,0.0,0.0,0.0,0.0,0.0,0.0,0.0,0.0,0.0,0.0,0.0,0.0,0.0,0.0,0.0,0.0,0.0,0.0,0.0,0.0,0.0,0.0,0.0,0.0,0.0,0.0,0.0,0.0,0.0,0.0,0.0,0.0,0.0,0.0,0.0,0.0,0.0,0.0,0.0,0.0,0.0,0.0,0.0,0.0,0.0,0.0,0.0,0.0,0.0,0.0,0.0,0.0,0.0,0.0,0.0,0.0,0.0,0.0,0.0,0.0,0.0,1.2136,1.3347,1.5173,1.5909,1.5414,1.3233,1.1667,0.0,0.0,0.0,0.0,0.0,0.0,0.0,0.0,0.0,0.0,0.0,0.0,0.0,0.0,0.0,0.0,0.0,0.0,0.0,0.0,0.0,0.0,0.0,0.0,0.0,0.0,0.0,0.0,0.0,0.0,0.0,0.0,0.0,0.0,0.0,0.0,0.0,0.0,0.0,0.0,0.0,0.0,0.0,0.0,0.0,0.0,0.0,0.0,0.0,0.0,0.0,0.0,0.0,0.0,0.0,0.0,0.0,0.0,0.0,0.0,0.0,0.0,0.0,0.0,0.0,0.0,0.0,0.0,0.0,0.0,0.0,0.0,0.0,0.0,0.0,0.0,0.0,0.0,0.0,0.0,0.0,0.0,0.0,0.0,0.0,0.0,0.0,0.0,0.0,0.0,0.0,0.0,0.0,0.0,0.0,0.0,0.0,0.0,0.0,0.0,0.0,0.0,0.0,0.0,0.0,0.0,0.0,0.0,1.2999,1.4196,1.6177,1.7233,1.7139,1.5186,1.3072,0.0,0.0,0.0,0.0,0.0,0.0,0.0,0.0,0.0,0.0,0.0,0.0,0.0,0.0,0.0,0.0,0.0,0.0,0.0,0.0,0.0,0.0,0.0,0.0,0.0,0.0,0.0,0.0,0.0,0.0,0.0,0.0,0.0,0.0,0.0,0.0,0.0,0.0,0.0,0.0,0.0,0.0,0.0,0.0,0.0,0.0,0.0,0.0,0.0,0.0,0.0,0.0,0.0,0.0,0.0,0.0,0.0,0.0,0.0,0.0,0.0,0.0,0.0,0.0,0.0,0.0,0.0,0.0,0.0,0.0,0.0,0.0,0.0,0.0,0.0,0.0,0.0,0.0,0.0,0.0,0.0,0.0,0.0,0.0,0.0,0.0,0.0,0.0,0.0,0.0,0.0,0.0,0.0,0.0,0.0,0.0,0.0,0.0,0.0,0.0,0.0,0.0,0.0,0.0,0.0,0.0,0.0,0.0,1.3794,1.4821,1.6578,1.7434,1.7192,1.5186,1.3561,0.0,0.0,0.0,0.0,0.0,0.0,0.0,0.0,0.0,0.0,0.0,0.0,0.0,0.0,0.0,0.0,0.0,0.0,0.0,0.0,0.0,0.0,0.0,0.0,0.0,0.0,0.0,0.0,0.0,0.0,0.0,0.0,0.0,0.0,0.0,0.0,0.0,0.0,0.0,0.0,0.0,0.0,0.0,0.0,0.0,0.0,0.0,0.0,0.7326,0.0,0.0,0.0,0.0,0.0,0.0,0.0,0.0,0.0,0.0,0.0,0.0,0.0,0.0,0.0,0.0,0.0,0.0,0.0,0.0,0.0,0.0,0.0,0.0,0.0,0.0,0.0,0.0,0.0,0.0,0.0,0.0,0.0,0.0,0.0,0.0,0.0,0.0,0.0,0.0,0.0,0.0,0.0,0.0,0.0,0.0,0.0,0.0,0.0,0.0,0.0,0.0,0.0,0.0,0.0,0.0,0.0,0.0,0.0,1.4469,1.5765,1.7101,1.7729,1.7515,1.5845,1.425,0.0,0.0,0.0,0.0,0.0,0.0,0.0,0.0,0.0,0.0,0.0,0.0,0.0,0.0,0.0,0.0,0.0,0.0,0.0,0.0,0.0,0.0,0.0,0.0,0.0,0.0,0.0,0.0,0.0,0.0,0.0,0.0,0.0,0.0,0.0,0.0,0.0,0.0,0.0,0.0,0.0,0.0,0.0,0.0,0.0,0.0,0.0,0.0,0.0,0.0,0.0,0.0,0.0,0.0,0.0,0.0,0.0,0.0,0.0,0.0,0.0,0.0,0.0,0.0,0.0,0.0,0.0,0.0,0.0,0.0,0.0,0.0,0.0,0.0,0.0,0.0,0.0,0.0,0.0,0.0,0.0,0.0,0.0,0.0,0.0,0.0,0.0,0.0,0.0,0.0,0.0,0.0,0.0,0.0,0.0,0.0,0.0,0.0,0.0,0.0,0.0,0.0,0.0,0.0,0.0,0.0,0.0,1.3173,1.5003,1.6847,1.7622,1.8022,1.7969,1.6582,1.487,1.2931,0.0,0.0,0.0,0.0,0.0,0.0,0.0,0.0,0.0,0.0,0.0,0.0,0.0,0.0,0.0,0.0,0.0,0.0,0.0,0.0,0.0,0.0,0.0,0.0,0.0,0.0,0.0,0.0,0.0,0.0,0.0,0.0,0.0,0.0,0.0,0.0,0.0,0.0,0.8683,0.8609,0.0,0.0,0.0,0.0,0.0,0.0,0.0,0.0,0.6301,0.0,0.0,0.0,0.0,0.0,0.0,0.0,0.0,0.0,0.0,0.0,0.0,0.0,0.0,0.0,0.0,0.0,0.0,0.0,0.0,0.0,0.0,0.0,0.0,0.0,0.0,0.0,0.0,0.0,0.0,0.0,0.0,0.0,0.0,0.0,0.0,0.0,0.0,0.0,0.0,0.0,0.0,0.0,0.0,0.0,0.0,0.0,0.0,0.0,0.0,0.0,0.0,0.0,0.0,0.0,0.0,1.312,1.3788,1.5297,1.7729,1.7916,1.8022,1.7955,1.6582,1.4954,1.32,0.0,0.0,0.0,0.0,0.0,0.0,0.0,0.0,0.0,0.0,0.0,0.0,0.0,0.0,0.0,0.0,0.0,0.0,0.0,0.0,0.0,0.0,0.0,0.0,0.0,0.0,0.0,0.0,0.0,0.0,0.0,0.0,0.0,0.0,0.0,0.0,0.0,0.0,0.0,0.8292,0.8532,0.0,0.0,0.0,0.0,0.0,0.0,0.0,0.0,0.651,0.0,0.0,0.0,0.0,0.0,0.0,0.0,0.0,0.0,0.0,0.0,0.0,0.0,0.0,0.0,0.0,0.0,0.0,0.0,0.0,0.0,0.0,0.0,0.0,0.0,0.0,0.0,0.0,0.0,0.0,0.0,0.0,0.0,0.0,0.0,0.0,0.0,0.0,0.0,0.0,0.0,0.0,0.0,0.0,0.0,0.0,0.0,0.0,0.0,0.0,0.0,0.0,0.0,0.0,0.0,1.3287,1.4603,1.6286,1.8383,1.8329,1.8249,1.8237,1.6393,1.4696,0.0,0.0,0.0,0.0,0.0,0.0,0.0,0.0,0.0,0.0,0.0,0.0,0.0,0.0,0.0,0.0,0.0,0.0,0.0,0.0,0.0,0.0,0.0,0.0,0.0,0.0,0.0,0.0,0.0,0.0,0.0,0.0,0.0,0.0,0.0,0.0,0.0,0.0,0.0,0.0,0.8179,0.8542,0.8188,0.0,0.0,0.0,0.0,0.0,0.0,0.6625,0.6339,0.0,0.0,0.0,0.0,0.0,0.0,0.0,0.0,0.0,0.0,0.0,0.0,0.0,0.0,0.0,0.0,0.0,0.0,0.0,0.0,0.0,0.0,0.0,0.0,0.0,0.0,0.0,0.0,0.0,0.0,0.0,0.0,0.0,0.0,0.0,0.0,0.0,0.0,0.0,0.0,0.0,0.0,0.0,0.0,0.0,0.0,0.0,0.0,0.0,0.0,0.0,0.0,0.0,0.0,0.0,1.3347,1.5231,1.7101,1.8891,1.8664,1.849,1.845,1.6254,1.4437,0.0,0.0,0.0,0.0,0.0,0.0,0.0,0.0,0.0,0.0,0.0,0.0,0.0,0.0,0.0,0.0,0.0,0.0,0.0,0.0,0.0,0.0,0.0,0.0,0.0,0.0,0.0,0.0,0.0,0.0,0.0,0.0,0.0,0.0,0.0,0.0,0.0,0.0,0.0,0.0,0.0,0.8789,0.817,0.7274,0.0,0.0,0.0,0.0,0.6614,0.6539,0.0,0.0,0.0,0.0,0.0,0.0,0.0,0.0,0.0,0.0,0.0,0.0,0.0,0.0,0.0,0.0,0.0,0.0,0.0,0.0,0.0,0.0,0.0,0.0,0.0,0.0,0.0,0.0,0.0,0.0,0.0,0.0,0.0,0.0,0.0,0.0,0.0,0.0,0.0,0.0,0.0,0.0,0.0,0.0,0.0,0.0,0.0,0.0,0.0,0.0,0.0,0.0,0.0,0.0,0.0,0.0,1.3908,1.5231,1.6994,1.9187,1.8799,1.849,1.8464,1.623,1.4437,0.0,0.0,0.0,0.0,0.0,0.0,0.0,0.0,0.0,0.0,0.0,0.0,0.0,0.0,0.0,0.0,0.0,0.0,0.0,0.0,0.0,0.0,0.0,0.0,0.0,0.0,0.0,0.0,0.0,0.0,0.0,0.0,0.0,0.0,0.0,0.0,0.0,0.0,0.0,0.0,0.0,0.9671,1.0316,0.8612,0.7617,0.0,0.0,0.7516,0.777,0.7929,0.0,0.0,0.0,0.0,0.0,0.0,0.0,0.0,0.0,0.0,0.0,0.0,0.0,0.0,0.0,0.0,0.0,0.0,0.0,0.0,0.0,0.0,0.0,0.0,0.0,0.0,0.0,0.0,0.0,0.0,0.0,0.0,0.0,0.0,0.0,0.0,0.0,0.0,0.0,0.0,0.0,0.0,0.0,0.0,0.0,0.0,0.0,0.0,0.0,0.0,0.0,0.0,0.0,0.0,0.0,1.1797,1.4076,1.6035,1.7809,1.9321,1.8958,1.8664,1.849,1.5909,1.4089,0.0,0.0,0.0,0.0,0.0,0.0,0.0,0.0,0.0,0.0,0.0,0.0,0.0,0.0,0.0,0.0,0.0,0.0,0.0,0.0,0.0,0.0,0.0,0.0,0.0,0.0,0.0,0.0,0.0,0.0,0.0,0.0,0.0,0.0,0.0,0.0,0.0,0.0,0.0,0.0,0.0,0.0,0.9471,0.8598,0.0,0.0,0.0,0.7936,0.7783,0.0,0.0,0.0,0.0,0.0,0.0,0.0,0.0,0.0,0.0,0.0,0.0,0.0,0.0,0.0,0.0,0.0,0.0,0.0,0.0,0.0,0.0,0.0,0.0,0.0,0.0,0.0,0.0,0.0,0.0,0.0,0.0,0.0,0.0,0.0,0.0,0.0,0.0,0.0,0.0,0.0,0.0,0.0,0.0,0.0,0.0,0.0,0.0,0.0,0.0,0.0,0.0,0.0,0.0,0.0,0.0,0.0,1.3498,1.5733,1.73,1.8148,1.7858,1.7554,1.7302,1.4833,0.0,0.0,0.0,0.0,0.0,0.0,0.0,0.0,0.0,0.0,0.0,0.0,0.0,0.0,0.0,0.0,0.0,0.0,0.0,0.0,0.0,0.0,0.0,0.0,0.0,0.0,0.0,0.6826,0.0,0.0,0.0,0.0,0.0,0.0,0.0,0.0,0.0,0.0,0.0,0.0,0.0,0.0,0.9257,0.8977,0.8662,0.8486,0.0,0.0,0.8364,0.814,0.8533,0.8479,0.0,0.0,0.0,0.0,0.0,0.0,0.0,0.0,0.0,0.0,0.0,0.0,0.0,0.0,0.0,0.0,0.0,0.0,0.0,0.0,0.0,0.0,0.0,0.0,0.0,0.0,0.0,0.0,0.0,0.0,0.0,0.0,0.0,0.0,0.0,0.0,0.0,0.0,0.0,0.0,0.0,0.0,0.0,0.0,0.0,0.0,0.0,0.0,0.0,0.0,0.0,0.0,0.0,0.0,0.0,1.1843,1.315,1.4215,1.4884,1.4463,1.4225,1.4194,1.2679,1.1654,0.0,0.0,0.0,0.0,0.0,0.0,0.0,0.0,0.0,0.0,0.0,0.0,0.0,0.0,0.0,0.0,0.0,0.0,0.0,0.0,0.0,0.0,0.0,0.0,0.0,0.0,0.0,0.0,0.0,0.0,0.0,0.0,0.0,0.0,0.0,0.0,0.0,0.0,0.0,0.0,0.0,1.0108,1.0097,0.9396,0.9061,0.0,0.0,0.9,0.9408,0.9697,0.942,0.7966,0.0,0.0,0.0,0.0,0.0,0.0,0.0,0.0,0.0,0.0,0.0,0.0,0.0,0.0,0.0,0.0,0.0,0.0,0.0,0.0,0.0,0.0,0.0,0.0,0.0,0.0,0.0,0.0,0.0,0.0,0.0,0.0,0.0,0.0,0.0,0.0,0.0,0.0,0.0,0.0,0.0,0.0,0.0,0.0,0.0,0.0,0.0,0.0,0.0,0.0,0.0,0.0,0.0,1.0371,1.1692,1.3055,1.4035,1.4569,1.4437,1.4215,1.3913,1.2561,1.1351,0.0,0.0,0.0,0.0,0.0,0.0,0.0,0.0,0.0,0.0,0.0,0.0,0.0,0.0,0.0,0.0,0.0,0.0,0.0,0.0,0.0,0.0,0.0,0.0,0.0,0.0,0.0,0.0,0.7188,0.7031,0.6321,0.0,0.0,0.0,0.0,0.0,0.0,0.0,0.0,0.0,0.0,0.9457,0.9889,0.9676,0.0,0.0,0.9788,0.9693,0.9526,0.972,0.9467,0.8289,0.7936,0.0,0.0,0.0,0.0,0.0,0.0,0.0,0.0,0.0,0.0,0.0,0.0,0.0,0.0,0.0,0.0,0.0,0.0,0.0,0.0,0.0,0.0,0.0,0.0,0.0,0.0,0.0,0.0,0.0,0.0,0.0,0.0,0.0,0.0,0.0,0.0,0.0,0.0,0.0,0.0,0.0,0.0,0.0,0.0,0.0,0.0,0.0,0.0,0.0,0.0,0.0,0.0,0.9742,1.0649,1.1911,1.2738,1.3159,1.3113,1.2949,1.259,1.1558,1.0562,0.0,0.0,0.0,0.0,0.0,0.0,0.0,0.0,0.0,0.0,0.0,0.0,0.0,0.0,0.0,0.0,0.0,0.0,0.0,0.0,0.0,0.0,0.0,0.0,0.0,0.0,0.0,0.0,0.652,0.6232,0.5722,0.0,0.0,0.0,0.0,0.0,0.0,0.0,0.0,0.0,0.0,0.9136,0.9656,0.9731,0.9758,0.9846,0.9917,0.9829,0.9526,0.9659,0.9467,0.8554,0.0,0.0,0.0,0.0,0.0,0.0,0.0,0.0,0.0,0.0,0.0,0.0,0.0,0.0,0.0,0.0,0.0,0.0,0.0,0.0,0.0,0.0,0.0,0.0,0.0,0.0,0.0,0.662,0.0,0.0,0.6246,0.0,0.0,0.0,0.0,0.0,0.0,0.0,0.0,0.0,0.0,0.0,0.0,0.0,0.0,0.0,0.0,0.0,0.0,0.0,0.0,0.0,0.0,0.8393,0.8324,0.92,0.97,0.996,0.9806,0.979,0.9769,0.9249,0.8984,0.8917,0.0,0.0,0.0,0.0,0.0,0.0,0.0,0.0,0.0,0.0,0.0,0.0,0.0,0.0,0.0,0.0,0.0,0.0,0.0,0.0,0.0,0.0,0.0,0.0,0.0,0.0,0.5655,0.5188,0.4979,0.0,0.0,0.0,0.0,0.0,0.0,0.0,0.0,0.0,0.0,0.8906,0.9591,0.9618,0.9618,0.971,0.995,0.9578,0.9328,0.9578,0.9727,0.9541,0.0,0.0,0.0,0.0,0.0,0.0,0.0,0.0,0.0,0.0,0.0,0.0,0.0,0.0,0.0,0.0,0.0,0.0,0.0,0.0,0.0,0.0,0.0,0.0,0.0,0.0,0.0,0.9927,0.9273,0.0,0.0,0.0,0.0,0.0,0.0,0.0,0.0,0.0,0.0,0.0,0.9108,0.8767,0.0,0.0,0.0,0.0,0.0,0.0,0.0,0.0,0.0,0.0,0.0,0.0,0.8052,0.8403,0.9143,0.9625,0.9785,0.9774,0.9677,0.9582,0.9367,0.8958,0.8443,0.0,0.0,0.0,0.0,0.0,0.0,0.0,0.0,0.0,0.0,0.0,0.0,0.0,0.0,0.0,0.0,0.0,0.0,0.0,0.0,0.0,0.0,0.0,0.0,0.0,0.5502,0.0,0.0,0.0,0.0,0.0,0.0,0.0,0.0,0.0,0.0,0.0,0.6367,0.6932,0.8507,0.965,0.9846,0.9961,1.0161,0.0,0.0,0.0,0.0,0.0,0.0,0.0,0.0,0.0,0.0,0.0,0.0,0.0,0.0,0.7926,0.7307,0.689,0.6662,0.6754,0.0,0.0,0.0,0.0,0.0,0.0,0.0,0.0,0.0,0.0,0.0,0.0,0.0,0.0,1.087,0.0,0.9956,0.0,0.0,0.0,0.0,0.0,0.0,0.0,0.0,0.8999,0.9409,0.9396,0.8987,0.8987,0.0,0.9097,0.8251,0.0,0.0,0.0,0.0,0.0,0.0,0.0,0.0,0.7963,0.8272,0.914,0.965,0.9785,0.9792,0.9744,0.9656,0.9483,0.9064,0.8316,0.7838,0.7164,0.0,0.0,0.0,0.0,0.0,0.0,0.0,0.0,0.0,0.0,0.0,0.0,0.0,0.0,0.0,0.0,0.0,0.0,0.0,0.0,0.0,0.0,0.0,0.5099,0.0,0.0,0.0,0.0,0.0,0.0,0.0,0.0,0.0,0.4511,0.4971,0.5397,0.5814,0.7189,0.8163,0.8217,0.0,0.0,0.0,0.0,0.0,0.0,0.0,0.8425,0.8337,0.8605,0.878,0.8665,0.8672,0.8629,0.8542,0.0,0.0,0.7669,0.715,0.6898,0.716,0.7285,0.7475,0.7892,0.8098,0.8213,0.0,0.0,0.0,0.0,0.0,0.0,0.0,0.0,1.1794,1.0605,0.0,0.9022,0.0,0.0,0.0,0.0,0.8075,0.8702,0.0,0.0,0.9376,0.9342,0.8832,0.8933,0.892,0.8777,0.8784,0.8396,0.7739,0.8056,0.0,0.0,0.0,0.0,0.0,0.0,0.8079,0.791,0.9015,0.968,0.9785,0.9792,0.9792,0.9808,0.9537,0.9138,0.8579,0.8763,0.8229,0.6819,0.7094,0.0,0.0,0.0,0.0,0.0,0.0,0.0,0.0,0.0,0.0,0.0,0.0,0.0,0.0,0.0,0.0,0.0,0.0,0.0,0.0,0.5307,0.0,0.0,0.0,0.0,0.0,0.0,0.0,0.0,0.0,0.0,0.4855,0.4586,0.4272,0.458,0.0,0.0,0.0,0.0,0.4913,0.4822,0.4626,0.4595,0.4635,0.5558,0.6329,0.6365,0.0,0.0,0.8388,0.8372,0.8237,0.8022,0.7878,0.7969,0.8296,0.7678,0.7372,0.7795,0.7829,0.7994,0.8508,0.87,0.8862,1.2867,0.0,0.0,0.0,0.0,1.1576,1.2309,1.3484,1.3242,1.2435,1.1275,1.1336,0.0,0.0,0.0,0.0,0.0,0.0,0.9734,0.9135,1.0266,1.0555,1.0141,1.0188,1.0157,1.0134,0.9785,0.9528,0.9291,0.9049,0.8029,0.6342,0.0,0.0,0.0,0.0,0.8084,0.8465,0.932,0.9751,0.9792,0.9792,0.9792,0.9792,0.9646,0.9408,0.9158,0.8981,0.8466,0.7546,0.7411,0.0,0.0,0.0,0.0,0.0,0.0,0.0,0.0,0.0,0.0,0.0,0.0,0.0,0.0,0.0,0.0,0.0,0.0,0.0,0.5416,0.5804,0.56,0.0,0.0,0.0,0.0,0.0,0.0,0.0,0.0,0.0,0.2886,0.2994,0.2983,0.0,0.0,0.4965,0.4791,0.4852,0.4975,0.5169,0.4962,0.0,0.5436,0.554,0.5845,0.6597,0.7266,0.7696,0.7637,0.7433,0.7239,0.7148,0.694,0.6807,0.6899,0.7183,0.7381,0.7552,0.7624,0.781,0.8172,0.8539,0.8901,1.2367,1.0785,1.1054,1.1678,1.2488,1.2478,1.3011,1.3839,1.3618,1.2812,1.1574,1.1686,1.1009,0.9769,0.9702,0.0,0.0,0.0,1.0147,0.9849,1.0667,1.0941,1.0704,1.0717,1.0717,1.0671,1.0414,1.0285,1.0247,0.9836,0.8872,0.7452,0.0,0.0,0.6987,0.7767,0.8404,0.8886,0.9503,0.9792,0.9792,0.9792,0.9792,0.9792,0.9741,0.9618,0.9476,0.9271,0.8912,0.8364,0.7889,0.7206,0.0,0.0,0.0,0.0,0.0,0.0,0.0,0.0,0.0,0.0,0.0,0.5105,0.468,0.0,0.0,0.0,0.5795,0.5762,0.5426,0.5729,0.0,0.0,0.0,0.0,0.0,0.0,0.0,0.3156,0.2025,0.1241,0.1203,0.1377,0.1447,0.1321,0.228,0.2945,0.284,0.0,0.304,0.3237,0.308,0.309,0.3497,0.3862,0.4486,0.5782,0.6094,0.6235,0.6308,0.614,0.6005,0.5995,0.5856,0.5706,0.5706,0.6071,0.654,0.687,0.7026,0.7248,0.7776,0.8116,0.8433,1.1728,1.1806,1.2838,1.3667,1.4364,1.4364,1.3916,1.3199,1.3207,1.216,1.0444,1.067,1.0679,1.0534,1.0373,0.0,0.9937,1.0069,1.036,1.0759,1.0779,1.0826,1.0792,1.0786,1.0779,1.0812,1.0772,1.0758,1.0738,1.0453,1.0086,0.9602,0.8818,0.8309,0.8089,0.8514,0.8906,0.922,0.9598,0.9808,0.9792,0.9792,0.9792,0.9792,0.9778,0.971,0.9612,0.9598,0.9456,0.9179,0.8486,0.7871,0.743,0.0,0.0,0.0,0.0,0.0,0.0,0.0,0.0,0.0,0.0,0.0,0.0,0.0,0.0,0.0,0.6955,0.0,0.5253,0.5284,0.0,0.0,0.0,0.3701,0.4278,0.3048,0.2179,0.2167,0.0,0.0,0.0,0.0,0.0,0.0,0.0,0.0,0.0,0.0,0.0,0.0,0.0,0.0,0.0512,0.1466,0.2759,0.4099,0.4446,0.4565,0.4696,0.4719,0.4701,0.4782,0.4719,0.4716,0.4719,0.4782,0.5006,0.5897,0.618,0.6525,0.7183,0.7476,0.7798,1.2683,1.2695,1.2972,1.2787,1.2322,1.2322,1.2329,1.2365,1.2365,1.1965,1.1307,1.1375,1.1241,1.104,1.0972,1.0935,1.0887,1.1124,1.1266,1.1416,1.164,1.1778,1.1771,1.1619,1.1565,1.1509,1.1219,1.1056,1.1077,1.0758,1.0353,0.9927,0.9757,0.9327,0.8737,0.9055,0.9313,0.9496,0.9605,0.9683,0.9785,0.9792,0.9792,0.9792,0.9713,0.9646,0.9612,0.9496,0.9376,0.9214,0.8879,0.8392,0.7733,0.6675,0.0,0.0,0.0,0.0,0.0,0.0,0.0,0.0,0.0,0.6484,0.5315,0.0,0.7063,0.0,0.701,0.6663,0.5596,0.5429,0.0,0.0,0.3826,0.3737,0.2117,0.2433,0.2317,0.1154,0.0612,0.028,0.0036,0.0,0.0,0.0,0.0,0.0,0.0,0.0,0.0,0.0,0.0,0.0,0.0417,0.119,0.1976,0.2393,0.3024,0.3475,0.3563,0.3573,0.3697,0.3991,0.383,0.3749,0.4035,0.4114,0.4181,0.449,0.5156,0.5831,0.6043,0.6637,0.7366,1.3003,1.3003,1.3003,1.271,1.221,1.2104,1.2169,1.225,1.2227,1.207,1.1816,1.1853,1.1757,1.1601,1.1601,1.1601,1.1608,1.1742,1.1816,1.1823,1.2023,1.2098,1.2098,1.1972,1.1932,1.1925,1.1717,1.156,1.145,1.1052,1.0717,1.0419,1.0123,0.9701,0.9107,0.9289,0.9451,0.9503,0.9578,0.9741,1.0012,0.9859,0.9724,0.9632,0.9551,0.9415,0.9218,0.9123,0.8981,0.8825,0.8621,0.8263,0.774,0.6987,0.6403,0.0,0.0,0.0,0.0,0.0,0.0,0.0,0.0,0.0,0.0,0.0,0.7274,0.6767,0.6864,0.6393,0.5002,0.4796,0.4051,0.2349,0.272,0.26,0.1405,0.1658,0.1559,0.0668,0.0393,0.0219,0.0,0.0,0.0,0.0,0.0,0.0,0.0,0.0,0.0,0.0,0.0,0.0155,0.0552,0.0954,0.132,0.1569,0.1974,0.2305,0.2331,0.2346,0.2439,0.266,0.2548,0.2431,0.2683,0.2725,0.2809,0.3141,0.3755,0.442,0.5007,0.5706,0.64,1.3057,1.3057,1.3057,1.3057,1.3043,1.2854,1.2705,1.2549,1.2433,1.2329,1.2186,1.2186,1.2173,1.2152,1.2159,1.2159,1.2159,1.2159,1.2159,1.2152,1.2159,1.2121,1.2077,1.2064,1.2013,1.1938,1.1904,1.1811,1.164,1.1247,1.0934,1.0706,1.0154,0.9651,0.926,0.929,0.9314,0.9359,0.9471,0.9741,1.0143,0.9866,0.9612,0.9396,0.93,0.9083,0.8703,0.8662,0.854,0.8315,0.8135,0.7959,0.7671,0.7204,0.6813,0.0,0.6146,0.0,0.0,0.0,0.0,0.0,0.0,0.0,0.0,0.7384,0.7196,0.6466,0.6532,0.5898,0.4176,0.3841,0.3175,0.1797,0.1296,0.1213,0.139,0.0888,0.0508,0.0515,0.0224,0.0,0.0,0.0,0.0,0.0,0.0,0.0,0.0,0.0,0.0,0.0,0.0,0.0,0.0407,0.0532,0.0656,0.1026,0.1235,0.1195,0.1291,0.126,0.1271,0.1325,0.1335,0.1301,0.1304,0.1346,0.1477,0.1951,0.2339,0.2963,0.4071,0.475,0.5237,1.3322,1.3322,1.3315,1.3315,1.3302,1.3152,1.3003,1.2914,1.2887,1.2745,1.2603,1.2603,1.2535,1.242,1.242,1.242,1.242,1.242,1.242,1.242,1.2413,1.2266,1.1952,1.1841,1.1561,1.1207,1.099,1.0872,1.0841,1.0668,1.0364,0.9851,0.9722,0.9409,0.8909,0.0,0.0,0.0,0.9111,0.9251,0.9323,0.9312,0.9281,0.9248,0.8873,0.0,0.8553,0.8418,0.8355,0.8301,0.8376,0.0,0.0,0.0,0.0,0.0,0.0,0.0,0.0,0.0,0.0,0.0,0.5763,0.5965,0.6238,0.6685,0.666,0.6,0.5762,0.5245,0.4172,0.332,0.2533,0.1761,0.1323,0.1123,0.1171,0.0779,0.0529,0.0541,0.0235,0.0,0.0,0.0,0.0,0.0,0.0,0.0,0.0,0.0,0.0,0.0,0.0,0.0,0.0084,0.0,0.0,0.03,0.0601,0.0773,0.0817,0.0818,0.095,0.1171,0.1042,0.0914,0.1218,0.1304,0.1263,0.1435,0.1523,0.1996,0.3407,0.4005,0.4439,1.3397,1.3397,1.3397,1.3397,0.0,1.3315,1.3247,1.3159,1.2942,1.2759,1.2578,1.2578,1.2576,1.2508,1.2583,1.2578,1.2617,1.2691,1.2606,1.2304,1.2304,1.2063,1.1611,1.1542,1.1241,1.0812,1.0644,1.0433,1.0156,0.9883,0.949,0.9062,0.877,0.8458,0.8167,0.7989,0.8267,0.8985,0.8916,0.8955,0.9167,0.9031,0.8868,0.8704,0.8426,0.0,0.0,0.0,0.0,0.0,0.0,0.0,0.0,0.0,0.0,0.6538,0.6153,0.5865,0.5647,0.5472,0.529,0.5182,0.4947,0.5079,0.5707,0.5819,0.5667,0.523,0.4855,0.4292,0.3522,0.2828,0.2109,0.1297,0.0977,0.0799,0.0577,0.039,0.0276,0.0279,0.0121,0.0,0.0,0.0,0.0,0.0,0.0,0.0,0.0,0.0,0.0,0.0,0.0,0.0,0.0,0.0,0.0,0.0,0.0217,0.0348,0.0348,0.0349,0.0438,0.0614,0.0484,0.0442,0.0574,0.0662,0.0707,0.0927,0.1016,0.1281,0.2296,0.2991,0.3512,1.3397,1.3397,1.3397,1.3397,1.3397,1.3397,1.3328,1.3178,0.0,0.0,0.0,1.2348,1.2335,1.2315,1.2396,1.2456,1.2462,1.2622,1.2417,1.1945,1.186,1.1568,1.1068,1.099,1.0719,1.0291,1.0192,0.9883,0.9387,0.8842,0.8457,0.8195,0.7717,0.7431,0.7315,0.7149,0.7557,0.8543,0.8469,0.8573,0.8937,0.8641,0.833,0.8058,0.7879,0.7609,0.7321,0.7231,0.708,0.6802,0.6553,0.6419,0.6441,0.6344,0.6231,0.6093,0.6149,0.5965,0.5482,0.5356,0.5036,0.4404,0.3982,0.4164,0.5115,0.4901,0.4594,0.4338,0.3808,0.3285,0.2693,0.2257,0.1633,0.0699,0.0511,0.0357,0.0,0.0,0.0,0.0,0.0,0.0,0.0,0.0,0.0,0.0,0.0,0.0,0.0,0.0,0.0,0.0,0.0,0.0,0.0,0.0,0.0,0.0,0.0,0.0,0.0,0.0,0.0,0.0,0.0,0.0,0.0,0.0,0.0,0.0494,0.0584,0.0675,0.1125,0.1837,0.2458,1.3397,1.3397,1.3397,1.3397,1.3397,1.3397,1.3049,1.2466,1.2558,1.2434,1.2148,1.1794,1.1568,1.1456,1.1475,1.1481,1.1487,1.1545,1.1506,1.1409,1.1014,1.0581,1.0175,0.9825,0.9441,0.9041,0.8611,0.8324,0.8159,0.7655,0.7292,0.7115,0.6975,0.6768,0.6582,0.6507,0.6585,0.6688,0.7287,0.7593,0.7666,0.7545,0.7466,0.7422,0.7126,0.6932,0.6878,0.6609,0.6427,0.637,0.6184,0.6005,0.5831,0.5895,0.5735,0.5219,0.5031,0.4804,0.4509,0.4093,0.3706,0.3493,0.3047,0.3153,0.393,0.3974,0.3735,0.3185,0.275,0.2386,0.1943,0.1297,0.0834,0.0604,0.0283,0.0,0.0,0.0,0.0,0.0,0.0,0.0,0.0,0.0,0.0,0.0,0.0,0.0,0.0,0.0,0.0,0.0,0.0,0.0,0.0,0.0,0.0,0.0,0.0,0.0,0.0,0.0,0.0,0.0,0.0,0.0,0.0,0.0,0.0,0.0,0.0,0.0,0.0,0.0731,0.1192,1.3397,1.3362,1.3155,1.3024,1.3024,1.2775,1.2453,1.1978,1.1595,1.1524,1.164,1.1471,1.1206,1.0964,1.1029,1.0941,1.0706,1.0814,1.0684,1.0353,0.9955,0.9453,0.8968,0.8579,0.815,0.7799,0.7527,0.725,0.6968,0.6474,0.621,0.6092,0.5796,0.5541,0.5372,0.5327,0.5291,0.5286,0.6263,0.6772,0.6736,0.6624,0.6558,0.6528,0.6312,0.6217,0.6188,0.5893,0.5718,0.5718,0.5258,0.4993,0.4951,0.4845,0.4636,0.4264,0.4168,0.3906,0.34,0.2852,0.2483,0.2418,0.2076,0.1987,0.235,0.2544,0.2483,0.2024,0.1782,0.1532,0.1199,0.0805,0.0527,0.0287,0.0082,0.0,0.0,0.0,0.0,0.0,0.0,0.0,0.0,0.0,0.0,0.0,0.0,0.0,0.0,0.0,0.0,0.0,0.0,0.0,0.0,0.0,0.0,0.0,0.0,0.0,0.0,0.0,0.0,0.0,0.0,0.0,0.0,0.0,0.0,0.0,0.0,0.0,0.0,0.0185,0.0558,1.3189,1.3072,1.2733,1.2567,1.2526,1.1986,1.17,1.1446,1.0535,1.0337,1.0622,1.0709,1.0525,1.0225,1.0274,1.0076,0.9766,0.977,0.9566,0.9134,0.8735,0.822,0.7681,0.7252,0.6861,0.6474,0.6395,0.6091,0.5733,0.5287,0.5055,0.4953,0.4601,0.4353,0.4307,0.4218,0.4188,0.4251,0.5096,0.5659,0.5771,0.5631,0.5522,0.555,0.5385,0.5314,0.5314,0.5001,0.484,0.4809,0.4276,0.3989,0.405,0.3769,0.3522,0.3304,0.3215,0.2886,0.2308,0.1839,0.1592,0.1578,0.1253,0.108,0.1064,0.121,0.1245,0.1107,0.108,0.093,0.0571,0.0451,0.0329,0.0,0.0,0.0,0.0,0.0,0.0,0.0,0.0,0.0,0.0,0.0,0.0,0.0,0.0,0.0,0.0,0.0,0.0,0.0,0.0,0.0,0.0,0.0,0.0,0.0,0.0,0.0,0.0,0.0,0.0,0.0,0.0,0.0,0.0,0.0,0.0,0.0,0.0,0.0,0.0,0.0,0.0,1.2567,1.2235,1.2152,1.2152,1.2027,1.1195,1.0796,1.0563,0.9722,0.9047,0.8759,0.8899,0.9017,0.8934,0.8632,0.8397,0.8241,0.7937,0.7746,0.7659,0.7264,0.6868,0.6427,0.6001,0.557,0.5179,0.4868,0.4706,0.4618,0.4108,0.3831,0.3788,0.3698,0.3652,0.3644,0.3605,0.3584,0.3584,0.3635,0.3951,0.4525,0.4495,0.4425,0.4459,0.43,0.4239,0.4267,0.3939,0.3737,0.3739,0.3401,0.3222,0.3229,0.2934,0.2611,0.2332,0.2011,0.1617,0.1288,0.1272,0.122,0.1208,0.086,0.0632,0.0647,0.0368,0.0327,0.057,0.0656,0.0495,0.0,0.0,0.0,0.0,0.0,0.0,0.0,0.0,0.0,0.0,0.0,0.0,0.0,0.0,0.0,0.0,0.0,0.0,0.0,0.0,0.0,0.0,0.0,0.0,0.0,0.0,0.0,0.0,0.0,0.0,0.0,0.0,0.0,0.0,0.0,0.0,0.0,0.0,0.0,0.0,0.0,0.0,0.0,0.0,0.0,1.2309,1.2069,1.1778,1.1362,1.0862,1.0195,0.9753,0.9413,0.8729,0.8192,0.7738,0.7541,0.7537,0.7717,0.7511,0.7135,0.6626,0.6431,0.6235,0.6001,0.5612,0.5338,0.5142,0.4709,0.4434,0.4317,0.4123,0.4044,0.3922,0.332,0.2712,0.2221,0.2181,0.2173,0.2158,0.2147,0.2142,0.2141,0.212,0.2243,0.2571,0.3315,0.3718,0.3716,0.3663,0.3516,0.3273,0.2963,0.2688,0.2414,0.2102,0.1936,0.1947,0.18,0.1677,0.1544,0.1207,0.0932,0.0797,0.0615,0.0468,0.0476,0.036,0.0242,0.0246,0.0083,0.0083,0.0208,0.0,0.0167,0.0,0.0,0.0,0.0,0.0,0.0,0.0,0.0,0.0,0.0,0.0,0.0,0.0,0.0,0.0,0.0,0.0,0.0,0.0,0.0,0.0,0.0,0.0,0.0,0.0,0.0,0.0,0.0,0.0,0.0,0.0,0.0,0.0,0.0,0.0,0.0,0.0,0.0,0.0,0.0,0.0,0.0,0.0,0.0,0.0,1.1668,1.133,1.1004,1.0404,0.9694,0.9235,0.8775,0.8303,0.7659,0.718,0.6756,0.6196,0.6053,0.6157,0.631,0.5994,0.5319,0.5148,0.4944,0.4669,0.4356,0.4123,0.3888,0.3611,0.3336,0.314,0.3101,0.3101,0.3062,0.2514,0.1837,0.128,0.124,0.1235,0.1224,0.122,0.118,0.1218,0.1176,0.1206,0.1341,0.2217,0.2749,0.2732,0.2729,0.2587,0.2304,0.2056,0.1808,0.1524,0.1245,0.1141,0.1141,0.1019,0.0923,0.0779,0.0565,0.0422,0.0428,0.0157,0.0,0.0,0.0,0.0,0.0,0.0,0.0,0.0,0.0,0.0,0.0,0.0,0.0,0.0,0.0,0.0,0.0,0.0,0.0,0.0,0.0,0.0,0.0,0.0,0.0,0.0,0.0,0.0,0.0,0.0,0.0,0.0,0.0,0.0,0.0,0.0,0.0,0.0,0.0,0.0,0.0,0.0,0.0,0.0,0.0,0.0,0.0,0.0,0.0,0.0,0.0,0.0,0.0,0.0,0.0,1.045,0.9667,0.9534,0.9235,0.8729,0.8311,0.7897,0.7352,0.655,0.5921,0.5452,0.4982,0.4461,0.4162,0.4841,0.491,0.4422,0.4066,0.385,0.3772,0.377,0.3376,0.2592,0.2553,0.22,0.1688,0.1649,0.157,0.1492,0.1413,0.1335,0.1255,0.1215,0.1255,0.1212,0.1161,0.1156,0.1116,0.1107,0.1136,0.1172,0.1245,0.1341,0.1351,0.1311,0.1384,0.1275,0.1239,0.1239,0.1202,0.114,0.1147,0.1149,0.0825,0.0455,0.0115,0.0,0.0,0.0,0.0,0.0,0.0,0.0,0.0,0.0,0.0,0.0,0.0,0.0,0.0,0.0,0.0,0.0,0.0,0.0,0.0,0.0,0.0,0.0,0.0,0.0,0.0,0.0,0.0,0.0,0.0,0.0,0.0,0.0,0.0,0.0,0.0,0.0,0.0,0.0,0.0,0.0,0.0,0.0,0.0,0.0,0.0,0.0,0.0,0.0,0.0,0.0,0.0,0.0,0.0,0.0,0.0,0.0,0.0,0.0,0.9807,0.904,0.8399,0.8022,0.7813,0.7097,0.6556,0.6056,0.5466,0.492,0.4539,0.4312,0.3804,0.3176,0.3374,0.3417,0.3229,0.3072,0.274,0.2262,0.2207,0.2042,0.1768,0.1728,0.161,0.1374,0.1296,0.1139,0.0864,0.0825,0.0707,0.051,0.0471,0.0471,0.0471,0.043,0.0429,0.0,0.0427,0.0425,0.0,0.0421,0.0418,0.0449,0.0934,0.1084,0.0822,0.0822,0.071,0.0448,0.0,0.0414,0.0414,0.0304,0.0154,0.0,0.0,0.0,0.0,0.0,0.0,0.0,0.0,0.0,0.0,0.0,0.0,0.0,0.0,0.0,0.0,0.0,0.0,0.0,0.0,0.0,0.0,0.0,0.0,0.0,0.0,0.0,0.0,0.0,0.0,0.0,0.0,0.0,0.0,0.0,0.0,0.0,0.0,0.0,0.0,0.0,0.0,0.0,0.0,0.0,0.0,0.0,0.0,0.0,0.0,0.0,0.0,0.0,0.0,0.0,0.0,0.0,0.0,0.0,0.0,0.855,0.794,0.726,0.6808,0.6472,0.5885,0.5382,0.492,0.45,0.3996,0.3616,0.3405,0.2943,0.231,0.2211,0.2072,0.2013,0.2106,0.1849,0.1326,0.1311,0.1224,0.1105,0.1062,0.1021,0.0903,0.0864,0.0707,0.0432,0.0393,0.0275,0.0,0.0,0.0,0.0,0.0,0.0,0.0,0.0,0.0,0.0,0.0,0.0,0.0,0.0536,0.0687,0.0417,0.0416,0.0303,0.0,0.0,0.0,0.0,0.0,0.0,0.0,0.0,0.0,0.0,0.0,0.0,0.0,0.0,0.0,0.0,0.0,0.0,0.0,0.0,0.0,0.0,0.0,0.0,0.0,0.0,0.0,0.0,0.0,0.0,0.0,0.0,0.0,0.0,0.0,0.0,0.0,0.0,0.0,0.0,0.0,0.0,0.0,0.0,0.0,0.0,0.0,0.0,0.0,0.0,0.0,0.0,0.0,0.0,0.0,0.0,0.0,0.0,0.0,0.0,0.0,0.0,0.0,0.0,0.0,0.0,0.6606,0.6197,0.6084,0.5594,0.492,0.471,0.4414,0.3952,0.3533,0.3071,0.265,0.2271,0.185,0.1388,0.1386,0.1134,0.092,0.1151,0.1263,0.1179,0.1206,0.1,0.0639,0.0594,0.0433,0.0,0.0,0.0,0.0,0.0,0.0,0.0,0.0,0.0,0.0,0.0,0.0,0.0,0.0,0.0,0.0,0.0,0.0,0.0,0.0,0.0,0.0,0.0,0.0,0.0,0.0,0.0,0.0,0.0,0.0,0.0,0.0,0.0,0.0,0.0,0.0,0.0,0.0,0.0,0.0,0.0,0.0,0.0,0.0,0.0,0.0,0.0,0.0,0.0,0.0,0.0,0.0,0.0,0.0,0.0,0.0,0.0,0.0,0.0,0.0,0.0,0.0,0.0,0.0,0.0,0.0,0.0,0.0,0.0,0.0,0.0,0.0,0.0,0.0,0.0,0.0,0.0,0.0,0.0,0.0,0.0,0.0,0.0,0.0,0.0,0.0,0.0,0.0,0.0,0.0,0.5412,0.5227,0.4869,0.4529,0.4164,0.3575,0.3239,0.3027,0.2313,0.1892,0.1724,0.1598,0.1262,0.0968,0.0884,0.0631,0.0252,0.0334,0.0,0.0,0.0,0.0,0.0,0.0,0.012,0.0,0.0,0.0,0.0,0.0,0.0,0.0,0.0,0.0,0.0,0.0,0.0,0.0,0.0,0.0,0.0,0.0,0.0,0.0,0.0,0.0,0.0,0.0,0.0,0.0,0.0,0.0,0.0,0.0,0.0,0.0,0.0,0.0,0.0,0.0,0.0,0.0,0.0,0.0,0.0,0.0,0.0,0.0,0.0,0.0,0.0,0.0,0.0,0.0,0.0,0.0,0.0,0.0,0.0,0.0,0.0,0.0,0.0,0.0,0.0,0.0,0.0,0.0,0.0,0.0,0.0,0.0,0.0,0.0,0.0,0.0,0.0,0.0,0.0,0.0,0.0,0.0,0.0,0.0,0.0,0.0,0.0,0.0,0.0,0.0,0.0,0.0,0.0,0.0,0.0,0.4431,0.4082,0.3737,0.3357,0.2945,0.2397,0.2187,0.2103,0.1556,0.122,0.1094,0.1052,0.0842,0.0505,0.0463,0.0295,0.0,0.0,0.0,0.0,0.0,0.0,0.0,0.0,0.0,0.0,0.0,0.0,0.0,0.0,0.0,0.0,0.0,0.0,0.0,0.0,0.0,0.0,0.0,0.0,0.0,0.0,0.0,0.0,0.0,0.0,0.0,0.0,0.0,0.0,0.0,0.0,0.0,0.0,0.0,0.0,0.0,0.0,0.0,0.0,0.0,0.0,0.0,0.0,0.0,0.0,0.0,0.0,0.0,0.0,0.0,0.0,0.0,0.0,0.0,0.0,0.0,0.0,0.0,0.0,0.0,0.0,0.0,0.0,0.0,0.0,0.0,0.0,0.0,0.0,0.0,0.0,0.0,0.0,0.0,0.0,0.0,0.0,0.0,0.0,0.0,0.0,0.0,0.0,0.0,0.0,0.0,0.0,0.0,0.0,0.0,0.0,0.0,0.0,0.0,0.3515,0.2739,0.2668,0.2172,0.1476,0.1347,0.1346,0.1304,0.1178,0.0968,0.0716,0.0674,0.0421,0.0,0.0,0.0,0.0,0.0,0.0,0.0,0.0,0.0,0.0,0.0,0.0,0.0,0.0,0.0,0.0,0.0,0.0,0.0,0.0,0.0,0.0,0.0,0.0,0.0,0.0,0.0,0.0,0.0,0.0,0.0,0.0,0.0,0.0,0.0,0.0,0.0,0.0,0.0,0.0,0.0,0.0,0.0,0.0,0.0,0.0,0.0,0.0,0.0,0.0,0.0,0.0,0.0,0.0,0.0,0.0,0.0,0.0,0.0,0.0,0.0,0.0,0.0,0.0,0.0,0.0,0.0,0.0,0.0,0.0,0.0,0.0,0.0,0.0,0.0,0.0,0.0,0.0,0.0,0.0,0.0,0.0,0.0,0.0,0.0,0.0,0.0,0.0,0.0,0.0,0.0,0.0,0.0,0.0,0.0,0.0,0.0,0.0,0.0,0.0,0.0,0.0,0.1999,0.1758,0.1739,0.1548,0.1276,0.1014,0.0842,0.08,0.0505,0.0,0.0,0.0168,0.0,0.0,0.0,0.0,0.0,0.0,0.0,0.0,0.0,0.0,0.0,0.0,0.0,0.0,0.0,0.0,0.0,0.0,0.0,0.0,0.0,0.0,0.0,0.0,0.0,0.0,0.0,0.0,0.0,0.0,0.0,0.0,0.0,0.0,0.0,0.0,0.0,0.0,0.0,0.0,0.0,0.0,0.0,0.0,0.0,0.0,0.0,0.0,0.0,0.0,0.0,0.0,0.0,0.0,0.0,0.0,0.0,0.0,0.0,0.0,0.0,0.0,0.0,0.0,0.0,0.0,0.0,0.0,0.0,0.0,0.0,0.0,0.0,0.0,0.0,0.0,0.0,0.0,0.0,0.0,0.0,0.0,0.0,0.0,0.0,0.0,0.0,0.0,0.0,0.0,0.0,0.0,0.0,0.0,0.0,0.0,0.0,0.0,0.0,0.0,0.0,0.0,0.0,0.1294,0.1104,0.1097,0.0998,0.0728,0.051,0.0423,0.0379,0.0,0.0,0.0,0.0,0.0,0.0,0.0,0.0,0.0,0.0,0.0,0.0,0.0,0.0,0.0,0.0,0.0,0.0,0.0,0.0,0.0,0.0,0.0,0.0,0.0,0.0,0.0,0.0,0.0,0.0,0.0,0.0,0.0,0.0,0.0,0.0,0.0,0.0,0.0,0.0,0.0,0.0,0.0,0.0,0.0,0.0,0.0,0.0,0.0,0.0,0.0,0.0,0.0,0.0,0.0,0.0,0.0,0.0,0.0,0.0,0.0,0.0,0.0,0.0,0.0,0.0,0.0,0.0,0.0,0.0,0.0,0.0,0.0,0.0,0.0,0.0,0.0,0.0,0.0,0.0,0.0,0.0,0.0,0.0,0.0,0.0,0.0,0.0,0.0,0.0,0.0,0.0,0.0,0.0,0.0,0.0,0.0,0.0,0.0,0.0,0.0,0.0,0.0,0.0,0.0,0.0,0.0,0.0982,0.062,0.0619,0.0393,0.0,0.0,0.0,0.0,0.0,0.0,0.0,0.0,0.0,0.0,0.0,0.0,0.0,0.0,0.0,0.0,0.0,0.0,0.0,0.0,0.0,0.0,0.0,0.0,0.0,0.0,0.0,0.0,0.0,0.0,0.0,0.0,0.0,0.0,0.0,0.0,0.0,0.0,0.0,0.0,0.0,0.0,0.0,0.0,0.0,0.0,0.0,0.0,0.0,0.0,0.0,0.0,0.0,0.0,0.0,0.0,0.0,0.0,0.0,0.0,0.0,0.0,0.0,0.0,0.0,0.0,0.0,0.0,0.0,0.0,0.0,0.0,0.0,0.0,0.0,0.0,0.0,0.0,0.0,0.0,0.0,0.0,0.0,0.0,0.0,0.0,0.0,0.0,0.0,0.0,0.0,0.0,0.0,0.0,0.0,0.0,0.0,0.0,0.0,0.0,0.0,0.0,0.0,0.0,0.0,0.0,0.0,0.0,0.0,0.0,0.0,0.0224,0.0179,0.0133,0.0088,0.0,0.0,0.0,0.0,0.0,0.0,0.0,0.0,0.0,0.0,0.0,0.0,0.0,0.0,0.0,0.0,0.0,0.0,0.0,0.0,0.0,0.0,0.0,0.0,0.0,0.0,0.0,0.0,0.0,0.0,0.0,0.0,0.0,0.0,0.0,0.0,0.0,0.0,0.0,0.0,0.0,0.0,0.0,0.0,0.0,0.0,0.0,0.0,0.0,0.0,0.0,0.0,0.0,0.0,0.0,0.0,0.0,0.0,0.0,0.0,0.0,0.0,0.0,0.0,0.0,0.0,0.0,0.0,0.0,0.0,0.0,0.0,0.0,0.0,0.0,0.0,0.0,0.0,0.0,0.0,0.0,0.0,0.0,0.0,0.0,0.0,0.0,0.0,0.0,0.0,0.0,0.0,0.0,0.0,0.0,0.0,0.0,0.0,0.0,0.0,0.0,0.0,0.0,0.0,0.0,0.0,0.0,0.0,0.0,0.0,0.0,0.0,0.0,0.0,0.0,0.0,0.0,0.0,0.0,0.0,0.0,0.0,0.0,0.0,0.0,0.0,0.0,0.0,0.0,0.0,0.0,0.0,0.0,0.0,0.0,0.0,0.0,0.0,0.0,0.0,0.0,0.0,0.0,0.0,0.0,0.0,0.0,0.0,0.0,0.0,0.0,0.0,0.0,0.0,0.0,0.0,0.0,0.0,0.0,0.0,0.0,0.0,0.0,0.0,0.0,0.0,0.0,0.0,0.0,0.0,0.0,0.0,0.0,0.0,0.0,0.0,0.0,0.0,0.0,0.0,0.0,0.0,0.0,0.0,0.0,0.0,0.0,0.0,0.0,0.0,0.0,0.0,0.0,0.0,0.0,0.0,0.0,0.0,0.0,0.0,0.0,0.0,0.0,0.0,0.0,0.0,0.0,0.0,0.0,0.0,0.0,0.0,0.0,0.0,0.0,0.0,0.0,0.0,0.0,0.0,0.0,0.0,0.0,0.0,0.0,0.0,0.0,0.0,0.0,0.0,0.0,0.0,0.0,0.0,0.0,0.0,0.0,0.0,0.0,0.0,0.0,0.0,0.0,0.0,0.0,0.0,0.0,0.0,0.0,0.0,0.0,0.0,0.0,0.0,0.0,0.0,0.0,0.0,0.0,0.0,0.0,0.0,0.0,0.0,0.0,0.0,0.0,0.0,0.0,0.0,0.0,0.0,0.0,0.0,0.0,0.0,0.0,0.0,0.0,0.0,0.0,0.0,0.0,0.0,0.0,0.0,0.0,0.0,0.0,0.0,0.0,0.0,0.0,0.0,0.0,0.0,0.0,0.0,0.0,0.0,0.0,0.0,0.0,0.0,0.0,0.0,0.0,0.0,0.0,0.0,0.0,0.0,0.0,0.0,0.0,0.0,0.0,0.0,0.0,0.0,0.0,0.0,0.0,0.0,0.0,0.0,0.0,0.0,0.0,0.0,0.0,0.0,0.0,0.0,0.0,0.0,0.0,0.0,0.0,0.0,0.0,0.0,0.0,0.0,0.0,0.0,0.0,0.0,0.0,0.0,0.0,0.0,0.0,0.0,0.0,0.0,0.0,0.0,0.0,0.0,0.0,0.0,0.0,0.0,0.0,0.0,0.0,0.0,0.0,0.0,0.0,0.0,0.0,0.0,0.0,0.0,0.0,0.0,0.0,0.0,0.0,0.0,0.0,0.0,0.0,0.0,0.0,0.0,0.0,0.0,0.0,0.0,0.0,0.0,0.0,0.0,0.0,0.0,0.0,0.0,0.0,0.0,0.0,0.0,0.0,0.0,0.0,0.0,0.0,0.0,0.0,0.0,0.0,0.0,0.0,0.0,0.0,0.0,0.0,0.0,0.0,0.0,0.0,0.0,0.0,0.0,0.0,0.0,0.0,0.0,0.0,0.0,0.0,0.0,0.0,0.0,0.0,0.0,0.0,0.0,0.0,0.0,0.0,0.0,0.0,0.0,0.0,0.0,0.0,0.0,0.0,0.0,0.0,0.0,0.0,0.0,0.0,0.0,0.0,0.0,0.0,0.0,0.0,0.0,0.0,0.0,0.0,0.0,0.0,0.0,0.0,0.0,0.0,0.0,0.0,0.0,0.0,0.0,0.0,0.0,0.0,0.0,0.0,0.0,0.0,0.0,0.0,0.0,0.0,0.0,0.0,0.0,0.0,0.0,0.0,0.0,0.0,0.0,0.0,0.0,0.0,0.0,0.0,0.0,0.0,0.0,0.0,0.0,0.0,0.0,0.0,0.0,0.0,0.0,0.0,0.0,0.0,0.0,0.0,0.0,0.0,0.0,0.0,0.0,0.0,0.0,0.0,0.0,0.0,0.0,0.0,0.0,0.0,0.0,0.0,0.0,0.0,0.0,0.0,0.0,0.0,0.0,0.0,0.0,0.0,0.0,0.0,0.0,0.0,0.0,0.0,0.0,0.0,0.0,0.0,0.0,0.0,0.0,0.0,0.0,0.0,0.0,0.0,0.0,0.0,0.0,0.0,0.0,0.0,0.0,0.0,0.0,0.0,0.0,0.0,0.0,0.0,0.0,0.0,0.0,0.0,0.0,0.0,0.0,0.0,0.0,0.0,0.0,0.0,0.0,0.0,0.0,0.0,0.0,0.0,0.0,0.0,0.0,0.0,0.0,0.0,0.0,0.0,0.0,0.0,0.0,0.0,0.0,0.0,0.0,0.0,0.0,0.0,0.0,0.0,0.0,0.0,0.0,0.0,0.0,0.0,0.0,0.0,0.0,0.0,0.0,0.0,0.0,0.0,0.0,0.0,0.0,0.0,0.0,0.0,0.0,0.0,0.0,0.0,0.0,0.0,0.0,0.0,0.0,0.0,0.0,0.0,0.0,0.0,0.0,0.0,0.0,0.0,0.0,0.0,0.0,0.0,0.0,0.0,0.0,0.0,0.0,0.0,0.0,0.0,0.0,0.0,0.0,0.0,0.0,0.0,0.0,0.0,0.0,0.0,0.0,0.0,0.0,0.0,0.0,0.0,0.0,0.0,0.0,0.0,0.0,0.0,0.0,0.0,0.0,0.0,0.0,0.0,0.0,0.0,0.0,0.0,0.0,0.0,0.0,0.0,0.0,0.0,0.0,0.0,0.0,0.0,0.0,0.0,0.0,0.0,0.0,0.0,0.0,0.0,0.0,0.0,0.0,0.0,0.0,0.0,0.0,0.0,0.0,0.0,0.0,0.0,0.0,0.0,0.0,0.0,0.0,0.0,0.0,0.0,0.0,0.0,0.0,0.0,0.0,0.0,0.0,0.0,0.0,0.0,0.0,0.0,0.0,0.0,0.0,0.0,0.0,0.0,0.0,0.0,0.0,0.0,0.0,0.0,0.0,0.0,0.0,0.0,0.0,0.0,0.0,0.0,0.0,0.0,0.0,0.0,0.0,0.0,0.0,0.0,0.0,0.0,0.0,0.0,0.0,0.0,0.0,0.0,0.0,0.0,0.0,0.0,0.0,0.0,0.0,0.0,0.0,0.0,0.0,0.0,0.0,0.0,0.0,0.0,0.0,0.0,0.0,0.0,0.0,0.0,0.0,0.0,0.0,0.0,0.0,0.0,0.0,0.0,0.0,0.0,0.0,0.0,0.0,0.0,0.0,0.0,0.0,0.0,0.0,0.0,0.0,0.0,0.0,0.0,0.0,0.0,0.0,0.0,0.0,0.0,0.0,0.0,0.0,0.0,0.0,0.0,0.0,0.0,0.0,0.0,0.0,0.0,0.0,0.0,0.0,0.0,0.0,0.0,0.0,0.0,0.0,0.0,0.0,0.0,0.0,0.0,0.0,0.0,0.0,0.0,0.0,0.0,0.0,0.0,0.0,0.0,0.0,0.0,0.0,0.0,0.0,0.0,0.0,0.0,0.0,0.0,0.0,0.0,0.0,0.0,0.0,0.0,0.0,0.0,0.0,0.0,0.0,0.0,0.0,0.0,0.0,0.0,0.0,0.0,0.0,0.0,0.0,0.0,0.0,0.0,0.0,0.0,0.0,0.0,0.0,0.0,0.0,0.0,0.0,0.0,0.0,0.0,0.0,0.0,0.0,0.0,0.0,0.0,0.0,0.0,0.0,0.0,0.0,0.0,0.0,0.0,0.0,0.0,0.0,0.0,0.0,0.0,0.0,0.0,0.0,0.0,0.0,0.0,0.0,0.0,0.0,0.0,0.0,0.0,0.0,0.0,0.0,0.0,0.0,0.0,0.0,0.0,0.0,0.0,0.0,0.0,0.0,0.0,0.0,0.0,0.0,0.0,0.0,0.0,0.0,0.0,0.0,0.0,0.0,0.0,0.0,0.0,0.0,0.0,0.0,0.0,0.0,0.0,0.0,0.0,0.0,0.0,0.0,0.0,0.0,0.0,0.0,0.0,0.0,0.0,0.0,0.0,0.0,0.0,0.0,0.0,0.0,0.0,0.0,0.0,0.0,0.0,0.0,0.0,0.0,0.0,0.0,0.0,0.0,0.0,0.0,0.0,0.0,0.0,0.0,0.0,0.0,0.0,0.0,0.0,0.0,0.0,0.0,0.0,0.0,0.0,0.0,0.0,0.0,0.0,0.0,0.0,0.0,0.0,0.0,0.0,0.0,0.0,0.0,0.0,0.0,0.0,0.0,0.0,0.0,0.0,0.0,0.0,0.0,0.0,0.0,0.0,0.0,0.0,0.0,0.0,0.0,0.0,0.0,0.0,0.0,0.0,0.0,0.0,0.0,0.0,0.0,0.0,0.0,0.0,0.0,0.0,0.0,0.0,0.0,0.0,0.0,0.0,0.0,0.0,0.0,0.0,0.0,0.0,0.0,0.0,0.0,0.0,0.0,0.0,0.0,0.0,0.0,0.0,0.0,0.0,0.0,0.0,0.0,0.0,0.0,0.0,0.0,0.0,0.0,0.0,0.0,0.0,0.0,0.0,0.0,0.0,0.0,0.0,0.0,0.0,0.0,0.0,0.0,0.0,0.0,0.0,0.0,0.0,0.0,0.0,0.0,0.0,0.0,0.0,0.0,0.0,0.0,0.0,0.0,0.0,0.0,0.0,0.0,0.0,0.0,0.0,0.0,0.0,0.0,0.0,0.0,0.0,0.0,0.0,0.0,0.0,0.0,0.0,0.0,0.0,0.0,0.0,0.0,0.0,0.0,0.0,0.0,0.0,0.0,0.0,0.0,0.0,0.0,0.0,0.0,0.0,0.0,0.0,0.0,0.0,0.0,0.0,0.0,0.0,0.0,0.0,0.0,0.0,0.0,0.0,0.0,0.0,0.0,0.0,0.0,0.0,0.0,0.0,0.0,0.0,0.0,0.0,0.0,0.0,0.0,0.0,0.0,0.0,0.0,0.0,0.0,0.0,0.0,0.0,0.0,0.0,0.0,0.0,0.0,0.0,0.0,0.0,0.0,0.0,0.0,0.0,0.0,0.0,0.0,0.0,0.0,0.0,0.0,0.0,0.0,0.0,0.0,0.0,0.0,0.0,0.0,0.0,0.0,0.0,0.0,0.0,0.0,0.0,0.0,0.0,0.0,0.0,0.0,0.0,0.0,0.0,0.0,0.0,0.0,0.0,0.0,0.0,0.0,0.0,0.0,0.0,0.0,0.0,0.0,0.0,0.0,0.0,0.0,0.0,0.0,0.0,0.0,0.0,0.0,0.0,0.0,0.0,0.0,0.0,0.0,0.0,0.0,0.0,0.0,0.0,0.0,0.0,0.0,0.0,0.0,0.0,0.0,0.0,0.0,0.0,0.0,0.0,0.0,0.0,0.0,0.0,0.0,0.0,0.0,0.0,0.0,0.0,0.0,0.0,0.0,0.0,0.0,0.0,0.0,0.0,0.0,0.0,0.0,0.0,0.0,0.0,0.0,0.0,0.0,0.0,0.0,0.0,0.0,0.0,0.0,0.0,0.0,0.0,0.0,0.0,0.0,0.0,0.0,0.0,0.0,0.0,0.0,0.0,0.0,0.0,0.0,0.0,0.0,0.0,0.0,0.0,0.0,0.0,0.0,0.0,0.0,0.0,0.0,0.0,0.0,0.0,0.0,0.0,0.0,0.0,0.0,0.0,0.0,0.0,0.0,0.0,0.0,0.0,0.0,0.0,0.0,0.0,0.0,0.0,0.0,0.0,0.0,0.0,0.0,0.0,0.0,0.0,0.0,0.0,0.0,0.0,0.0,0.0,0.0,0.0,0.0,0.0,0.0,0.0,0.0,0.0,0.0,0.0,0.0,0.0,0.0,0.0,0.0,0.0,0.0,0.0,0.0,0.0,0.0,0.0,0.0,0.0,0.0,0.0,0.0,0.0,0.0,0.0,0.0,0.0,0.0,0.0,0.0,0.0,0.0,0.0,0.0,0.0,0.0,0.0,0.0,0.0,0.0,0.0,0.0,0.0,0.0,0.0,0.0,0.0,0.0,0.0,0.0,0.0,0.0,0.0,0.0,0.0,0.0,0.0,0.0,0.0,0.0,0.0,0.0,0.0,0.0,0.0,0.0,0.0,0.0,0.0,0.0,0.0,0.0,0.0,0.0,0.0,0.0,0.0,0.0,0.0,0.0,0.0,0.0,0.0,0.0,0.0,0.0,0.0,0.0,0.0,0.0,0.0,0.0,0.0,0.0,0.0,0.0,0.0,0.0,0.0,0.0,0.0,0.0,0.0,0.0,0.0,0.0,0.0,0.0,0.0,0.0,0.0,0.0,0.0,0.0,0.0,0.0,0.0,0.0,0.0,0.0,0.0,0.0,0.0,0.0,0.0,0.0,0.0,0.0,0.0,0.0,0.0,0.0,0.0,0.0,0.0,0.0,0.0,0.0,0.0,0.0,0.0,0.0,0.0,0.0,0.0,0.0,0.0,0.0,0.0,0.0,0.0,0.0,0.0,0.0,0.0,0.0,0.0,0.0,0.0,0.0,0.0,0.0,0.0,0.0,0.0,0.0,0.0,0.0,0.0,0.0,0.0,0.0,0.0,0.0,0.0,0.0,0.0,0.0,0.0,0.0,0.0,0.0,0.0,0.0,0.0,0.0,0.0,0.0,0.0,0.0,0.0,0.0,0.0,0.0,0.0,0.0,0.0,0.0,0.0,0.0,0.0,0.0,0.0,0.0,0.0,0.0,0.0,0.0,0.0,0.0,0.0,0.0,0.0,0.0,0.0,0.0,0.0,0.0,0.0,0.0,0.0,0.0,0.0,0.0,0.0,0.0,0.0,0.0,0.0,0.0,0.0,0.0,0.0,0.0,0.0,0.0,0.0,0.0,0.0,0.0,0.0,0.0,0.0,0.0,0.0,0.0,0.0,0.0,0.0,0.0,0.0,0.0,0.0,0.0,0.0,0.0,0.0,0.0,0.0,0.0,0.0,0.0,0.0,0.0,0.0,0.0,0.0,0.0,0.0,0.0,0.0,0.0,0.0,0.0,0.0,0.0,0.0,0.0,0.0,0.0,0.0,0.0,0.0,0.0,0.0,0.0,0.0,0.0,0.0,0.0,0.0,0.0,0.0,0.0,0.0,0.0,0.0,0.0,0.0,0.0,0.0,0.0,0.0,0.0,0.0,0.0,0.0,0.0,0.0,0.0,0.0,0.0,0.0,0.0,0.0,0.0,0.0,0.0,0.0,0.0,0.0,0.0,0.0,0.0,0.0,0.0,0.0,0.0,0.0,0.0,0.0,0.0,0.0,0.0,0.0,0.0,0.0,0.0,0.0,0.0,0.0,0.0,0.0,0.0,0.0,0.0,0.0,0.0,0.0,0.0,0.0,0.0,0.0,0.0,0.0,0.0,0.0,0.0,0.0,0.0,0.0,0.0,0.0,0.0,0.0,0.0,0.0,0.0,0.0,0.0,0.0,0.0,0.0,0.0,0.0,0.0,0.0,0.0,0.0,0.0,0.0,0.0,0.0,0.0,0.0,0.0,0.0,0.0,0.0,0.0,0.0,0.0,0.0,0.0,0.0,0.0,0.0,0.0,0.0,0.0,0.0,0.0,0.0,0.0,0.0,0.0,0.0,0.0,0.0,0.0,0.0,0.0,0.0,0.0,0.0,0.0,0.0,0.0,0.0,0.0,0.0,0.0,0.0,0.0,0.0,0.0,0.0,0.0,0.0,0.0,0.0,0.0,0.0,0.0,0.0,0.0,0.0,0.0,0.0,0.0,0.0,0.0,0.0,0.0,0.0,0.0,0.0,0.0,0.0,0.0,0.0,0.0,0.0,0.0,0.0,0.0,0.0,0.0,0.0,0.0,0.0,0.0,0.0,0.0,0.0,0.0,0.0,0.0,0.0,0.0,0.0,0.0,0.0,0.0,0.0,0.0,0.0,0.0,0.0,0.0,0.0,0.0,0.0,0.0,0.0,0.0,0.0,0.0,0.0,0.0,0.0,0.0,0.0,0.0,0.0,0.0,0.0,0.0,0.0,0.0,0.0,0.0,0.0,0.0,0.0,0.0,0.0,0.0,0.0,0.0,0.0,0.0,0.0,0.0,0.0,0.0,0.0,0.0,0.0,0.0,0.0,0.0,0.0,0.0,0.0,0.0,0.0,0.0,0.0,0.0,0.0,0.0,0.0,0.0,0.0,0.0,0.0,0.0,0.0,0.0,0.0,0.0,0.0,0.0,0.0,0.0,0.0,0.0,0.0,0.0,0.0,0.0,0.0,0.0,0.0,0.0,0.0,0.0,0.0,0.0,0.0,0.0,0.0,0.0,0.0,0.0,0.0,0.0,0.0,0.0,0.0,0.0,0.0,0.0,0.0,0.0,0.0,0.0,0.0,0.0,0.0,0.0,0.0,0.0,0.0,0.0,0.0,0.0,0.0,0.0,0.0,0.0,0.0,0.0,0.0,0.0,0.0,0.0,0.0,0.0,0.0,0.0,0.0,0.0,0.0,0.0,0.0,0.0,0.0,0.0,0.0,0.0,0.0,0.0,0.0,0.0,0.0,0.0,0.0,0.0,0.0,0.0,0.0,0.0,0.0,0.0,0.0,0.0,0.0,0.0,0.0,0.0,0.0,0.0,0.0,0.0,0.0,0.0,0.0,0.0,0.0,0.0,0.0,0.0,0.0,0.0,0.0,0.0,0.0,0.0,0.0,0.0,0.0,0.0,0.0,0.0,0.0,0.0,0.0,0.0,0.0,0.0,0.0,0.0,0.0,0.0,0.0,0.0,0.0,0.0,0.0,0.0,0.0,0.0,0.0,0.0,0.0,0.0,0.0,0.0,0.0,0.0,0.0,0.0,0.0,0.0,0.0,0.0,0.0,0.0,0.0,0.0,0.0,0.0,0.0,0.0,0.0,0.0,0.0,0.0,0.0,0.0,0.0,0.0,0.0,0.0,0.0,0.0,0.0,0.0,0.0,0.0,0.0,0.0,0.0,0.0,0.0,0.0,0.0,0.0,0.0,0.0,0.0,0.0,0.0,0.0,0.0,0.0,0.0,0.0,0.0,0.0,0.0,0.0,0.0,0.0,0.0,0.0,0.0,0.0,0.0,0.0,0.0,0.0,0.0,0.0,0.0,0.0,0.0,0.0,0.0,0.0,0.0,0.0,0.0,0.0,0.0,0.0,0.0,0.0,0.0,0.0,0.0,0.0,0.0,0.0,0.0,0.0,0.0,0.0,0.0,0.0,0.0,0.0,0.0,0.0,0.0,0.0,0.0,0.0,0.0,0.0,0.0,0.0,0.0,0.0,0.0,0.0,0.0,0.0,0.0,0.0,0.0,0.0,0.0,0.0,0.0,0.0,0.0,0.0,0.0,0.0,0.0,0.0,0.0,0.0,0.0,0.0,0.0,0.0,0.0,0.0,0.0,0.0,0.0,0.0,0.0,0.0,0.0,0.0,0.0,0.0,0.0,0.0,0.0,0.0,0.0,0.0,0.0,0.0,0.0,0.0,0.0,0.0,0.0,0.0,0.0,0.0,0.0,0.0,0.0,0.0,0.0,0.0,0.0,0.0,0.0,0.0,0.0,0.0,0.0,0.0,0.0,0.0,0.0,0.0,0.0,0.0,0.0,0.0,0.0,0.0,0.0,0.0,0.0,0.0,0.0,0.0,0.0,0.0,0.0,0.0,0.0,0.0,0.0,0.0,0.0,0.0,0.0,0.0,0.0,0.0,0.0,0.0,0.0,0.0,0.0,0.0,0.0,0.0,0.0,0.0,0.0,0.0,0.0,0.0,0.0,0.0,0.0,0.0,0.0,0.0,0.0,0.0,0.0,0.0,0.0,0.0,0.0,0.0,0.0,0.0,0.0,0.0,0.0,0.0,0.0,0.0,0.0,0.0,0.0,0.0,0.0,0.0,0.0,0.0,0.0,0.0,0.0,0.0,0.0,0.0,0.0,0.0,0.0,0.0,0.0,0.0,0.0,0.0,0.0,0.0,0.0,0.0,0.0,0.0,0.0,0.0,0.0,0.0,0.0,0.0,0.0,0.0,0.0,0.0,0.0,0.0,0.0,0.0,0.0,0.0,0.0,0.0,0.0,0.0,0.0,0.0,0.0,0.0,0.0,0.0,0.0,0.0,0.0,0.0,0.0,0.0,0.0,0.0,0.0,0.0,0.0,0.0,0.0,0.0,0.0,0.0,0.0,0.0,0.0,0.0,0.0,0.0,0.0,0.0,0.0,0.0,0.0,0.0,0.0,0.0,0.0,0.0,0.0,0.0,0.0,0.0,0.0,0.0,0.0,0.0,0.0,0.0,0.0,0.0,0.0,0.0,0.0,0.0,0.0,0.0,0.0,0.0,0.0,0.0,0.0,0.0,0.0,0.0,0.0,0.0,0.0,0.0,0.0,0.0,0.0,0.0,0.0,0.0,0.0,0.0,0.0,0.0,0.0,0.0,0.0,0.0,0.0,0.0,0.0,0.0,0.0,0.0,0.0,0.0,0.0,0.0,0.0,0.0,0.0,0.0,0.0,0.0,0.0,0.0,0.0,0.0,0.0,0.0,0.0,0.0,0.0,0.0,0.0,0.0,0.0,0.0,0.0,0.0,0.0,0.0,0.0,0.0,0.0,0.0,0.0,0.0,0.0,0.0,0.0,0.0,0.0,0.0,0.0,0.0,0.0,0.0,0.0,0.0,0.0,0.0,0.0,0.0,0.0,0.0,0.0,0.0,0.0,0.0,0.0,0.0,0.0,0.0,0.0,0.0,0.0,0.0,0.0,0.0,0.0,0.0,0.0,0.0,0.0,0.0,0.0,0.0,0.0,0.0,0.0,0.0,0.0,0.0,0.0,0.0,0.0,0.0,0.0,0.0,0.0,0.0,0.0,0.0,0.0,0.0,0.0,0.0,0.0,0.0,0.0,0.0,0.0,0.0,0.0,0.0,0.0,0.0,0.0,0.0,0.0,0.0,0.0,0.0,0.0,0.0,0.0,0.0,0.0,0.0,0.0,0.0,0.0,0.0,0.0,0.0,0.0,0.0,0.0,0.0,0.0,0.0,0.0,0.0,0.0,0.0,0.0,0.0,0.0,0.0,0.0,0.0,0.0,0.0,0.0,0.0,0.0,0.0,0.0,0.0,0.0,0.0,0.0,0.0,0.0,0.0,0.0,0.0,0.0,0.0,0.0,0.0,0.0,0.0,0.0,0.0,0.0,0.0,0.0,0.0,0.0,0.0,0.0,0.0,0.0,0.0,0.0,0.0,0.0,0.0,0.0,0.0,0.0,0.0,0.0,0.0,0.0]},{"header":{"parameterUnit":"m.s-1","parameterCategory":1,"la1":31.0,"la2":29.5877,"lo1":-88.7671,"lo2":-86.6584,"dy":0.0162,"dx":0.0185,"nx":115,"ny":88,"refTime":"2024-06-18T06:00:00:Z","depth":0,"parameterNumber":3,"parameterNumberName":"V-component_of_WINDS"},"data":[0.0,0.0,0.0,0.0,0.0,0.0,0.0,0.0,0.0,0.0,0.0,0.0,0.0,0.0,0.0,0.0,0.0,0.0,0.0,0.0,0.0,0.0,0.0,0.0,0.0,0.0,0.0,0.0,0.0,0.0,0.0,0.0,0.0,0.0,0.0,0.0,0.0,0.0,0.0,0.0,0.0,0.0,0.0,0.0,0.0,0.0,0.0,0.0,0.0,0.0,0.0,0.0,0.0,0.0,0.0,0.0,0.0,0.0,0.0,0.0,0.0,0.0,0.0,0.0,0.0,0.0,0.0,0.0,0.0,0.0,0.0,0.0,0.0,0.0,0.0,0.0,0.0,0.0,0.0,0.0,0.0,0.0,0.0,0.0,0.0,0.0,0.0,0.0,0.0,0.0,0.0,0.0,0.0,0.0,0.0,0.0,0.0,0.0,0.0,0.0,0.0,0.0,0.0,0.0,0.0,0.0,0.0,0.0,0.0,0.0,0.0,0.0,0.0,0.0,0.0,0.0,0.0,0.0,0.0,0.0,0.0,0.0,0.0,0.0,0.0,0.0,0.0,0.0,0.0,0.0,0.0,0.0,0.0,0.0,0.0,0.0,0.0,0.0,0.0,0.0,0.0,0.0,0.0,0.0,0.0,0.0,0.0,0.0,0.0,0.0,0.0,0.0,0.0,0.0,0.0,0.0,0.0,0.0,0.0,0.0,0.0,0.0,0.0,0.0,0.0,0.0,0.0,0.0,0.0,0.0,0.0,0.0,0.0,0.0,0.0,0.0,0.0,0.0,0.0,0.0,0.0,0.0,0.0,0.0,0.0,0.0,0.0,0.0,0.0,0.0,0.0,0.0,0.0,0.0,0.0,0.0,0.0,0.0,0.0,0.0,0.0,0.0,0.0,0.0,0.0,0.0,0.0,0.0,0.0,0.0,0.0,0.0,0.0,0.0,0.0,0.0,0.0,0.0,0.0,0.0,0.0,0.0,0.0,0.0,0.0,0.0,0.0,0.0,0.0,0.0,0.0,0.0,0.0,0.0,0.0,0.0,0.0,0.0,0.0,0.0,0.0,0.0,0.0,0.0,0.0,0.0,0.0,0.0,0.0,0.0,0.0,0.0,0.0,0.0,0.0,0.0,0.0,0.0,0.0,0.0,0.0,0.0,0.0,0.0,0.0,0.0,0.0,0.0,0.0,0.0,0.0,0.0,0.0,0.0,0.0,0.0,0.0,0.0,0.0,0.0,0.0,0.0,0.0,0.0,0.0,0.0,0.0,0.0,0.0,0.0,0.0,0.0,0.0,0.0,0.0,0.0,0.0,0.0,0.0,0.0,0.0,0.0,0.0,0.0,0.0,0.0,0.0,0.0,0.0,0.0,0.0,0.0,0.0,0.0,0.0,0.0,0.0,0.0,0.0,0.0,0.0,0.0,0.0,0.0,0.0,0.0,0.0,0.0,0.0,0.0,0.0,0.0,0.0,0.0,0.0,0.0,0.0,0.0,0.0,0.0,0.0,0.0,0.0,0.0,0.0,0.0,0.0,0.0,0.0,0.0,0.0,0.0,0.0,0.0,0.0,0.0,0.0,0.0,0.0,0.0,0.0,0.0,0.0,0.0,0.0,0.0,0.0,0.0,0.0,0.0,0.0,0.0,0.0,0.0,0.0,0.0,0.0,0.0,0.0,0.0,0.0,0.0,0.0,0.0,0.0,0.0,0.0,0.0,0.0,0.0,0.0,0.0,0.0,0.0,0.0,0.0,0.0,0.0,0.0,0.0,0.0,0.0,0.0,0.0,0.0,0.0,0.0,0.0,0.0,0.0,0.0,0.0,0.0,0.0,0.0,0.0,0.0,0.0,0.0,0.0,0.0,0.0,0.0,0.0,0.0,0.0,0.0,0.0,0.0,0.0,0.0,0.0,0.0,0.0,0.0,0.0,0.0,0.0,0.0,0.0,0.0,0.0,0.0,0.0,0.0,0.0,0.0,0.0,0.0,0.0,0.0,0.0,0.0,0.0,0.0,0.0,0.0,0.0,0.0,0.0,0.0,0.0,0.0,0.0,0.0,0.0,0.0,0.0,0.0,0.0,0.0,0.0,0.0,0.0,0.0,0.0,0.0,0.0,0.0,0.0,0.0,0.0,0.0,0.0,0.0,0.0,0.0,0.0,0.0,0.0,0.0,0.0,0.0,0.0,0.0,0.0,0.0,0.0,0.0,0.0,0.0,0.0,0.0,0.0,0.0,0.0,0.0,0.0,0.0,0.0,0.0,0.0,0.0,0.0,0.0,0.0,0.0,0.0,0.0,0.0,0.0,0.0,0.0,0.0,0.0,0.0,0.0,0.0,0.0,0.0,0.0,0.0,0.0,0.0,0.0,0.0,0.0,0.0,0.0,0.0,0.0,0.0,0.0,0.0,0.0,0.0,0.0,0.0,0.0,0.0,0.0,0.0,0.0,0.0,0.0,0.0,0.0,0.0,0.0,0.0,0.0,0.0,0.0,0.0,0.0,0.0,0.0,0.0,0.0,0.0,0.0,0.0,0.0,0.0,0.0,0.0,0.0,0.0,0.0,0.0,0.0,0.0,0.0,0.0,0.0,0.0,0.0,0.0,0.0,0.0,0.0,0.0,0.0,0.0,0.0,0.0,0.0,0.0,0.0,0.0,0.0,0.0,0.0,0.0,0.0,0.0,0.0,0.0,0.0,0.0,0.0,0.0,0.0,0.0,0.0,0.0,0.0,0.0,0.0,0.0,0.0,0.0,0.0,0.0,0.0,0.0,0.0,0.0,0.0,0.0,0.0,0.0,0.0,0.0,0.0,0.0,0.0,0.0,0.0,0.0,0.0,0.0,0.0,0.0,0.0,0.0,0.0,0.0,0.0,0.0,0.0,0.0,0.0,0.0,0.0,0.0,0.0,0.0,0.0,0.0,0.0,0.0,0.0,0.0,0.0,0.0,0.0,0.0,0.0,0.0,0.0,0.0,0.0,0.0,0.0,0.0,0.0,0.0,0.0,0.0,0.0,0.0,0.0,0.0,0.0,0.0,0.0,0.0,0.0,0.0,0.0,0.0,0.0,0.0,0.0,0.0,0.0,0.0,0.0,0.0,0.0,0.0,0.0,0.0,0.0,0.0,0.0,0.0,0.0,0.0,0.0,0.0,0.0,0.0,0.0,0.0,0.0,0.0,0.0,0.0,0.0,0.0,0.0,0.0,0.0,0.0,0.0,0.0,0.0,0.0,0.0,0.0,0.0,0.0,0.0,0.0,0.0,0.0,0.0,0.0,0.0,0.0,0.0,0.0,0.0,0.0,0.0,0.0,0.0,0.0,0.0,0.0,0.0,0.0,0.0,0.0,0.0,0.0,0.0,0.0,0.0,0.0,0.0,0.0,0.0,0.0,0.0,0.0,0.0,0.0,0.0,0.0,0.0,0.0,0.0,0.0,0.0,0.0,0.0,0.0,0.0,0.0,0.0,0.0,0.0,0.0,0.0,0.0,0.0,0.0,0.0,0.0,0.0,0.0,0.0,0.0,0.0,0.0,0.0,0.0,0.0,0.0,0.0,0.0,0.0,0.0,0.0,0.0,0.0,0.0,0.0,0.0,0.0,0.0,0.0,0.0,0.0,0.0,0.0,0.0,0.0,0.0,0.0,0.0,0.0,0.0,0.0,0.0,0.0,0.0,0.0,0.0,0.0,0.0,0.0,0.0,0.0,0.0,0.0,0.0,0.0,0.0,0.0,0.0,0.0,0.0,0.0,0.0,0.0,0.0,0.0,0.0,0.0,0.0,0.0,0.0,0.0,0.0,0.0,0.0,0.0,0.0,0.0,0.0,0.0,0.0,0.0,0.0,0.0,0.0,0.0,0.0,0.0,0.0,0.0,0.0,0.0,0.0,0.0,0.0,0.0,0.0,0.0,0.0,0.0,0.0,0.0,0.0,0.0,0.0,0.0,0.0,0.0,0.0,0.0,0.0,0.0,0.0,0.0,0.0,0.0,0.0,0.0,0.0,0.0,0.0,0.0,0.0,0.0,0.0,0.0,0.0,0.0,0.0,0.0,0.0,0.0,0.0,0.0,0.0,0.0,0.0,0.0,0.0,0.0,0.0,0.0,0.0,0.0,0.0,0.0,0.0,0.0,0.0,0.0,0.0,0.0,0.0,0.0,0.0,0.0,0.0,0.0,0.0,0.0,0.0,0.0,0.0,0.0,0.0,0.0,0.0,0.0,0.0,0.0,0.0,0.0,0.0,0.0,0.0,0.0,0.0,0.0,0.0,0.0,0.0,1.9282,0.0,0.0,0.0,0.0,0.0,0.0,0.0,0.0,0.0,0.0,0.0,0.0,0.0,0.0,0.0,0.0,0.0,0.0,0.0,0.0,0.0,0.0,0.0,0.0,0.0,0.0,0.0,0.0,0.0,0.0,0.0,0.0,0.0,0.0,0.0,0.0,0.0,0.0,0.0,0.0,0.0,0.0,0.0,0.0,0.0,0.0,0.0,0.0,0.0,0.0,0.0,0.0,0.0,0.0,0.0,0.0,0.0,0.0,0.0,0.0,0.0,0.0,0.0,0.0,0.0,0.0,0.0,0.0,0.0,0.0,0.0,0.0,0.0,0.0,0.0,0.0,0.0,0.0,0.0,0.0,0.0,0.0,0.0,0.0,0.0,0.0,0.0,0.0,0.0,0.0,0.0,0.0,0.0,0.0,0.0,0.0,0.0,0.0,0.0,0.0,0.0,0.0,0.0,0.0,0.0,0.0,0.0,0.0,0.0,0.0,1.9282,1.9282,1.9282,1.9282,1.9315,0.0,0.0,0.0,0.0,0.0,0.0,0.0,0.0,0.0,0.0,0.0,0.0,0.0,0.0,0.0,0.0,0.0,0.0,0.0,0.0,0.0,0.0,0.0,0.0,0.0,0.0,0.0,0.0,0.0,0.0,0.0,0.0,0.0,0.0,0.0,0.0,0.0,0.0,0.0,0.0,0.0,0.0,0.0,0.0,0.0,0.0,0.0,0.0,0.0,0.0,0.0,0.0,0.0,0.0,0.0,0.0,0.0,0.0,0.0,0.0,0.0,0.0,0.0,0.0,0.0,0.0,0.0,0.0,0.0,0.0,0.0,0.0,0.0,0.0,0.0,0.0,0.0,0.0,0.0,0.0,0.0,0.0,0.0,0.0,0.0,0.0,0.0,0.0,0.0,0.0,0.0,0.0,0.0,0.0,0.0,0.0,0.0,0.0,0.0,0.0,0.0,0.0,0.0,0.0,0.0,0.0,0.0,0.0,0.0,0.0,0.0,0.0,1.9866,1.9866,1.9866,0.0,0.0,0.0,0.0,0.0,0.0,0.0,0.0,0.0,0.0,0.0,0.0,0.0,0.0,0.0,0.0,0.0,0.0,0.0,0.0,0.0,0.0,0.0,0.0,0.0,0.0,0.0,0.0,0.0,0.0,0.0,0.0,0.0,0.0,0.0,0.0,0.0,0.0,0.0,0.0,0.0,0.0,0.0,0.0,0.0,0.0,0.0,0.0,0.0,0.0,0.0,0.0,0.0,0.0,0.0,0.0,0.0,0.0,0.0,0.0,0.0,0.0,0.0,0.0,0.0,0.0,0.0,0.0,0.0,0.0,0.0,0.0,0.0,0.0,0.0,0.0,0.0,0.0,0.0,0.0,0.0,0.0,0.0,0.0,0.0,0.0,0.0,0.0,0.0,0.0,0.0,0.0,0.0,0.0,0.0,0.0,0.0,0.0,0.0,0.0,0.0,0.0,0.0,0.0,0.0,0.0,0.0,0.0,0.0,0.0,2.0017,2.1519,2.1555,0.0,2.1629,0.0,0.0,0.0,0.0,0.0,0.0,0.0,0.0,0.0,0.0,0.0,0.0,0.0,0.0,0.0,0.0,0.0,0.0,0.0,0.0,0.0,0.0,0.0,0.0,0.0,0.0,0.0,0.0,0.0,0.0,0.0,0.0,0.0,0.0,0.0,0.0,0.0,0.0,0.0,0.0,0.0,0.0,0.0,0.0,0.0,0.0,0.0,0.0,0.0,0.0,0.0,0.0,0.0,0.0,0.0,0.0,0.0,0.0,0.0,0.0,0.0,0.0,0.0,0.0,0.0,0.0,0.0,0.0,0.0,0.0,0.0,0.0,0.0,0.0,0.0,0.0,0.0,0.0,0.0,0.0,0.0,0.0,0.0,0.0,0.0,0.0,0.0,0.0,0.0,0.0,0.0,0.0,0.0,0.0,0.0,0.0,0.0,0.0,0.0,0.0,0.0,0.0,0.0,0.0,0.0,0.0,0.0,0.0,0.0,0.0,2.1115,2.1776,2.1776,2.1776,0.0,0.0,0.0,0.0,0.0,0.0,0.0,0.0,0.0,0.0,0.0,0.0,0.0,0.0,0.0,0.0,0.0,0.0,0.0,0.0,0.0,0.0,0.0,0.0,0.0,0.0,0.0,0.0,0.0,0.0,0.0,0.0,0.0,0.0,0.0,0.0,0.0,0.0,0.0,0.0,0.0,0.0,0.0,0.0,0.0,0.0,0.0,0.0,0.0,0.0,0.0,0.0,0.0,0.0,0.0,0.0,0.0,0.0,0.0,0.0,0.0,0.0,0.0,0.0,0.0,0.0,0.0,0.0,0.0,0.0,0.0,0.0,0.0,0.0,0.0,0.0,0.0,0.0,0.0,0.0,0.0,0.0,0.0,0.0,0.0,0.0,0.0,0.0,0.0,0.0,0.0,0.0,0.0,0.0,0.0,0.0,0.0,0.0,0.0,0.0,0.0,0.0,0.0,0.0,0.0,0.0,0.0,0.0,0.0,0.0,2.1413,0.0,2.2441,2.2437,2.2143,2.1445,0.0,0.0,0.0,0.0,0.0,0.0,0.0,0.0,0.0,0.0,0.0,0.0,0.0,0.0,0.0,0.0,0.0,0.0,0.0,0.0,0.0,0.0,0.0,0.0,0.0,0.0,0.0,0.0,0.0,0.0,0.0,0.0,0.0,0.0,0.0,0.0,0.0,0.0,0.0,0.0,0.0,0.0,0.0,0.0,0.0,0.0,0.0,0.0,0.0,0.0,0.0,0.0,0.0,0.0,0.0,0.0,0.0,0.0,0.0,0.0,0.0,0.0,0.0,0.0,0.0,0.0,0.0,0.0,0.0,0.0,0.0,0.0,0.0,0.0,0.0,0.0,0.0,0.0,0.0,0.0,0.0,0.0,0.0,0.0,0.0,0.0,0.0,0.0,0.0,0.0,0.0,0.0,0.0,0.0,0.0,0.0,0.0,0.0,0.0,0.0,0.0,0.0,0.0,0.0,0.0,0.0,0.0,0.0,0.0,2.251,2.2547,2.4048,2.408,2.2974,0.0,0.0,0.0,0.0,0.0,0.0,0.0,0.0,0.0,0.0,0.0,0.0,0.0,0.0,0.0,0.0,0.0,0.0,0.0,0.0,0.0,0.0,0.0,0.0,0.0,0.0,0.0,0.0,0.0,0.0,0.0,0.0,0.0,0.0,0.0,0.0,0.0,0.0,0.0,0.0,0.0,0.0,0.0,0.0,0.0,0.0,0.0,0.0,0.0,0.0,0.0,0.0,0.0,0.0,0.0,0.0,0.0,0.0,0.0,0.0,0.0,0.0,0.0,0.0,0.0,0.0,0.0,0.0,0.0,0.0,0.0,0.0,0.0,0.0,0.0,0.0,0.0,0.0,0.0,0.0,0.0,0.0,0.0,0.0,0.0,0.0,0.0,0.0,0.0,0.0,0.0,0.0,0.0,0.0,0.0,0.0,0.0,0.0,0.0,0.0,0.0,0.0,0.0,0.0,0.0,0.0,0.0,0.0,0.0,2.0295,2.1262,2.3061,2.5543,2.3754,2.2464,0.0,0.0,0.0,0.0,0.0,0.0,0.0,0.0,0.0,0.0,0.0,0.0,0.0,0.0,0.0,0.0,0.0,0.0,0.0,0.0,0.0,0.0,0.0,0.0,0.0,0.0,0.0,0.0,0.0,0.0,0.0,0.0,0.0,0.0,0.0,0.0,0.0,0.0,0.0,0.0,0.0,0.0,0.0,0.0,0.0,0.0,0.0,0.0,0.0,0.0,0.0,0.0,0.0,0.0,0.0,0.0,0.0,0.0,0.0,0.0,0.0,0.0,0.0,0.0,0.0,0.0,0.0,0.0,0.0,0.0,0.0,0.0,0.0,0.0,0.0,0.0,0.0,0.0,0.0,0.0,0.0,0.0,0.0,0.0,0.0,0.0,0.0,0.0,0.0,0.0,0.0,0.0,0.0,0.0,0.0,0.0,0.0,0.0,0.0,0.0,0.0,0.0,0.0,0.0,0.0,0.0,0.0,0.0,0.0,2.0115,0.0,2.4153,0.0,2.3717,2.2212,0.0,0.0,0.0,0.0,0.0,0.0,0.0,0.0,0.0,0.0,0.0,0.0,0.0,0.0,0.0,0.0,0.0,0.0,0.0,0.0,0.0,0.0,0.0,0.0,0.0,0.0,0.0,0.0,0.0,0.0,0.0,0.0,0.0,0.0,0.0,0.0,0.0,0.0,0.0,0.0,0.0,0.0,0.0,0.0,0.0,0.0,0.0,0.0,0.0,0.0,0.0,0.0,0.0,0.0,0.0,0.0,0.0,0.0,0.0,0.0,0.0,0.0,0.0,0.0,0.0,0.0,0.0,0.0,0.0,0.0,0.0,0.0,0.0,0.0,0.0,0.0,0.0,0.0,0.0,0.0,0.0,0.0,0.0,0.0,0.0,0.0,0.0,0.0,0.0,0.0,0.0,0.0,0.0,0.0,0.0,0.0,0.0,0.0,0.0,0.0,0.0,0.0,0.0,0.0,0.0,0.0,0.0,0.0,2.0886,2.3969,2.5543,2.5658,2.4337,2.4121,2.2244,0.0,0.0,0.0,0.0,0.0,0.0,0.0,0.0,0.0,0.0,0.0,0.0,0.0,0.0,0.0,0.0,0.0,0.0,0.0,0.0,0.0,0.0,0.0,0.0,0.0,0.0,0.0,0.0,0.0,0.0,0.0,0.0,0.0,0.0,0.0,0.0,0.0,0.0,0.0,0.0,0.0,0.0,0.0,0.0,0.0,0.0,0.0,0.0,0.0,0.0,0.0,0.0,0.0,0.0,0.0,0.0,0.0,0.0,0.0,0.0,0.0,0.0,0.0,0.0,0.0,0.0,0.0,0.0,0.0,0.0,0.0,0.0,0.0,0.0,0.0,0.0,0.0,0.0,0.0,0.0,0.0,0.0,0.0,0.0,0.0,0.0,0.0,0.0,0.0,0.0,0.0,0.0,0.0,0.0,0.0,0.0,0.0,0.0,0.0,0.0,0.0,0.0,0.0,0.0,0.0,0.0,0.0,0.0,0.0,2.2542,2.3566,2.4914,2.6471,2.3414,2.1877,0.0,0.0,0.0,0.0,0.0,0.0,0.0,0.0,0.0,0.0,0.0,0.0,0.0,0.0,0.0,0.0,0.0,0.0,0.0,0.0,0.0,0.0,0.0,0.0,0.0,0.0,0.0,0.0,0.0,0.0,0.0,0.0,0.0,0.0,0.0,0.0,0.0,0.0,0.0,0.0,0.0,0.0,0.0,0.0,0.0,0.0,0.0,0.0,0.0,0.0,0.0,0.0,0.0,0.0,0.0,0.0,0.0,0.0,0.0,0.0,0.0,0.0,0.0,0.0,0.0,0.0,0.0,0.0,0.0,0.0,0.0,0.0,0.0,0.0,0.0,0.0,0.0,0.0,0.0,0.0,0.0,0.0,0.0,0.0,0.0,0.0,0.0,0.0,0.0,0.0,0.0,0.0,0.0,0.0,0.0,0.0,0.0,0.0,0.0,0.0,0.0,0.0,0.0,0.0,0.0,0.0,0.0,0.0,0.0,2.5002,2.602,2.7268,2.8668,2.5433,2.3524,2.3277,0.0,0.0,0.0,0.0,0.0,0.0,0.0,0.0,0.0,0.0,0.0,0.0,0.0,0.0,0.0,0.0,0.0,0.0,0.0,0.0,0.0,0.0,0.0,0.0,0.0,0.0,0.0,0.0,0.0,0.0,0.0,0.0,0.0,0.0,0.0,0.0,0.0,0.0,0.0,0.0,0.0,0.0,0.0,0.0,0.0,0.0,0.0,0.0,0.0,0.0,0.0,0.0,0.0,0.0,0.0,0.0,0.0,0.0,0.0,0.0,0.0,0.0,0.0,0.0,0.0,0.0,0.0,0.0,0.0,0.0,0.0,0.0,0.0,0.0,0.0,0.0,0.0,0.0,0.0,0.0,0.0,0.0,0.0,0.0,0.0,0.0,0.0,0.0,0.0,0.0,0.0,0.0,0.0,0.0,0.0,0.0,0.0,0.0,0.0,0.0,0.0,0.0,0.0,0.0,0.0,0.0,0.0,0.0,3.0424,3.2222,3.2375,3.0791,2.9574,2.6906,0.0,0.0,0.0,0.0,0.0,0.0,0.0,0.0,0.0,0.0,0.0,0.0,0.0,0.0,0.0,0.0,0.0,0.0,0.0,0.0,0.0,0.0,0.0,0.0,0.0,0.0,0.0,0.0,0.0,0.0,0.0,0.0,0.0,0.0,0.0,0.0,0.0,0.0,0.0,0.0,0.0,0.0,0.0,0.0,0.0,0.0,0.0,0.0,0.0,0.0,0.0,0.0,0.0,0.0,0.0,0.0,0.0,0.0,0.0,0.0,0.0,0.0,0.0,0.0,0.0,0.0,0.0,0.0,0.0,0.0,0.0,0.0,0.0,0.0,0.0,0.0,0.0,0.0,0.0,0.0,0.0,0.0,0.0,0.0,0.0,0.0,0.0,0.0,0.0,0.0,0.0,0.0,0.0,0.0,0.0,0.0,0.0,0.0,0.0,0.0,0.0,0.0,0.0,0.0,0.0,0.0,0.0,0.0,0.0,3.375,3.769,3.8726,3.645,3.1635,2.8693,0.0,0.0,0.0,0.0,0.0,0.0,0.0,0.0,0.0,0.0,0.0,0.0,0.0,0.0,0.0,0.0,0.0,0.0,0.0,0.0,0.0,0.0,0.0,0.0,0.0,0.0,0.0,0.0,0.0,0.0,0.0,0.0,0.0,0.0,0.0,0.0,0.0,0.0,0.0,0.0,0.0,0.0,0.0,0.0,0.0,0.0,0.0,0.0,0.0,0.0,0.0,0.0,0.0,0.0,0.0,0.0,0.0,0.0,0.0,0.0,0.0,0.0,0.0,0.0,0.0,0.0,0.0,0.0,0.0,0.0,0.0,0.0,0.0,0.0,0.0,0.0,0.0,0.0,0.0,0.0,0.0,0.0,0.0,0.0,0.0,0.0,0.0,0.0,0.0,0.0,0.0,0.0,0.0,0.0,0.0,0.0,0.0,0.0,0.0,0.0,0.0,0.0,0.0,0.0,0.0,0.0,0.0,0.0,3.3286,3.6545,4.1617,4.3636,4.2278,3.6296,3.2002,0.0,0.0,0.0,0.0,0.0,0.0,0.0,0.0,0.0,0.0,0.0,0.0,0.0,0.0,0.0,0.0,0.0,0.0,0.0,0.0,0.0,0.0,0.0,0.0,0.0,0.0,0.0,0.0,0.0,0.0,0.0,0.0,0.0,0.0,0.0,0.0,0.0,0.0,0.0,0.0,0.0,0.0,0.0,0.0,0.0,0.0,0.0,0.0,0.0,0.0,0.0,0.0,0.0,0.0,0.0,0.0,0.0,0.0,0.0,0.0,0.0,0.0,0.0,0.0,0.0,0.0,0.0,0.0,0.0,0.0,0.0,0.0,0.0,0.0,0.0,0.0,0.0,0.0,0.0,0.0,0.0,0.0,0.0,0.0,0.0,0.0,0.0,0.0,0.0,0.0,0.0,0.0,0.0,0.0,0.0,0.0,0.0,0.0,0.0,0.0,0.0,0.0,0.0,0.0,0.0,0.0,0.0,0.0,3.5716,3.8938,4.437,4.7186,4.6929,4.1654,3.5855,0.0,0.0,0.0,0.0,0.0,0.0,0.0,0.0,0.0,0.0,0.0,0.0,0.0,0.0,0.0,0.0,0.0,0.0,0.0,0.0,0.0,0.0,0.0,0.0,0.0,0.0,0.0,0.0,0.0,0.0,0.0,0.0,0.0,0.0,0.0,0.0,0.0,0.0,0.0,0.0,0.0,0.0,0.0,0.0,0.0,0.0,0.0,0.0,0.0,0.0,0.0,0.0,0.0,0.0,0.0,0.0,0.0,0.0,0.0,0.0,0.0,0.0,0.0,0.0,0.0,0.0,0.0,0.0,0.0,0.0,0.0,0.0,0.0,0.0,0.0,0.0,0.0,0.0,0.0,0.0,0.0,0.0,0.0,0.0,0.0,0.0,0.0,0.0,0.0,0.0,0.0,0.0,0.0,0.0,0.0,0.0,0.0,0.0,0.0,0.0,0.0,0.0,0.0,0.0,0.0,0.0,0.0,0.0,3.7962,4.0581,4.5471,4.7736,4.7076,4.1654,3.7132,0.0,0.0,0.0,0.0,0.0,0.0,0.0,0.0,0.0,0.0,0.0,0.0,0.0,0.0,0.0,0.0,0.0,0.0,0.0,0.0,0.0,0.0,0.0,0.0,0.0,0.0,0.0,0.0,0.0,0.0,0.0,0.0,0.0,0.0,0.0,0.0,0.0,0.0,0.0,0.0,0.0,0.0,0.0,0.0,0.0,0.0,0.0,0.0,2.8326,0.0,0.0,0.0,0.0,0.0,0.0,0.0,0.0,0.0,0.0,0.0,0.0,0.0,0.0,0.0,0.0,0.0,0.0,0.0,0.0,0.0,0.0,0.0,0.0,0.0,0.0,0.0,0.0,0.0,0.0,0.0,0.0,0.0,0.0,0.0,0.0,0.0,0.0,0.0,0.0,0.0,0.0,0.0,0.0,0.0,0.0,0.0,0.0,0.0,0.0,0.0,0.0,0.0,0.0,0.0,0.0,0.0,0.0,0.0,3.9753,4.3314,4.6985,4.871,4.8122,4.3534,3.9085,0.0,0.0,0.0,0.0,0.0,0.0,0.0,0.0,0.0,0.0,0.0,0.0,0.0,0.0,0.0,0.0,0.0,0.0,0.0,0.0,0.0,0.0,0.0,0.0,0.0,0.0,0.0,0.0,0.0,0.0,0.0,0.0,0.0,0.0,0.0,0.0,0.0,0.0,0.0,0.0,0.0,0.0,0.0,0.0,0.0,0.0,0.0,0.0,0.0,0.0,0.0,0.0,0.0,0.0,0.0,0.0,0.0,0.0,0.0,0.0,0.0,0.0,0.0,0.0,0.0,0.0,0.0,0.0,0.0,0.0,0.0,0.0,0.0,0.0,0.0,0.0,0.0,0.0,0.0,0.0,0.0,0.0,0.0,0.0,0.0,0.0,0.0,0.0,0.0,0.0,0.0,0.0,0.0,0.0,0.0,0.0,0.0,0.0,0.0,0.0,0.0,0.0,0.0,0.0,0.0,0.0,0.0,3.6193,4.1222,4.6287,4.8499,4.9601,4.9537,4.5635,4.0855,3.5408,0.0,0.0,0.0,0.0,0.0,0.0,0.0,0.0,0.0,0.0,0.0,0.0,0.0,0.0,0.0,0.0,0.0,0.0,0.0,0.0,0.0,0.0,0.0,0.0,0.0,0.0,0.0,0.0,0.0,0.0,0.0,0.0,0.0,0.0,0.0,0.0,0.0,0.0,2.5351,2.7513,0.0,0.0,0.0,0.0,0.0,0.0,0.0,0.0,3.0129,0.0,0.0,0.0,0.0,0.0,0.0,0.0,0.0,0.0,0.0,0.0,0.0,0.0,0.0,0.0,0.0,0.0,0.0,0.0,0.0,0.0,0.0,0.0,0.0,0.0,0.0,0.0,0.0,0.0,0.0,0.0,0.0,0.0,0.0,0.0,0.0,0.0,0.0,0.0,0.0,0.0,0.0,0.0,0.0,0.0,0.0,0.0,0.0,0.0,0.0,0.0,0.0,0.0,0.0,0.0,0.0,3.617,3.7881,4.2029,4.8793,4.939,4.9601,4.95,4.5635,4.1156,3.6266,0.0,0.0,0.0,0.0,0.0,0.0,0.0,0.0,0.0,0.0,0.0,0.0,0.0,0.0,0.0,0.0,0.0,0.0,0.0,0.0,0.0,0.0,0.0,0.0,0.0,0.0,0.0,0.0,0.0,0.0,0.0,0.0,0.0,0.0,0.0,0.0,0.0,0.0,0.0,3.199,3.3138,0.0,0.0,0.0,0.0,0.0,0.0,0.0,0.0,3.2359,0.0,0.0,0.0,0.0,0.0,0.0,0.0,0.0,0.0,0.0,0.0,0.0,0.0,0.0,0.0,0.0,0.0,0.0,0.0,0.0,0.0,0.0,0.0,0.0,0.0,0.0,0.0,0.0,0.0,0.0,0.0,0.0,0.0,0.0,0.0,0.0,0.0,0.0,0.0,0.0,0.0,0.0,0.0,0.0,0.0,0.0,0.0,0.0,0.0,0.0,0.0,0.0,0.0,0.0,0.0,3.6567,4.012,4.4745,5.0592,5.0445,5.0225,5.0105,4.5039,4.0377,0.0,0.0,0.0,0.0,0.0,0.0,0.0,0.0,0.0,0.0,0.0,0.0,0.0,0.0,0.0,0.0,0.0,0.0,0.0,0.0,0.0,0.0,0.0,0.0,0.0,0.0,0.0,0.0,0.0,0.0,0.0,0.0,0.0,0.0,0.0,0.0,0.0,0.0,0.0,0.0,3.4151,3.5751,3.8115,0.0,0.0,0.0,0.0,0.0,0.0,3.4486,3.3587,0.0,0.0,0.0,0.0,0.0,0.0,0.0,0.0,0.0,0.0,0.0,0.0,0.0,0.0,0.0,0.0,0.0,0.0,0.0,0.0,0.0,0.0,0.0,0.0,0.0,0.0,0.0,0.0,0.0,0.0,0.0,0.0,0.0,0.0,0.0,0.0,0.0,0.0,0.0,0.0,0.0,0.0,0.0,0.0,0.0,0.0,0.0,0.0,0.0,0.0,0.0,0.0,0.0,0.0,0.0,3.667,4.1846,4.6985,5.1903,5.1279,5.0802,5.0692,4.4507,3.9599,0.0,0.0,0.0,0.0,0.0,0.0,0.0,0.0,0.0,0.0,0.0,0.0,0.0,0.0,0.0,0.0,0.0,0.0,0.0,0.0,0.0,0.0,0.0,0.0,0.0,0.0,0.0,0.0,0.0,0.0,0.0,0.0,0.0,0.0,0.0,0.0,0.0,0.0,0.0,0.0,0.0,3.8742,4.1667,3.9611,0.0,0.0,0.0,0.0,3.7388,3.7084,0.0,0.0,0.0,0.0,0.0,0.0,0.0,0.0,0.0,0.0,0.0,0.0,0.0,0.0,0.0,0.0,0.0,0.0,0.0,0.0,0.0,0.0,0.0,0.0,0.0,0.0,0.0,0.0,0.0,0.0,0.0,0.0,0.0,0.0,0.0,0.0,0.0,0.0,0.0,0.0,0.0,0.0,0.0,0.0,0.0,0.0,0.0,0.0,0.0,0.0,0.0,0.0,0.0,0.0,0.0,0.0,3.8212,4.1846,4.6691,5.2627,5.1563,5.0802,5.0729,4.4516,3.9599,0.0,0.0,0.0,0.0,0.0,0.0,0.0,0.0,0.0,0.0,0.0,0.0,0.0,0.0,0.0,0.0,0.0,0.0,0.0,0.0,0.0,0.0,0.0,0.0,0.0,0.0,0.0,0.0,0.0,0.0,0.0,0.0,0.0,0.0,0.0,0.0,0.0,0.0,0.0,0.0,0.0,4.3068,4.328,4.2097,4.1097,0.0,0.0,4.2624,4.4205,4.497,0.0,0.0,0.0,0.0,0.0,0.0,0.0,0.0,0.0,0.0,0.0,0.0,0.0,0.0,0.0,0.0,0.0,0.0,0.0,0.0,0.0,0.0,0.0,0.0,0.0,0.0,0.0,0.0,0.0,0.0,0.0,0.0,0.0,0.0,0.0,0.0,0.0,0.0,0.0,0.0,0.0,0.0,0.0,0.0,0.0,0.0,0.0,0.0,0.0,0.0,0.0,0.0,0.0,0.0,0.0,3.2412,3.8608,4.413,4.893,5.2994,5.2087,5.1279,5.0802,4.3636,3.8644,0.0,0.0,0.0,0.0,0.0,0.0,0.0,0.0,0.0,0.0,0.0,0.0,0.0,0.0,0.0,0.0,0.0,0.0,0.0,0.0,0.0,0.0,0.0,0.0,0.0,0.0,0.0,0.0,0.0,0.0,0.0,0.0,0.0,0.0,0.0,0.0,0.0,0.0,0.0,0.0,0.0,0.0,4.5908,4.5285,0.0,0.0,0.0,4.5009,4.4282,0.0,0.0,0.0,0.0,0.0,0.0,0.0,0.0,0.0,0.0,0.0,0.0,0.0,0.0,0.0,0.0,0.0,0.0,0.0,0.0,0.0,0.0,0.0,0.0,0.0,0.0,0.0,0.0,0.0,0.0,0.0,0.0,0.0,0.0,0.0,0.0,0.0,0.0,0.0,0.0,0.0,0.0,0.0,0.0,0.0,0.0,0.0,0.0,0.0,0.0,0.0,0.0,0.0,0.0,0.0,0.0,0.0,3.8855,4.61,5.1055,5.3366,5.2515,5.1711,5.0971,4.4013,0.0,0.0,0.0,0.0,0.0,0.0,0.0,0.0,0.0,0.0,0.0,0.0,0.0,0.0,0.0,0.0,0.0,0.0,0.0,0.0,0.0,0.0,0.0,0.0,0.0,0.0,0.0,1.8882,0.0,0.0,0.0,0.0,0.0,0.0,0.0,0.0,0.0,0.0,0.0,0.0,0.0,0.0,4.5753,4.7996,4.8053,4.8125,0.0,0.0,4.7432,4.6163,4.8394,4.8086,0.0,0.0,0.0,0.0,0.0,0.0,0.0,0.0,0.0,0.0,0.0,0.0,0.0,0.0,0.0,0.0,0.0,0.0,0.0,0.0,0.0,0.0,0.0,0.0,0.0,0.0,0.0,0.0,0.0,0.0,0.0,0.0,0.0,0.0,0.0,0.0,0.0,0.0,0.0,0.0,0.0,0.0,0.0,0.0,0.0,0.0,0.0,0.0,0.0,0.0,0.0,0.0,0.0,0.0,0.0,3.935,4.6821,5.1917,5.4245,5.2821,5.1955,5.1842,4.691,4.1845,0.0,0.0,0.0,0.0,0.0,0.0,0.0,0.0,0.0,0.0,0.0,0.0,0.0,0.0,0.0,0.0,0.0,0.0,0.0,0.0,0.0,0.0,0.0,0.0,0.0,0.0,0.0,0.0,0.0,0.0,0.0,0.0,0.0,0.0,0.0,0.0,0.0,0.0,0.0,0.0,0.0,4.781,4.881,4.9785,5.1553,0.0,0.0,5.1207,5.3356,5.517,5.3592,4.5321,0.0,0.0,0.0,0.0,0.0,0.0,0.0,0.0,0.0,0.0,0.0,0.0,0.0,0.0,0.0,0.0,0.0,0.0,0.0,0.0,0.0,0.0,0.0,0.0,0.0,0.0,0.0,0.0,0.0,0.0,0.0,0.0,0.0,0.0,0.0,0.0,0.0,0.0,0.0,0.0,0.0,0.0,0.0,0.0,0.0,0.0,0.0,0.0,0.0,0.0,0.0,0.0,0.0,3.5224,3.9314,4.7375,5.2492,5.4371,5.388,5.305,5.2039,4.771,4.2737,0.0,0.0,0.0,0.0,0.0,0.0,0.0,0.0,0.0,0.0,0.0,0.0,0.0,0.0,0.0,0.0,0.0,0.0,0.0,0.0,0.0,0.0,0.0,0.0,0.0,0.0,0.0,0.0,2.6139,2.6586,2.6201,0.0,0.0,0.0,0.0,0.0,0.0,0.0,0.0,0.0,0.0,4.9813,5.2713,5.3507,0.0,0.0,5.5511,5.4972,5.3851,5.5126,5.3862,4.7009,4.5009,0.0,0.0,0.0,0.0,0.0,0.0,0.0,0.0,0.0,0.0,0.0,0.0,0.0,0.0,0.0,0.0,0.0,0.0,0.0,0.0,0.0,0.0,0.0,0.0,0.0,0.0,0.0,0.0,0.0,0.0,0.0,0.0,0.0,0.0,0.0,0.0,0.0,0.0,0.0,0.0,0.0,0.0,0.0,0.0,0.0,0.0,0.0,0.0,0.0,0.0,0.0,0.0,3.5889,3.9569,4.7997,5.3183,5.481,5.462,5.3936,5.2696,4.9207,4.4747,0.0,0.0,0.0,0.0,0.0,0.0,0.0,0.0,0.0,0.0,0.0,0.0,0.0,0.0,0.0,0.0,0.0,0.0,0.0,0.0,0.0,0.0,0.0,0.0,0.0,0.0,0.0,0.0,2.7158,2.7266,2.6778,0.0,0.0,0.0,0.0,0.0,0.0,0.0,0.0,0.0,0.0,5.1977,5.4939,5.5362,5.5516,5.6016,5.6242,5.5742,5.3851,5.478,5.3862,4.8509,0.0,0.0,0.0,0.0,0.0,0.0,0.0,0.0,0.0,0.0,0.0,0.0,0.0,0.0,0.0,0.0,0.0,0.0,0.0,0.0,0.0,0.0,0.0,0.0,0.0,0.0,0.0,1.8126,0.0,0.0,1.7015,0.0,0.0,0.0,0.0,0.0,0.0,0.0,0.0,0.0,0.0,0.0,0.0,0.0,0.0,0.0,0.0,0.0,0.0,0.0,0.0,0.0,0.0,3.747,4.0242,4.8749,5.3979,5.5599,5.4912,5.4479,5.4363,5.1957,4.8471,4.3829,0.0,0.0,0.0,0.0,0.0,0.0,0.0,0.0,0.0,0.0,0.0,0.0,0.0,0.0,0.0,0.0,0.0,0.0,0.0,0.0,0.0,0.0,0.0,0.0,0.0,0.0,2.5313,2.6767,2.7879,0.0,0.0,0.0,0.0,0.0,0.0,0.0,0.0,0.0,0.0,5.0668,5.4395,5.4549,5.4549,5.5247,5.6791,5.4318,5.2736,5.4318,5.5164,5.4285,0.0,0.0,0.0,0.0,0.0,0.0,0.0,0.0,0.0,0.0,0.0,0.0,0.0,0.0,0.0,0.0,0.0,0.0,0.0,0.0,0.0,0.0,0.0,0.0,0.0,0.0,0.0,2.6773,2.5391,0.0,0.0,0.0,0.0,0.0,0.0,0.0,0.0,0.0,0.0,0.0,3.8307,3.9548,0.0,0.0,0.0,0.0,0.0,0.0,0.0,0.0,0.0,0.0,0.0,0.0,3.8503,4.1302,4.9634,5.4587,5.567,5.5434,5.5054,5.4516,5.3126,4.9231,4.2569,0.0,0.0,0.0,0.0,0.0,0.0,0.0,0.0,0.0,0.0,0.0,0.0,0.0,0.0,0.0,0.0,0.0,0.0,0.0,0.0,0.0,0.0,0.0,0.0,0.0,2.7502,0.0,0.0,0.0,0.0,0.0,0.0,0.0,0.0,0.0,0.0,0.0,4.5849,4.9517,5.2598,5.49,5.6016,5.667,5.7627,0.0,0.0,0.0,0.0,0.0,0.0,0.0,0.0,0.0,0.0,0.0,0.0,0.0,0.0,5.004,4.3809,4.2017,4.1619,4.2197,0.0,0.0,0.0,0.0,0.0,0.0,0.0,0.0,0.0,0.0,0.0,0.0,0.0,0.0,3.3146,0.0,3.2125,0.0,0.0,0.0,0.0,0.0,0.0,0.0,0.0,4.1016,4.3566,4.4088,4.505,4.505,0.0,4.2913,3.882,0.0,0.0,0.0,0.0,0.0,0.0,0.0,0.0,3.9917,4.2682,5.0389,5.49,5.567,5.5708,5.5439,5.4939,5.378,5.0283,4.4066,3.9742,3.5814,0.0,0.0,0.0,0.0,0.0,0.0,0.0,0.0,0.0,0.0,0.0,0.0,0.0,0.0,0.0,0.0,0.0,0.0,0.0,0.0,0.0,0.0,0.0,2.9008,0.0,0.0,0.0,0.0,0.0,0.0,0.0,0.0,0.0,4.2692,4.6807,5.1083,5.4456,5.6025,5.6957,5.7107,0.0,0.0,0.0,0.0,0.0,0.0,0.0,5.5339,5.476,5.4718,5.5046,5.5895,5.6961,5.752,5.6941,0.0,0.0,4.929,4.7314,4.7036,4.7905,4.8203,4.8569,4.9136,4.9894,5.0429,0.0,0.0,0.0,0.0,0.0,0.0,0.0,0.0,3.9895,3.8731,0.0,3.8408,0.0,0.0,0.0,0.0,3.4377,4.0721,0.0,0.0,5.0742,5.2813,4.9928,5.0664,5.0587,4.9779,4.9659,4.7466,4.3338,3.8103,0.0,0.0,0.0,0.0,0.0,0.0,4.1685,4.4577,5.1125,5.4895,5.567,5.5708,5.5708,5.5626,5.4087,5.1659,4.8346,4.5611,4.2333,3.8304,3.3196,0.0,0.0,0.0,0.0,0.0,0.0,0.0,0.0,0.0,0.0,0.0,0.0,0.0,0.0,0.0,0.0,0.0,0.0,0.0,0.0,3.0003,0.0,0.0,0.0,0.0,0.0,0.0,0.0,0.0,0.0,0.0,4.9018,5.2417,5.6244,5.9433,0.0,0.0,0.0,0.0,5.9132,5.6905,5.6412,5.6415,5.6529,5.7074,5.7504,5.754,0.0,0.0,6.1383,6.1266,6.0772,5.9185,6.0347,6.0532,5.7885,5.529,5.3952,5.4602,5.4203,5.4297,5.5682,5.6522,5.7366,4.7709,0.0,0.0,0.0,0.0,4.2919,4.6039,5.1102,5.052,4.863,4.5861,4.6328,0.0,0.0,0.0,0.0,0.0,0.0,4.6292,4.9436,5.3278,5.5927,5.7511,5.778,5.7786,5.7473,5.567,5.4208,5.2861,4.8976,4.2291,3.3109,0.0,0.0,0.0,0.0,4.4705,4.8009,5.2856,5.5478,5.5708,5.5708,5.5708,5.5708,5.4703,5.3356,5.1774,4.9822,4.6819,4.2658,3.9864,0.0,0.0,0.0,0.0,0.0,0.0,0.0,0.0,0.0,0.0,0.0,0.0,0.0,0.0,0.0,0.0,0.0,0.0,0.0,3.0817,3.2811,3.4034,0.0,0.0,0.0,0.0,0.0,0.0,0.0,0.0,0.0,5.7467,5.7735,5.8127,0.0,0.0,5.8971,5.7653,5.8392,5.948,6.06,5.9716,0.0,6.1361,6.0293,5.9675,6.0854,6.2863,6.4425,6.4825,6.4927,6.4792,6.4291,6.4668,6.476,6.3965,6.126,5.9308,5.9365,5.9671,6.008,6.0545,6.1243,6.1863,5.7873,5.2138,4.8242,4.8295,5.0913,5.0995,5.368,5.8061,5.7551,5.5774,5.3169,5.3824,5.0573,4.4527,4.4221,0.0,0.0,0.0,5.1749,5.55,5.686,5.8676,6.0704,6.0781,6.0781,6.071,5.9248,5.8517,5.8484,5.578,5.0317,4.2397,0.0,0.0,3.9623,4.4047,4.7663,5.0394,5.3895,5.5708,5.5708,5.5708,5.5708,5.5708,5.5241,5.4549,5.3741,5.2746,5.0707,4.7432,4.4739,4.0735,0.0,0.0,0.0,0.0,0.0,0.0,0.0,0.0,0.0,0.0,0.0,2.9047,2.6544,0.0,0.0,0.0,3.2971,3.4205,3.5644,3.7771,0.0,0.0,0.0,0.0,0.0,0.0,0.0,5.0252,5.4572,5.8346,6.1238,6.1586,6.1702,6.2095,6.1442,6.0631,5.9815,0.0,6.1878,6.3081,6.2698,6.2893,6.471,6.3711,6.3161,6.4468,6.5537,6.6662,6.7832,6.8044,6.8213,6.8527,6.8657,6.8669,6.8669,6.6873,6.4945,6.3693,6.3833,6.4241,6.4494,6.4924,6.5435,6.6513,6.5904,5.913,5.7339,5.8979,5.8979,6.0129,6.1929,6.1967,6.0788,5.9044,6.0512,5.797,5.2508,5.1704,0.0,5.6357,5.7286,5.894,6.121,6.1325,6.1396,6.1402,6.1364,6.1325,6.132,6.1089,6.1012,6.0896,5.9281,5.7203,5.4631,5.001,4.7124,4.6172,4.8437,5.051,5.212,5.4434,5.5626,5.5708,5.5708,5.5708,5.5708,5.5631,5.5247,5.4511,5.4434,5.3626,5.189,4.8125,4.4782,4.2004,0.0,0.0,0.0,0.0,0.0,0.0,0.0,0.0,0.0,0.0,0.0,0.0,0.0,0.0,0.0,3.9827,0.0,4.2213,4.3823,0.0,0.0,0.0,4.5749,4.6836,4.9829,5.2533,5.441,0.0,0.0,6.2109,6.4297,6.6133,6.6992,6.5625,6.4219,6.3398,6.4609,6.543,6.4765,6.5312,6.6094,6.7029,6.7171,6.7404,6.8236,6.841,6.9068,7.0469,7.0819,7.1134,7.1755,7.1994,7.1955,7.1994,7.1755,7.1035,6.783,6.7256,6.738,6.7981,6.8264,6.8778,7.1699,7.1538,6.9781,6.7153,6.4139,6.4139,6.5132,6.6715,6.6715,6.5756,6.4128,6.4512,6.3148,6.0485,6.0299,6.0663,6.1544,6.3089,6.4095,6.4743,6.6013,6.6583,6.6545,6.5897,6.559,6.548,6.3628,6.2704,6.2621,6.1012,5.8902,5.6478,5.5159,5.2895,4.9707,5.1356,5.2818,5.3857,5.4472,5.5093,5.567,5.5708,5.5708,5.5708,5.5088,5.4703,5.4511,5.3857,5.3005,5.1923,5.0356,4.7745,4.3855,3.7734,0.0,0.0,0.0,0.0,0.0,0.0,0.0,0.0,0.0,3.6657,3.024,0.0,3.9927,0.0,4.2314,4.4583,4.4966,4.652,0.0,0.0,4.9657,5.1035,5.4646,5.5728,5.7375,6.0458,6.2341,6.4218,6.6367,6.7187,6.789,6.8633,6.7344,6.6211,6.6015,6.6289,6.6758,6.7187,6.75,6.8125,6.953,7.038,7.1027,7.1913,7.1968,7.2338,7.3351,7.3546,7.3618,7.3837,7.3846,7.385,7.3913,7.387,7.3631,7.2752,7.2042,7.1599,7.1777,7.2235,7.2753,7.3507,7.3507,7.3507,7.1853,6.9244,6.8866,6.9013,6.9475,6.9122,6.8237,6.7013,6.7006,6.6468,6.5583,6.5583,6.5583,6.5622,6.659,6.7013,6.7051,6.7968,6.8391,6.8391,6.7898,6.7667,6.7628,6.6237,6.5352,6.4936,6.3697,6.2169,6.0436,5.9694,5.7587,5.4241,5.3536,5.3428,5.3895,5.4318,5.5241,5.678,5.6093,5.5324,5.4626,5.4164,5.3395,5.2279,5.1741,5.0933,4.9731,4.8894,4.7014,4.3893,3.9623,3.6196,0.0,0.0,0.0,0.0,0.0,0.0,0.0,0.0,0.0,0.0,0.0,4.3181,4.2274,4.6449,4.9393,4.9945,5.1888,5.3715,5.5184,5.5989,5.7402,5.9905,6.0798,6.2129,6.445,6.5506,6.6874,6.9023,6.9648,7.0195,7.1015,7.0664,6.9883,6.8828,6.8594,6.9023,7.0234,7.0469,7.0898,7.2224,7.2845,7.3308,7.3733,7.3841,7.4105,7.4964,7.5432,7.5781,7.6164,7.6559,7.6836,7.6828,7.6827,7.6823,7.6732,7.6431,7.5652,7.4519,7.4587,7.504,7.3815,7.3815,7.3815,7.3815,7.3738,7.2899,7.2052,7.1168,7.0514,6.9699,6.8891,6.8891,6.8814,6.8699,6.8737,6.8737,6.8737,6.8737,6.8737,6.8699,6.8737,6.8744,6.8712,6.8635,6.8565,6.8578,6.8385,6.7847,6.7083,6.6319,6.5341,6.4191,6.2778,6.0722,5.8055,5.4962,5.3333,5.3246,5.4059,5.5598,5.7709,5.6132,5.4511,5.3121,5.2741,5.151,4.9356,4.9125,4.8432,4.7005,4.6283,4.5282,4.3786,4.1251,3.9138,0.0,3.5765,0.0,0.0,0.0,0.0,0.0,0.0,0.0,0.0,4.5815,4.6754,4.6939,5.1344,5.4683,5.5781,5.8115,5.9955,6.0989,6.2525,6.3543,6.3696,6.5111,6.6482,6.742,6.832,6.9453,7.1015,7.1875,7.2656,7.3242,7.3789,7.3437,7.1875,7.1289,7.1719,7.3281,7.3555,7.375,7.4647,7.4998,7.5192,7.5266,7.5458,7.5537,7.6356,7.6982,7.7685,7.8387,7.8973,7.952,7.9677,7.9598,7.9635,7.9468,7.9379,7.8694,7.6884,7.6297,7.6696,7.5553,7.5553,7.5515,7.5515,7.5438,7.4591,7.3745,7.3007,7.2853,7.2283,7.1475,7.1475,7.1091,7.0437,7.0437,7.0437,7.0437,7.0437,7.0437,7.0437,7.0398,7.0464,7.0478,6.9823,6.9553,6.9532,6.8182,6.745,6.7257,6.6414,6.4524,6.1758,6.1383,5.9614,5.645,0.0,0.0,0.0,5.4082,5.4731,5.5155,5.3492,5.2467,5.2115,5.0159,0.0,4.8351,4.774,4.7235,4.6928,4.7351,0.0,0.0,0.0,0.0,0.0,0.0,0.0,0.0,0.0,0.0,0.0,4.6519,4.6888,4.492,4.9117,5.2351,5.3178,5.5993,5.8476,6.0129,6.206,6.3582,6.4546,6.5533,6.6397,6.706,6.8042,6.9295,7.0857,7.1796,7.2695,7.3594,7.4023,7.414,7.4375,7.4492,7.4687,7.4883,7.4219,7.3984,7.4336,7.5,7.5742,7.6562,7.7265,7.7812,7.8515,7.8708,7.8707,7.8824,7.898,7.9174,7.9483,7.9563,7.976,7.9756,7.9716,7.9834,7.9713,7.9751,7.9545,7.9028,7.8883,7.8938,7.5976,7.5976,7.5976,7.5976,0.0,7.5515,7.513,7.463,7.3399,7.236,7.1559,7.1559,7.1321,7.0937,7.136,7.1559,7.1552,7.1975,7.1951,7.1607,7.1607,7.137,7.105,7.0625,7.0476,7.0504,6.966,6.8783,6.7956,6.7128,6.5448,6.2984,6.2158,6.0663,5.8574,5.7297,5.6152,5.5171,5.4747,5.5176,5.629,5.4333,5.2815,5.2011,5.0354,0.0,0.0,0.0,0.0,0.0,0.0,0.0,0.0,0.0,0.0,4.6338,4.5208,4.4931,4.5786,4.6672,4.8305,5.0909,5.3522,5.3666,5.0577,5.3945,5.6906,5.8673,6.043,6.2352,6.4513,6.5603,6.6646,6.7956,6.8899,6.9761,7.0583,7.1444,7.2304,7.3085,7.3672,7.4258,7.5117,7.5234,7.543,7.582,7.625,7.664,7.6953,7.6055,7.5469,7.6367,7.7226,7.793,7.832,7.875,7.918,7.9609,7.9726,7.9726,7.9726,8.0038,8.035,8.0388,8.0662,8.0975,8.0974,8.0974,8.0973,8.0971,8.1009,8.1005,8.0944,8.0608,8.0431,7.5976,7.5976,7.5976,7.5976,7.5976,7.5976,7.583,7.5459,0.0,0.0,0.0,7.1163,7.1086,7.0971,7.167,7.2017,7.2055,7.2741,7.2737,7.2103,7.2078,7.1769,7.1136,7.1148,7.119,7.1253,7.1109,7.0324,6.8973,6.8021,6.6771,6.5269,6.3714,6.2489,6.152,6.0123,5.8892,5.781,5.6043,5.6106,5.8066,5.574,5.3733,5.2352,5.1194,4.9615,4.7565,4.7499,4.6851,4.551,4.5546,4.6039,4.6943,4.7784,4.898,5.0532,5.147,5.2356,5.3273,5.3482,5.4808,5.7566,5.975,6.0012,5.7742,5.8976,6.0921,6.3524,6.4575,6.6129,6.8541,6.8947,6.9629,7.1246,7.2029,7.2733,7.3437,7.4297,7.4726,7.4844,7.4961,7.539,7.625,7.6406,7.668,7.75,7.8164,7.8711,7.8555,7.7539,7.7148,7.832,7.8984,7.9609,7.9883,7.9883,7.9961,8.0273,8.0273,8.0156,8.0273,8.0742,8.1172,8.1211,8.1875,8.2148,8.2265,8.2187,8.2304,8.2303,8.242,8.2536,8.2492,8.2128,8.1916,7.5976,7.5976,7.5976,7.5976,7.5976,7.5976,7.5204,7.3996,7.4298,7.3566,7.2109,7.2168,7.1769,7.1075,7.119,7.1229,7.1268,7.1377,7.1383,7.128,7.1303,7.1329,7.1269,7.1318,7.141,7.1383,7.0767,7.0329,6.9916,6.8519,6.7262,6.6299,6.5332,6.4057,6.2624,6.2239,6.1681,6.0766,5.8296,5.7193,5.7499,5.4992,5.3544,5.3235,5.1107,4.9714,4.9327,4.9364,4.9231,4.9002,4.9695,5.0503,5.1428,5.2246,5.3168,5.4202,5.5083,5.5966,5.6892,5.7628,5.9533,6.2715,6.3442,6.3476,6.312,6.3274,6.454,6.7073,6.8108,6.9412,7.1223,7.2058,7.2808,7.3825,7.414,7.4297,7.4453,7.5234,7.5781,7.5781,7.6406,7.7148,7.789,7.8086,7.832,7.9101,7.9375,7.9531,7.957,7.9336,7.9258,7.9453,7.9609,8.0,8.0625,8.082,8.1054,8.1836,8.1836,8.1719,8.1719,8.1875,8.2031,8.2109,8.2187,8.2304,8.2344,8.2304,8.2422,8.25,8.2969,8.3398,8.3437,8.3786,8.4054,7.5976,7.6022,7.6058,7.6041,7.6041,7.6083,7.5424,7.4314,7.4256,7.3279,7.1718,7.1666,7.151,7.1231,7.1656,7.1867,7.1903,7.236,7.2301,7.1954,7.1971,7.1802,7.1431,7.1479,7.1529,7.1568,7.1244,7.0841,7.0359,6.9621,6.8822,6.793,6.6662,6.539,6.4229,6.3684,6.3256,6.2786,6.0222,5.8869,5.8834,5.6763,5.567,5.5673,5.4086,5.3271,5.3275,5.3269,5.3288,5.3288,5.3688,5.4341,5.5208,5.608,5.6921,5.7812,5.868,5.9599,6.0451,6.22,6.4092,6.6128,6.6764,6.7432,6.8358,6.7569,6.7923,7.001,7.0993,7.2015,7.3271,7.3785,7.4334,7.5195,7.5312,7.5508,7.6015,7.6797,7.7305,7.7383,7.8047,7.8711,7.9101,7.914,7.9258,7.9687,8.0039,8.0508,8.1015,8.1094,8.0898,8.0547,8.0781,8.125,8.164,8.1719,8.1875,8.2265,8.2304,8.2304,8.2304,8.2304,8.2304,8.2304,8.2304,8.25,8.2851,8.3008,8.3203,8.3711,8.3984,8.4297,8.4414,8.5,8.5232,7.6012,7.6072,7.609,7.6118,7.6125,7.6212,7.5742,7.4912,7.4375,7.3259,7.1875,7.1389,7.1219,7.1341,7.1965,7.2269,7.2351,7.2982,7.2969,7.2434,7.2444,7.215,7.1581,7.1626,7.1664,7.174,7.1747,7.142,7.0862,7.0623,7.0091,6.9198,6.793,6.6968,6.6266,6.545,6.4982,6.4861,6.2566,6.1223,6.0977,5.95,5.8686,5.8644,5.7914,5.7489,5.7489,5.7517,5.7492,5.7494,5.7537,5.7949,5.8845,5.949,6.0288,6.1122,6.1987,6.2942,6.4099,6.6107,6.7872,6.8888,6.9598,7.0734,7.2219,7.1552,7.1317,7.2491,7.3351,7.4135,7.4763,7.5116,7.5468,7.6094,7.6172,7.6523,7.7383,7.8125,7.8594,7.8789,7.9336,7.9726,7.9922,8.0,8.0117,8.0429,8.0898,8.1562,8.2148,8.2304,8.1992,8.1679,8.1875,8.2187,8.2304,8.2265,8.2265,8.2304,8.2304,8.2422,8.2539,8.2617,8.2734,8.2929,8.2969,8.3242,8.375,8.3906,8.414,8.4609,8.4961,8.5273,8.5547,8.6054,8.6172,7.6118,7.6172,7.6185,7.6185,7.6205,7.6332,7.5916,7.516,7.5115,7.4688,7.3661,7.2148,7.1504,7.1475,7.1591,7.1619,7.1637,7.175,7.181,7.1741,7.1742,7.1742,7.1665,7.1741,7.1776,7.1806,7.1866,7.1799,7.1648,7.0975,7.0169,6.9389,6.912,6.8966,6.881,6.8069,6.7678,6.7678,6.5915,6.4606,6.3707,6.2808,6.2304,6.2301,6.149,6.1103,6.1023,6.1123,6.1097,6.1136,6.1077,6.1478,6.226,6.2509,6.2954,6.3785,6.4656,6.5878,6.7448,6.8582,6.9872,7.1435,7.1674,7.2458,7.4138,7.4882,7.496,7.4685,7.5153,7.5623,7.582,7.6406,7.6836,7.6914,7.7031,7.7422,7.8164,7.8437,7.875,7.9531,7.9765,8.0,8.0742,8.0859,8.1172,8.1719,8.1875,8.207,8.2226,8.2304,8.2304,8.2148,8.2304,8.2304,8.2344,8.2304,8.2422,8.2383,8.2344,8.2734,8.3281,8.3515,8.3672,8.4062,8.4453,8.4492,8.4687,8.4765,8.4804,8.5234,8.5742,8.6289,8.6992,8.7226,8.6953,7.6635,7.6198,7.6244,7.6307,7.638,7.6472,7.6332,7.5981,7.5513,7.518,7.4796,7.3677,7.2853,7.2284,7.1835,7.1638,7.1686,7.1704,7.1721,7.1741,7.1812,7.1833,7.1847,7.1838,7.1855,7.1862,7.1913,7.1917,7.1846,7.1563,7.1003,7.0199,7.0122,6.9888,6.938,6.9029,6.8873,6.8834,6.817,6.7384,6.6356,6.4602,6.3641,6.3602,6.3292,6.3144,6.3118,6.3133,6.3146,6.3196,6.3168,6.3369,6.372,6.4701,6.5408,6.5841,6.7059,6.8353,6.9566,7.0466,7.1483,7.2694,7.3241,7.4101,7.5195,7.5703,7.5937,7.6171,7.6484,7.6679,7.668,7.6992,7.7226,7.7265,7.7656,7.8125,7.8437,7.9375,8.0156,8.0469,8.0937,8.1328,8.1679,8.1758,8.1914,8.2265,8.2304,8.2304,8.2304,8.2304,8.2304,8.2383,8.2734,8.2812,8.25,8.2773,8.3008,8.3164,8.3515,8.4062,8.4219,8.4375,8.4531,8.4922,8.5,8.5273,8.5586,8.5703,8.5781,8.6133,8.6523,8.7109,8.7461,8.75,8.7304,7.7209,7.6667,7.6478,7.6444,7.6537,7.6594,7.6648,7.6582,7.6061,7.5872,7.5793,7.5057,7.4324,7.361,7.2578,7.2134,7.2109,7.1925,7.1822,7.184,7.186,7.1913,7.1926,7.1901,7.1915,7.1924,7.1925,7.1925,7.1927,7.1987,7.1656,7.1121,7.1044,7.0731,7.0145,6.9911,6.9755,6.9755,6.9521,6.9091,6.8268,6.6604,6.5411,6.5021,6.4943,6.4948,6.4959,6.4967,6.4975,6.4982,6.5222,6.5341,6.5381,6.675,6.7689,6.8003,6.906,7.0272,7.1327,7.1992,7.2851,7.3906,7.4609,7.5312,7.6055,7.625,7.6523,7.7031,7.7226,7.7187,7.7226,7.7226,7.7305,7.7539,7.8164,7.8633,7.9219,8.0351,8.1054,8.1367,8.1797,8.2304,8.2304,8.2265,8.2265,8.2304,8.2304,8.2304,8.2304,8.2304,8.2344,8.2617,8.3242,8.3281,8.2851,8.3398,8.3867,8.4062,8.4453,8.4804,8.5156,8.5234,8.5508,8.5898,8.5664,8.5742,8.6367,8.6601,8.6601,8.7187,8.7461,8.7461,8.75,8.75,8.75,7.7738,7.7682,7.6951,7.6594,7.6614,7.666,7.6743,7.6797,7.6791,7.6842,7.676,7.6009,7.565,7.5471,7.3865,7.3077,7.2952,7.2307,7.1967,7.1971,7.1932,7.1913,7.1984,7.1986,7.1997,7.1972,7.1973,7.1975,7.1977,7.1978,7.198,7.1903,7.1865,7.1903,7.1669,7.0967,7.0654,7.0577,6.9952,6.9444,6.9326,6.9168,6.8268,6.6939,6.6784,6.6782,6.6785,6.6785,6.6785,6.6786,6.7412,6.7842,6.7959,6.8745,6.9569,7.0351,7.0586,7.1406,7.2812,7.3203,7.3945,7.539,7.5742,7.6211,7.6914,7.7031,7.707,7.7187,7.7226,7.7226,7.7226,7.7305,7.7617,7.8242,7.8476,7.9297,8.0625,8.0898,8.1367,8.1992,8.2226,8.2304,8.2304,8.2304,8.2304,8.2304,8.2304,8.2304,8.2304,8.2304,8.2695,8.3242,8.3594,8.3633,8.3633,8.4258,8.4765,8.4961,8.5156,8.5312,8.5781,8.6211,8.6601,8.6953,8.6914,8.7031,8.7304,8.7383,8.7304,8.75,8.75,8.75,8.75,8.75,8.75,7.8806,7.7836,7.7083,7.673,7.6752,7.6782,7.6869,7.6949,7.6954,7.6991,7.6975,7.6676,7.6585,7.6575,7.5393,7.4531,7.3953,7.3099,7.2761,7.2738,7.2232,7.1963,7.2009,7.201,7.1974,7.1979,7.198,7.1983,7.1987,7.1987,7.1989,7.199,7.199,7.199,7.1951,7.1717,7.1522,7.1523,7.117,7.078,7.0273,7.0233,6.9686,6.8592,6.8509,6.8507,6.8511,6.8511,6.8512,6.8514,6.8789,6.8944,6.9022,6.9765,7.0625,7.1445,7.2031,7.2617,7.332,7.4375,7.5195,7.582,7.6445,7.6797,7.7109,7.7226,7.7226,7.7226,7.7226,7.7226,7.7305,7.7695,7.8164,7.8515,7.9453,8.0273,8.0937,8.1484,8.1992,8.2226,8.2304,8.2304,8.2304,8.2304,8.2304,8.2304,8.2304,8.2304,8.2422,8.2734,8.3242,8.3711,8.4531,8.5273,8.5273,8.5469,8.5781,8.5937,8.6133,8.6523,8.6953,8.6914,8.7187,8.7187,8.7461,8.75,8.7461,8.7461,8.75,8.75,8.75,8.75,8.75,8.7617,8.7578,7.9267,7.7995,7.7159,7.6847,7.6876,7.6923,7.696,7.6991,7.7017,7.7045,7.7024,7.7034,7.7053,7.6996,7.6452,7.5948,7.5285,7.4228,7.3688,7.366,7.284,7.2411,7.2374,7.2101,7.1985,7.1986,7.1987,7.1989,7.1991,7.1991,7.1991,7.1992,7.1992,7.1992,7.1992,7.1992,7.1992,7.1992,7.1992,7.168,7.1172,7.1133,7.0859,7.0312,7.0232,6.9957,6.9452,6.9413,6.9413,6.9453,6.9648,6.9922,7.0273,7.0781,7.1523,7.2344,7.2969,7.3594,7.418,7.5234,7.6015,7.6328,7.6836,7.7226,7.7226,7.7226,7.7226,7.7226,7.7226,7.7265,7.7734,7.8398,7.8867,7.9062,8.0156,8.1133,8.1406,8.1914,8.2226,8.2304,8.2304,8.2304,8.2304,8.2304,8.2304,8.2304,8.2304,8.2344,8.2734,8.3164,8.3906,8.4375,8.539,8.6133,8.6367,8.6523,8.6601,8.6719,8.6719,8.7265,8.75,8.75,8.75,8.75,8.75,8.75,8.75,8.75,8.75,8.75,8.75,8.75,8.7617,8.7773,8.7929,7.8982,7.8192,7.73,7.6984,7.6991,7.7004,7.6983,7.7008,7.7067,7.7087,7.7103,7.7076,7.7087,7.7097,7.7019,7.7023,7.6674,7.5382,7.4677,7.4522,7.3701,7.3313,7.3239,7.2615,7.2186,7.2109,7.2031,7.1992,7.1992,7.1992,7.1992,7.1992,7.1992,7.1992,7.1992,7.1992,7.1992,7.1992,7.1992,7.1953,7.1992,7.1914,7.1836,7.1836,7.1797,7.1094,6.9609,6.957,6.9687,6.9765,7.0351,7.1133,7.168,7.1953,7.2383,7.3047,7.332,7.4219,7.5547,7.5898,7.6406,7.6914,7.7187,7.7226,7.7226,7.7226,7.7226,7.7226,7.7226,7.75,7.832,7.9101,7.9609,7.9805,8.0625,8.1445,8.1992,8.2265,8.2304,8.2304,8.2304,8.2304,8.2304,8.2304,8.2304,8.2304,8.2422,8.2695,8.332,8.375,8.4492,8.5547,8.625,8.6679,8.7109,8.7461,8.7461,8.7422,8.7344,8.75,8.75,8.75,8.75,8.75,8.75,8.75,8.75,8.75,8.75,8.75,8.75,8.7695,8.789,8.8203,8.8594,7.9895,7.9085,7.8208,7.7524,7.7036,7.7065,7.708,7.705,7.7075,7.7086,7.709,7.7093,7.7138,7.7181,7.7182,7.7185,7.7148,7.6601,7.6094,7.543,7.4609,7.4219,7.414,7.3906,7.3476,7.2851,7.2265,7.1992,7.2031,7.2031,7.1992,7.1992,7.1992,7.1992,7.1992,7.1992,7.1992,7.1992,7.1992,7.1992,7.1992,7.1992,7.1992,7.1992,7.1992,7.168,7.125,7.1172,7.1211,7.1172,7.1445,7.1719,7.2031,7.2578,7.3008,7.3359,7.4492,7.5234,7.582,7.6445,7.6875,7.7148,7.7226,7.7226,7.7226,7.7226,7.7226,7.7226,7.7226,7.7578,7.8398,7.9219,7.9922,8.0508,8.1367,8.1953,8.2226,8.2304,8.2304,8.2304,8.2304,8.2304,8.2304,8.2304,8.2304,8.2383,8.2773,8.332,8.3672,8.4609,8.539,8.6133,8.664,8.7031,8.7304,8.75,8.75,8.75,8.75,8.75,8.75,8.75,8.75,8.75,8.75,8.75,8.75,8.7578,8.7656,8.7812,8.8008,8.8203,8.8398,8.8828,8.9375,8.0347,7.9544,7.87,7.7857,7.7092,7.7072,7.7078,7.7081,7.7093,7.71,7.7141,7.7141,7.7144,7.7186,7.7225,7.7226,7.7226,7.7226,7.6914,7.6289,7.5508,7.5117,7.5,7.4726,7.4336,7.3828,7.3242,7.2812,7.25,7.2461,7.2344,7.2031,7.1992,7.1992,7.1992,7.1992,7.1992,7.1992,7.1992,7.1992,7.1992,7.1992,7.1992,7.1992,7.1992,7.1992,7.1992,7.1992,7.1992,7.1992,7.1992,7.1992,7.207,7.2812,7.3437,7.3984,7.5039,7.6015,7.6367,7.6875,7.7226,7.7226,7.7226,7.7226,7.7226,7.7226,7.7226,7.7226,7.7226,7.7656,7.8789,7.9375,8.0195,8.1367,8.1914,8.2304,8.2304,8.2304,8.2304,8.2304,8.2304,8.2304,8.2304,8.2304,8.2304,8.2422,8.3047,8.3828,8.4219,8.5273,8.5976,8.6562,8.707,8.7344,8.7461,8.75,8.75,8.75,8.75,8.75,8.75,8.75,8.75,8.75,8.75,8.75,8.75,8.7929,8.8125,8.832,8.8594,8.8984,8.9336,8.9922,9.0429,8.0509,7.9679,7.8861,7.8056,7.729,7.7176,7.7097,7.7098,7.71,7.7142,7.7184,7.7184,7.7186,7.7226,7.7226,7.7226,7.7226,7.7226,7.7187,7.6914,7.6367,7.5976,7.5898,7.5195,7.4805,7.4687,7.4492,7.4062,7.3398,7.3359,7.2969,7.2422,7.2305,7.2109,7.2187,7.207,7.1992,7.1992,7.1992,7.1992,7.1992,7.1992,7.1992,7.1992,7.1992,7.1992,7.1992,7.1992,7.1992,7.1992,7.1992,7.207,7.2226,7.289,7.3828,7.4609,7.5508,7.6328,7.6992,7.7148,7.7226,7.7226,7.7226,7.7226,7.7226,7.7226,7.7226,7.7226,7.7305,7.7969,7.9258,7.9805,8.0625,8.1914,8.2265,8.2304,8.2304,8.2304,8.2304,8.2304,8.2304,8.2304,8.2344,8.2383,8.25,8.2656,8.3359,8.4297,8.4922,8.5859,8.6601,8.707,8.7383,8.7461,8.75,8.75,8.75,8.75,8.75,8.75,8.75,8.75,8.75,8.75,8.7578,8.7539,8.7734,8.8203,8.8633,8.8906,8.9297,8.9844,9.0351,9.0898,9.1289,8.1421,8.0567,7.9707,7.8852,7.7997,7.7454,7.7183,7.7183,7.7186,7.7187,7.7226,7.7226,7.7226,7.7226,7.7226,7.7226,7.7226,7.7226,7.7226,7.7148,7.6992,7.6875,7.668,7.5976,7.5547,7.5508,7.5039,7.4492,7.4258,7.4258,7.4101,7.3906,7.3242,7.293,7.289,7.2383,7.2031,7.1992,7.1992,7.2031,7.2031,7.1992,7.1992,7.1992,7.1992,7.1992,7.1992,7.1992,7.1992,7.1992,7.1992,7.2305,7.289,7.375,7.4648,7.543,7.6328,7.6914,7.7148,7.7226,7.7226,7.7226,7.7226,7.7226,7.7226,7.7226,7.7226,7.7305,7.7734,7.8555,7.957,8.0312,8.1172,8.2031,8.2304,8.2304,8.2304,8.2304,8.2304,8.2304,8.2304,8.2304,8.25,8.2812,8.3203,8.3476,8.4375,8.539,8.5781,8.6406,8.7187,8.7265,8.7461,8.75,8.75,8.75,8.75,8.75,8.75,8.75,8.75,8.75,8.75,8.75,8.7695,8.7734,8.8164,8.8633,8.9023,8.9609,9.0273,9.0898,9.1172,9.1601,9.1992,8.1786,8.0969,8.0461,7.9564,7.8473,7.7967,7.7538,7.7265,7.7226,7.7226,7.7226,7.7226,7.7226,7.7226,7.7226,7.7226,7.7226,7.7226,7.7226,7.7226,7.7187,7.7187,7.707,7.6601,7.6445,7.6406,7.5937,7.5508,7.5234,7.5156,7.4961,7.4531,7.4101,7.3828,7.3828,7.3398,7.3086,7.3047,7.2773,7.2539,7.2539,7.2187,7.1992,7.1992,7.1992,7.1992,7.2031,7.2344,7.2383,7.2187,7.2344,7.2773,7.332,7.4492,7.5351,7.5937,7.6719,7.7187,7.7226,7.7226,7.7226,7.7226,7.7226,7.7226,7.7226,7.7226,7.7226,7.7265,7.8008,7.8828,7.9726,8.0781,8.1679,8.2187,8.2304,8.2304,8.2304,8.2304,8.2304,8.2304,8.2304,8.25,8.2734,8.332,8.375,8.4258,8.5234,8.582,8.625,8.6992,8.75,8.75,8.75,8.75,8.75,8.75,8.75,8.75,8.7656,8.7617,8.7617,8.7656,8.7812,8.789,8.7929,8.8203,8.8828,8.9453,9.0078,9.0703,9.1367,9.1758,9.1953,9.1992,9.2422,8.183,8.113,8.1052,8.0077,7.875,7.8515,7.793,7.7305,7.7226,7.7226,7.7226,7.7226,7.7226,7.7226,7.7226,7.7226,7.7226,7.7226,7.7226,7.7226,7.7226,7.7226,7.7187,7.7109,7.7031,7.707,7.7187,7.668,7.6172,7.6055,7.5664,7.5195,7.4883,7.4726,7.4648,7.457,7.457,7.4297,7.3711,7.3437,7.332,7.289,7.2617,7.2617,7.2578,7.2539,7.2656,7.2969,7.3125,7.2344,7.3008,7.3476,7.3789,7.5195,7.5859,7.6172,7.6797,7.7226,7.7226,7.7226,7.7226,7.7226,7.7226,7.7226,7.7226,7.7226,7.7265,7.75,7.8125,7.914,8.0195,8.1484,8.207,8.2304,8.2304,8.2304,8.2304,8.2304,8.2304,8.2344,8.2344,8.2851,8.332,8.3828,8.4179,8.5039,8.5937,8.6445,8.6719,8.7148,8.7461,8.75,8.75,8.75,8.75,8.75,8.75,8.75,8.7812,8.789,8.7929,8.8008,8.8281,8.8476,8.875,8.9258,8.9922,9.0547,9.1015,9.1484,9.1953,9.2265,9.2539,9.2383,9.2578,8.2187,8.1953,8.1289,8.039,7.9414,7.8789,7.8008,7.7265,7.7226,7.7226,7.7226,7.7226,7.7226,7.7226,7.7226,7.7226,7.7226,7.7226,7.7226,7.7226,7.7226,7.7226,7.7226,7.7226,7.7226,7.7226,7.7226,7.707,7.6914,7.6797,7.6836,7.6562,7.5859,7.5625,7.5547,7.5078,7.4609,7.457,7.4414,7.4336,7.4297,7.4062,7.3867,7.3867,7.3906,7.3984,7.4062,7.4219,7.4219,7.414,7.4258,7.4648,7.5156,7.5664,7.6211,7.6719,7.6992,7.7226,7.7226,7.7226,7.7226,7.7226,7.7226,7.7226,7.7226,7.7265,7.7578,7.8125,7.8984,8.0078,8.1367,8.1992,8.2265,8.2304,8.2304,8.2304,8.2304,8.2304,8.2304,8.2461,8.289,8.3398,8.3672,8.4961,8.5469,8.5937,8.6445,8.707,8.7265,8.7344,8.7422,8.75,8.75,8.75,8.75,8.7539,8.7617,8.7773,8.8047,8.8633,8.8633,8.8711,8.914,8.9414,8.9648,9.0234,9.0859,9.1094,9.1484,9.1992,9.2383,9.25,9.2578,9.2578,9.2578,8.2304,8.2265,8.1797,8.1094,8.0234,7.9414,7.8594,7.7812,7.7344,7.7226,7.7226,7.7226,7.7226,7.7226,7.7226,7.7226,7.7226,7.7226,7.7226,7.7226,7.7226,7.7226,7.7226,7.7226,7.7226,7.7226,7.7226,7.7226,7.7226,7.7226,7.7148,7.7187,7.6719,7.6523,7.6484,7.6015,7.5898,7.5781,7.539,7.5195,7.5195,7.4765,7.457,7.457,7.457,7.457,7.4531,7.5039,7.5156,7.5312,7.5586,7.5781,7.5937,7.6289,7.6719,7.707,7.7226,7.7226,7.7226,7.7226,7.7226,7.7226,7.7226,7.7226,7.7344,7.7539,7.7969,7.8633,7.9609,8.0898,8.2109,8.2304,8.2304,8.2304,8.2304,8.2304,8.2304,8.2304,8.25,8.2812,8.332,8.4062,8.4844,8.5781,8.6367,8.664,8.6797,8.7344,8.7383,8.7422,8.7461,8.75,8.75,8.75,8.75,8.7578,8.7773,8.8047,8.8398,8.9258,8.9922,9.0,9.0156,9.039,9.0625,9.1094,9.164,9.1797,9.1914,9.2265,9.2539,9.2578,9.2578,9.2578,9.2578,8.2304,8.2304,8.2304,8.1797,8.0937,8.0039,7.918,7.8398,7.7578,7.7226,7.7226,7.7226,7.7226,7.7226,7.7226,7.7226,7.7226,7.7226,7.7226,7.7226,7.7226,7.7226,7.7226,7.7226,7.7226,7.7226,7.7226,7.7226,7.7226,7.7226,7.7226,7.7187,7.7187,7.707,7.7148,7.7187,7.6992,7.6836,7.6367,7.6094,7.6055,7.5508,7.5234,7.5234,7.5234,7.5234,7.539,7.5742,7.6094,7.6133,7.6797,7.6719,7.6523,7.6719,7.7226,7.7226,7.7226,7.7226,7.7226,7.7226,7.7226,7.7226,7.7226,7.7344,7.7539,7.8047,7.8594,7.9375,8.0351,8.1484,8.2226,8.2304,8.2304,8.2304,8.2304,8.2304,8.2344,8.2383,8.2929,8.3359,8.3828,8.4492,8.5429,8.6367,8.6875,8.7265,8.7422,8.75,8.75,8.75,8.75,8.75,8.75,8.75,8.75,8.8008,8.8164,8.8554,8.8906,8.9883,9.0898,9.1133,9.1211,9.1367,9.164,9.1992,9.2148,9.2226,9.2383,9.2578,9.2578,9.2578,9.2578,9.2578,9.2578,8.2304,8.2304,8.2304,8.1797,8.0937,8.0078,7.9297,7.8437,7.7656,7.7226,7.7226,7.7226,7.7226,7.7226,7.7226,7.7226,7.7226,7.7226,7.7226,7.7226,7.7226,7.7226,7.7226,7.7226,7.7226,7.7226,7.7226,7.7226,7.7226,7.7226,7.7226,7.7226,7.7226,7.7226,7.7226,7.7226,7.7226,7.7226,7.6953,7.6836,7.6758,7.664,7.6484,7.6484,7.6445,7.6523,7.664,7.6836,7.6992,7.6992,7.7109,7.707,7.6953,7.707,7.7187,7.7226,7.7226,7.7226,7.7226,7.7226,7.7226,7.7226,7.7305,7.7656,7.8086,7.8555,7.9297,8.039,8.1289,8.2148,8.2265,8.2304,8.2304,8.2304,8.2383,8.2383,8.25,8.2969,8.3476,8.3945,8.4453,8.5039,8.6015,8.6758,8.7109,8.7383,8.7422,8.75,8.75,8.75,8.75,8.75,8.75,8.75,8.75,8.8203,8.8711,8.9258,8.9765,9.0586,9.1445,9.1992,9.2265,9.2109,9.2148,9.2344,9.25,9.2578,9.2578,9.2578,9.2578,9.2578,9.2578,9.2578,9.2578,8.2304,8.2304,8.2304,8.207,8.1562,8.0742,7.9883,7.9062,7.8242,7.7617,7.7305,7.7226,7.7226,7.7226,7.7226,7.7226,7.7226,7.7226,7.7226,7.7226,7.7226,7.7226,7.7226,7.7226,7.7226,7.7226,7.7226,7.7226,7.7226,7.7226,7.7226,7.7226,7.7226,7.7226,7.7226,7.7226,7.7226,7.7226,7.7226,7.7226,7.7226,7.7226,7.7226,7.7226,7.7226,7.7226,7.7226,7.7226,7.7187,7.7187,7.7187,7.7226,7.7226,7.7226,7.7226,7.7226,7.7226,7.7226,7.7226,7.7226,7.7226,7.7265,7.7578,7.8008,7.8633,7.9336,8.0312,8.1328,8.1875,8.2304,8.2304,8.2304,8.2304,8.2383,8.2656,8.289,8.3164,8.3789,8.4258,8.4687,8.5273,8.5937,8.6679,8.7187,8.7422,8.75,8.75,8.75,8.75,8.75,8.75,8.7734,8.7812,8.8047,8.8203,8.8867,8.9453,8.9922,9.0508,9.1328,9.1836,9.2304,9.25,9.2461,9.2578,9.2578,9.2578,9.2578,9.2578,9.2578,9.2578,9.2578,9.2578,9.2578,9.2578,8.2304,8.2304,8.2304,8.2304,8.2148,8.1367,8.0625,7.9844,7.8906,7.8086,7.75,7.7305,7.7226,7.7226,7.7226,7.7226,7.7226,7.7226,7.7226,7.7226,7.7226,7.7226,7.7226,7.7226,7.7226,7.7226,7.7226,7.7226,7.7226,7.7226,7.7226,7.7226,7.7226,7.7226,7.7226,7.7226,7.7226,7.7226,7.7226,7.7226,7.7226,7.7226,7.7226,7.7226,7.7226,7.7226,7.7226,7.7226,7.7226,7.7226,7.7226,7.7226,7.7226,7.7226,7.7226,7.7226,7.7226,7.7226,7.7226,7.75,7.7617,7.7617,7.8281,7.8711,7.9375,8.039,8.1484,8.2148,8.2304,8.2304,8.2304,8.2304,8.2422,8.2734,8.3203,8.3711,8.4023,8.457,8.5273,8.5742,8.625,8.6679,8.7187,8.7344,8.7461,8.75,8.75,8.75,8.75,8.75,8.7578,8.7929,8.8242,8.8633,8.9101,8.9765,9.0273,9.0703,9.1211,9.1875,9.2226,9.2539,9.2578,9.2578,9.2578,9.2578,9.2578,9.2578,9.2578,9.2578,9.2578,9.2578,9.2578,9.2578,9.2578,8.2304,8.2304,8.2304,8.2304,8.2187,8.1406,8.0976,8.0625,7.9258,7.8476,7.8203,7.7578,7.7265,7.7226,7.7226,7.7226,7.7226,7.7226,7.7226,7.7226,7.7226,7.7226,7.7226,7.7226,7.7226,7.7226,7.7226,7.7226,7.7226,7.7226,7.7226,7.7226,7.7226,7.7226,7.7226,7.7226,7.7226,7.7226,7.7226,7.7226,7.7226,7.7226,7.7226,7.7226,7.7226,7.7226,7.7226,7.7226,7.7226,7.7226,7.7226,7.7226,7.7226,7.7226,7.7226,7.7226,7.7226,7.7226,7.7383,7.793,7.832,7.8476,7.9101,7.9883,8.0586,8.1289,8.207,8.2226,8.2304,8.2304,8.2304,8.2344,8.2695,8.3203,8.3711,8.4219,8.4687,8.5508,8.6172,8.6406,8.6758,8.7031,8.7461,8.7461,8.75,8.75,8.75,8.75,8.7578,8.7656,8.8047,8.8515,8.9062,8.9492,8.9922,9.0625,9.1054,9.1484,9.1836,9.2304,9.2461,9.2578,9.2578,9.2578,9.2578,9.2578,9.2578,9.2578,9.2578,9.2578,9.2578,9.2578,9.2578,9.2578,9.2578,8.2304,8.2304,8.2304,8.2304,8.2265,8.1875,8.1445,8.0898,8.0234,7.9375,7.8594,7.8125,7.7695,7.7383,7.7226,7.7226,7.7226,7.7265,7.7226,7.7226,7.7265,7.7226,7.7226,7.7226,7.7226,7.7226,7.7226,7.7226,7.7226,7.7226,7.7226,7.7226,7.7226,7.7226,7.7226,7.7226,7.7226,7.7226,7.7226,7.7226,7.7226,7.7226,7.7226,7.7226,7.7226,7.7226,7.7226,7.7226,7.7226,7.7226,7.7226,7.7226,7.7226,7.7265,7.7383,7.7969,7.7969,7.7969,7.8047,7.875,7.9062,7.9375,7.9961,8.0781,8.1562,8.2031,8.2304,8.2304,8.2304,8.2344,8.2461,8.2773,8.3164,8.3672,8.4414,8.5039,8.5625,8.6367,8.6992,8.7148,8.7226,8.7383,8.75,8.75,8.75,8.75,8.75,8.7539,8.7773,8.8047,8.8633,8.9375,8.9922,9.0469,9.0898,9.1445,9.1797,9.2109,9.2109,9.25,9.2539,9.2578,9.2578,9.2578,9.2578,9.2578,9.2578,9.2578,9.2578,9.2578,9.2578,9.2578,9.2578,9.2578,9.2578,8.2304,8.2304,8.2304,8.2304,8.2304,8.2304,8.1914,8.1367,8.1054,8.0273,7.9336,7.8906,7.8437,7.7969,7.793,7.8008,7.789,7.7812,7.7656,7.7578,7.75,7.7422,7.7305,7.7226,7.7226,7.7226,7.7226,7.7226,7.7226,7.7226,7.7226,7.7226,7.7226,7.7226,7.7226,7.7226,7.7226,7.7226,7.7226,7.7226,7.7226,7.7226,7.7226,7.7226,7.7226,7.7226,7.7226,7.7226,7.7226,7.7226,7.7226,7.7305,7.7578,7.7695,7.8047,7.8672,7.8984,7.9219,7.9375,7.9726,7.9961,8.0273,8.0781,8.1562,8.207,8.2304,8.2304,8.2304,8.2304,8.2422,8.2695,8.3242,8.3828,8.4531,8.5351,8.5976,8.6523,8.6992,8.7265,8.7344,8.7383,8.7422,8.75,8.75,8.75,8.75,8.7539,8.7617,8.8086,8.8594,8.9375,9.0156,9.0547,9.1133,9.1679,9.2148,9.25,9.2578,9.2578,9.2578,9.2578,9.2578,9.2578,9.2578,9.2578,9.2578,9.2578,9.2578,9.2578,9.2578,9.2578,9.2578,9.2578,9.2578,9.2578,8.2304,8.2304,8.2304,8.2304,8.2304,8.2304,8.2265,8.2031,8.1367,8.0937,8.0508,7.9961,7.9453,7.9375,7.9258,7.9297,7.9453,7.9531,7.8984,7.8555,7.8359,7.8047,7.7773,7.7539,7.7422,7.7422,7.7578,7.7539,7.7344,7.7656,7.7422,7.7226,7.7305,7.7265,7.7226,7.7226,7.7226,7.7226,7.7226,7.7226,7.7226,7.7226,7.7226,7.7226,7.7226,7.7226,7.7226,7.7305,7.7383,7.7383,7.7539,7.7812,7.8281,7.8398,7.8828,7.9531,8.0117,8.0429,8.0664,8.0742,8.0859,8.1172,8.1562,8.207,8.2265,8.2304,8.2304,8.2422,8.2578,8.289,8.3242,8.3711,8.457,8.5312,8.6015,8.6523,8.6953,8.7187,8.7422,8.7461,8.75,8.75,8.75,8.75,8.75,8.75,8.7929,8.8047,8.8945,8.957,9.0273,9.0937,9.1133,9.164,9.2265,9.2578,9.2578,9.2578,9.2578,9.2578,9.2578,9.2578,9.2578,9.2578,9.2578,9.2578,9.2578,9.2578,9.2578,9.2578,9.2578,9.2578,9.2578,9.2578,9.2578,8.2304,8.2304,8.2304,8.2304,8.2304,8.2304,8.2304,8.2265,8.1953,8.1445,8.0976,8.0117,7.9726,7.9726,7.9726,7.9726,7.9726,7.9726,7.9492,7.9336,7.914,7.9023,7.875,7.8633,7.875,7.8672,7.8711,7.875,7.8789,7.8555,7.8711,7.8555,7.7812,7.7305,7.7226,7.7383,7.7305,7.7305,7.7265,7.7226,7.7226,7.7226,7.7226,7.7226,7.7226,7.7226,7.7305,7.7773,7.793,7.8125,7.8437,7.8828,7.914,7.9219,7.9687,8.0351,8.0937,8.125,8.1679,8.1758,8.1797,8.1836,8.2109,8.2304,8.2304,8.2304,8.2656,8.2851,8.3125,8.3476,8.4219,8.4883,8.5625,8.6172,8.664,8.707,8.7304,8.7461,8.75,8.75,8.75,8.75,8.75,8.75,8.75,8.7539,8.8008,8.8633,8.9609,9.0429,9.1133,9.1562,9.1797,9.1914,9.25,9.2578,9.2578,9.2578,9.2578,9.2578,9.2578,9.2578,9.2578,9.2578,9.2578,9.2578,9.2578,9.2578,9.2578,9.2578,9.2578,9.2578,9.2578,9.2578,9.2578,8.2304,8.2304,8.2304,8.2304,8.2304,8.2304,8.2304,8.2304,8.2304,8.1992,8.1367,8.0703,8.0469,8.0469,8.0508,8.0547,8.0625,8.0586,8.0351,8.0195,8.0078,7.9961,7.9805,7.9648,7.9492,7.9726,7.9726,7.9609,7.9531,7.9687,7.957,7.918,7.8633,7.8164,7.8047,7.793,7.793,7.793,7.793,7.793,7.8008,7.8047,7.8047,7.8086,7.8125,7.8125,7.8242,7.8594,7.8789,7.8984,7.9297,7.9765,7.9961,8.0195,8.0547,8.1054,8.1445,8.1679,8.2109,8.2304,8.2304,8.2226,8.2226,8.2304,8.2344,8.25,8.3086,8.3437,8.375,8.4336,8.5156,8.5703,8.625,8.6719,8.7031,8.7383,8.7383,8.75,8.75,8.75,8.75,8.7617,8.8203,8.8281,8.832,8.8554,8.9297,8.9844,9.0469,9.125,9.1797,9.2187,9.2383,9.2461,9.2578,9.2578,9.2578,9.2578,9.2578,9.2578,9.2578,9.2578,9.2578,9.2578,9.2578,9.2578,9.2578,9.2578,9.2578,9.2578,9.2578,9.2578,9.2578,9.2578,9.2578,8.2304,8.2304,8.2304,8.2304,8.2304,8.2304,8.2304,8.2304,8.2304,8.2265,8.2148,8.1992,8.2031,8.1992,8.1836,8.1797,8.1836,8.1914,8.164,8.1094,8.0937,8.0508,8.0195,8.0039,8.0273,7.9805,8.0,8.0195,7.9961,8.0156,8.0039,8.0,7.9844,7.9531,7.9609,7.9609,7.9609,7.9609,7.9453,7.9375,7.9336,7.9258,7.9258,7.9258,7.9219,7.914,7.9219,7.9492,7.9687,7.9765,7.9961,8.0429,8.0898,8.0937,8.1367,8.2031,8.2148,8.2226,8.2304,8.2304,8.2304,8.2383,8.2422,8.2539,8.2578,8.3008,8.375,8.4219,8.4531,8.5234,8.582,8.6289,8.6797,8.707,8.7383,8.75,8.75,8.75,8.75,8.7617,8.7656,8.7812,8.8672,8.9219,8.9258,8.9687,9.0508,9.1094,9.1484,9.1836,9.2304,9.2422,9.2578,9.2578,9.2578,9.2578,9.2578,9.2578,9.2578,9.2578,9.2578,9.2578,9.2578,9.2578,9.2578,9.2578,9.2578,9.2578,9.2578,9.2578,9.2578,9.2578,9.2578,9.2578,9.2578,8.2304,8.2304,8.2304,8.2304,8.2304,8.2304,8.2304,8.2304,8.2304,8.2304,8.2304,8.2304,8.2304,8.2304,8.2304,8.2304,8.2304,8.2304,8.1992,8.1914,8.1797,8.1758,8.1406,8.1211,8.1328,8.1406,8.1406,8.1289,8.1484,8.125,8.1367,8.1445,8.1094,8.0742,8.0,7.9726,7.9687,7.9687,7.9687,7.9687,7.9726,7.9765,7.9805,7.9844,7.9844,7.9883,7.9922,8.0312,8.0547,8.0625,8.0859,8.1406,8.1758,8.1758,8.1953,8.2265,8.2304,8.2304,8.2304,8.2304,8.2304,8.25,8.2812,8.3047,8.3242,8.3984,8.4609,8.5156,8.5469,8.6211,8.6875,8.7031,8.7344,8.7344,8.75,8.75,8.75,8.75,8.7539,8.7734,8.7812,8.8633,8.9453,9.0234,9.0429,9.0469,9.1172,9.1679,9.207,9.2187,9.25,9.2539,9.2578,9.2578,9.2578,9.2578,9.2578,9.2578,9.2578,9.2578,9.2578,9.2578,9.2578,9.2578,9.2578,9.2578,9.2578,9.2578,9.2578,9.2578,9.2578,9.2578,9.2578,9.2578,9.2578,8.2304,8.2304,8.2304,8.2304,8.2304,8.2304,8.2304,8.2304,8.2304,8.2304,8.2304,8.2304,8.2304,8.2304,8.2304,8.2304,8.2304,8.2304,8.2304,8.2304,8.2304,8.2187,8.2226,8.2304,8.207,8.2304,8.2304,8.2226,8.2109,8.2265,8.2187,8.2148,8.2304,8.164,8.0937,8.0742,8.0742,8.0781,8.0859,8.0781,8.0781,8.0703,8.0703,8.0703,8.0703,8.0703,8.0781,8.1054,8.1445,8.1601,8.1914,8.2304,8.2304,8.2304,8.2304,8.2304,8.2304,8.2461,8.2695,8.2812,8.3008,8.3398,8.3554,8.375,8.4101,8.4883,8.5469,8.5976,8.6406,8.6875,8.7344,8.75,8.75,8.75,8.75,8.75,8.7617,8.7617,8.7969,8.8125,8.8672,8.9492,9.0312,9.1054,9.164,9.1679,9.1797,9.2148,9.25,9.2539,9.2578,9.2578,9.2578,9.2578,9.2578,9.2578,9.2578,9.2578,9.2578,9.2578,9.2578,9.2578,9.2578,9.2578,9.2578,9.2578,9.2578,9.2578,9.2578,9.2578,9.2578,9.2578,9.2578,9.2578,9.2578,8.2304,8.2304,8.2304,8.2304,8.2304,8.2304,8.2304,8.2304,8.2304,8.2304,8.2304,8.2304,8.2304,8.2304,8.2304,8.2304,8.2304,8.2304,8.2304,8.2304,8.2304,8.2304,8.2304,8.2304,8.2304,8.2304,8.2304,8.2304,8.2304,8.2304,8.2304,8.2304,8.2304,8.207,8.1953,8.1875,8.1836,8.1797,8.1797,8.1758,8.1719,8.1953,8.1836,8.1836,8.1836,8.1836,8.1914,8.207,8.2148,8.2226,8.2265,8.2304,8.2304,8.2304,8.2304,8.2304,8.2304,8.289,8.332,8.3398,8.4101,8.4453,8.4219,8.4375,8.4883,8.5703,8.625,8.6601,8.6914,8.7187,8.75,8.75,8.75,8.75,8.75,8.7617,8.7773,8.8047,8.8515,8.8984,8.957,9.0351,9.1172,9.1953,9.2226,9.2265,9.2187,9.2304,9.2539,9.2539,9.2578,9.2578,9.2578,9.2578,9.2578,9.2578,9.2578,9.2578,9.2578,9.2578,9.2578,9.2578,9.2578,9.2578,9.2578,9.2578,9.2578,9.2578,9.2578,9.2578,9.2578,9.2578,9.2578,9.2578,9.2578,8.2304,8.2304,8.2304,8.2304,8.2304,8.2304,8.2304,8.2304,8.2304,8.2304,8.2304,8.2304,8.2304,8.2304,8.2304,8.2304,8.2304,8.2304,8.2304,8.2304,8.2304,8.2304,8.2304,8.2304,8.2304,8.2304,8.2304,8.2304,8.2304,8.2304,8.2304,8.2304,8.2304,8.2304,8.2304,8.2304,8.2304,8.2304,8.2304,8.2304,8.2304,8.2304,8.2304,8.2304,8.2304,8.2304,8.2304,8.2304,8.2304,8.2304,8.2304,8.2304,8.2304,8.2304,8.2304,8.2383,8.2812,8.3398,8.3633,8.4179,8.4883,8.5586,8.5508,8.5586,8.6015,8.6484,8.6992,8.7148,8.7226,8.7422,8.75,8.75,8.75,8.75,8.7617,8.789,8.8125,8.8711,8.9219,8.9961,9.0586,9.1094,9.1953,9.2226,9.2422,9.2539,9.2578,9.2578,9.2578,9.2578,9.2578,9.2578,9.2578,9.2578,9.2578,9.2578,9.2578,9.2578,9.2578,9.2578,9.2578,9.2578,9.2578,9.2578,9.2578,9.2578,9.2578,9.2578,9.2578,9.2578,9.2578,9.2578,9.2578,9.2578,9.2578,8.2304,8.2304,8.2304,8.2304,8.2304,8.2304,8.2304,8.2304,8.2304,8.2304,8.2304,8.2304,8.2304,8.2304,8.2304,8.2304,8.2304,8.2304,8.2304,8.2304,8.2304,8.2304,8.2304,8.2304,8.2304,8.2304,8.2304,8.2304,8.2304,8.2304,8.2304,8.2304,8.2304,8.2304,8.2304,8.2304,8.2304,8.2304,8.2304,8.2304,8.2304,8.2304,8.2304,8.2304,8.2304,8.2304,8.2304,8.2304,8.2304,8.2304,8.2304,8.2304,8.2422,8.2578,8.2812,8.3047,8.3633,8.4297,8.4765,8.5156,8.5859,8.6406,8.6679,8.6719,8.6797,8.7109,8.7304,8.7422,8.7461,8.75,8.75,8.75,8.75,8.75,8.7851,8.8203,8.875,8.9375,9.0117,9.0937,9.1523,9.1953,9.2344,9.25,9.2578,9.2578,9.2578,9.2578,9.2578,9.2578,9.2578,9.2578,9.2578,9.2578,9.2578,9.2578,9.2578,9.2578,9.2578,9.2578,9.2578,9.2578,9.2578,9.2578,9.2578,9.2578,9.2578,9.2578,9.2578,9.2578,9.2578,9.2578,9.2578,9.2578,9.2578,8.2304,8.2304,8.2304,8.2304,8.2304,8.2304,8.2304,8.2304,8.2304,8.2304,8.2304,8.2304,8.2304,8.2304,8.2304,8.2304,8.2304,8.2304,8.2304,8.2304,8.2304,8.2304,8.2304,8.2304,8.2304,8.2304,8.2304,8.2304,8.2304,8.2304,8.2304,8.2304,8.2304,8.2304,8.2304,8.2304,8.2304,8.2304,8.2304,8.2304,8.2304,8.2304,8.2304,8.2304,8.2304,8.2304,8.2304,8.2304,8.2304,8.2304,8.2304,8.2304,8.2734,8.3281,8.3594,8.3984,8.4531,8.5117,8.5703,8.6094,8.6601,8.7109,8.75,8.7344,8.7344,8.7383,8.7461,8.75,8.75,8.75,8.75,8.7539,8.7578,8.7851,8.8242,8.8828,8.9609,9.0351,9.1211,9.1836,9.2031,9.2422,9.2461,9.2578,9.2578,9.2578,9.2578,9.2578,9.2578,9.2578,9.2578,9.2578,9.2578,9.2578,9.2578,9.2578,9.2578,9.2578,9.2578,9.2578,9.2578,9.2578,9.2578,9.2578,9.2578,9.2578,9.2578,9.2578,9.2578,9.2578,9.2578,9.2578,9.2578,9.2578,9.2578,8.2304,8.2304,8.2304,8.2304,8.2304,8.2304,8.2304,8.2304,8.2304,8.2304,8.2304,8.2304,8.2304,8.2304,8.2304,8.2304,8.2304,8.2304,8.2304,8.2304,8.2304,8.2304,8.2304,8.2304,8.2304,8.2304,8.2304,8.2304,8.2304,8.2304,8.2304,8.2304,8.2304,8.2304,8.2304,8.2304,8.2304,8.2461,8.2461,8.2539,8.2578,8.2383,8.2304,8.2304,8.2304,8.2344,8.2383,8.2383,8.2344,8.2304,8.2304,8.2656,8.3281,8.4101,8.4531,8.4765,8.539,8.5976,8.6328,8.6758,8.7187,8.7344,8.75,8.75,8.75,8.75,8.75,8.75,8.75,8.75,8.7578,8.7656,8.7812,8.8242,8.875,8.9609,9.0469,9.1367,9.2265,9.2461,9.2578,9.2578,9.2578,9.2578,9.2578,9.2578,9.2578,9.2578,9.2578,9.2578,9.2578,9.2578,9.2578,9.2578,9.2578,9.2578,9.2578,9.2578,9.2578,9.2578,9.2578,9.2578,9.2578,9.2578,9.2578,9.2578,9.2578,9.2578,9.2578,9.2578,9.2578,9.2578,9.2578,9.2578,9.2578,8.2304,8.2304,8.2304,8.2304,8.2304,8.2304,8.2304,8.2304,8.2304,8.2304,8.2304,8.2304,8.2304,8.2304,8.2304,8.2304,8.2304,8.2304,8.2304,8.2304,8.2304,8.2304,8.2304,8.2304,8.2304,8.2304,8.2304,8.2304,8.2304,8.2304,8.2304,8.2304,8.2304,8.2304,8.2304,8.2344,8.2539,8.2851,8.2851,8.3047,8.3125,8.2851,8.2383,8.2304,8.2344,8.25,8.2851,8.2929,8.3164,8.3359,8.3554,8.3711,8.4297,8.5,8.539,8.5703,8.6172,8.6758,8.6914,8.7148,8.75,8.75,8.75,8.75,8.75,8.75,8.75,8.75,8.75,8.75,8.8047,8.8242,8.8672,8.9101,8.9844,9.0703,9.1367,9.207,9.25,9.2539,9.2578,9.2578,9.2578,9.2578,9.2578,9.2578,9.2578,9.2578,9.2578,9.2578,9.2578,9.2578,9.2578,9.2578,9.2578,9.2578,9.2578,9.2578,9.2578,9.2578,9.2578,9.2578,9.2578,9.2578,9.2578,9.2578,9.2578,9.2578,9.2578,9.2578,9.2578,9.2578,9.2578,9.2578,9.2578,8.2304,8.2304,8.2304,8.2304,8.2304,8.2304,8.2304,8.2304,8.2304,8.2304,8.2304,8.2304,8.2304,8.2304,8.2304,8.2304,8.2304,8.2304,8.2304,8.2304,8.2304,8.2304,8.2304,8.2304,8.2304,8.2304,8.2304,8.2304,8.2304,8.2304,8.2304,8.2304,8.2344,8.2383,8.2422,8.2578,8.289,8.3554,8.3867,8.414,8.3906,8.3476,8.3047,8.2773,8.2695,8.3047,8.3554,8.3906,8.4258,8.4531,8.4804,8.4961,8.5273,8.5859,8.6211,8.6562,8.6875,8.7265,8.7422,8.7422,8.75,8.75,8.75,8.75,8.75,8.7539,8.7539,8.7695,8.7695,8.7929,8.8476,8.8984,8.9453,9.0078,9.0898,9.1562,9.2109,9.2578,9.2578,9.2578,9.2578,9.2578,9.2578,9.2578,9.2578,9.2578,9.2578,9.2578,9.2578,9.2578,9.2578,9.2578,9.2578,9.2578,9.2578,9.2578,9.2578,9.2578,9.2578,9.2578,9.2578,9.2578,9.2578,9.2578,9.2578,9.2578,9.2578,9.2578,9.2578,9.2578,9.2578,9.2578,9.2578,9.2578,9.2578,8.2304,8.2304,8.2304,8.2304,8.2304,8.2304,8.2304,8.2304,8.2304,8.2304,8.2304,8.2304,8.2304,8.2304,8.2304,8.2304,8.2304,8.2304,8.2304,8.2304,8.2304,8.2304,8.2304,8.2304,8.2304,8.2304,8.2304,8.2304,8.2304,8.2304,8.2304,8.2304,8.2344,8.2656,8.332,8.3476,8.375,8.4375,8.4687,8.4883,8.4922,8.4648,8.4531,8.4414,8.4414,8.4492,8.4648,8.4648,8.4765,8.5039,8.5547,8.5859,8.6172,8.6601,8.6953,8.7031,8.7383,8.7422,8.75,8.75,8.75,8.75,8.75,8.75,8.7539,8.7617,8.7851,8.8359,8.8437,8.8633,8.9101,8.9609,9.0117,9.0937,9.1758,9.207,9.25,9.2578,9.2578,9.2578,9.2578,9.2578,9.2578,9.2578,9.2578,9.2578,9.2578,9.2578,9.2578,9.2578,9.2578,9.2578,9.2578,9.2578,9.2578,9.2578,9.2578,9.2578,9.2578,9.2578,9.2578,9.2578,9.2578,9.2578,9.2578,9.2578,9.2578,9.2578,9.2578,9.2578,9.2578,9.2578,9.2578,9.2578,9.2578]}]]